[[{"header":{"parameterUnit":"m.s-1","parameterCategory":1,"la1":31.0,"la2":29.5877,"lo1":-88.7671,"lo2":-86.6584,"dy":0.0162,"dx":0.0185,"nx":115,"ny":88,"refTime":"2023-05-30T18:00:00:Z","depth":0,"parameterNumber":2,"parameterNumberName":"U-component_of_WINDS"},"data":[0.0,0.0,0.0,0.0,0.0,0.0,0.0,0.0,0.0,0.0,0.0,0.0,0.0,0.0,0.0,0.0,0.0,0.0,0.0,0.0,0.0,0.0,0.0,0.0,0.0,0.0,0.0,0.0,0.0,0.0,0.0,0.0,0.0,0.0,0.0,0.0,0.0,0.0,0.0,0.0,0.0,0.0,0.0,0.0,0.0,0.0,0.0,0.0,0.0,0.0,0.0,0.0,0.0,0.0,0.0,0.0,0.0,0.0,0.0,0.0,0.0,0.0,0.0,0.0,0.0,0.0,0.0,0.0,0.0,0.0,0.0,0.0,0.0,0.0,0.0,0.0,0.0,0.0,0.0,0.0,0.0,0.0,0.0,0.0,0.0,0.0,0.0,0.0,0.0,0.0,0.0,0.0,0.0,0.0,0.0,0.0,0.0,0.0,0.0,0.0,0.0,0.0,0.0,0.0,0.0,0.0,0.0,0.0,0.0,0.0,0.0,0.0,0.0,0.0,0.0,0.0,0.0,0.0,0.0,0.0,0.0,0.0,0.0,0.0,0.0,0.0,0.0,0.0,0.0,0.0,0.0,0.0,0.0,0.0,0.0,0.0,0.0,0.0,0.0,0.0,0.0,0.0,0.0,0.0,0.0,0.0,0.0,0.0,0.0,0.0,0.0,0.0,0.0,0.0,0.0,0.0,0.0,0.0,0.0,0.0,0.0,0.0,0.0,0.0,0.0,0.0,0.0,0.0,0.0,0.0,0.0,0.0,0.0,0.0,0.0,0.0,0.0,0.0,0.0,0.0,0.0,0.0,0.0,0.0,0.0,0.0,0.0,0.0,0.0,0.0,0.0,0.0,0.0,0.0,0.0,0.0,0.0,0.0,0.0,0.0,0.0,0.0,0.0,0.0,0.0,0.0,0.0,0.0,0.0,0.0,0.0,0.0,0.0,0.0,0.0,0.0,0.0,0.0,0.0,0.0,0.0,0.0,0.0,0.0,0.0,0.0,0.0,0.0,0.0,0.0,0.0,0.0,0.0,0.0,0.0,0.0,0.0,0.0,0.0,0.0,0.0,0.0,0.0,0.0,0.0,0.0,0.0,0.0,0.0,0.0,0.0,0.0,0.0,0.0,0.0,0.0,0.0,0.0,0.0,0.0,0.0,0.0,0.0,0.0,0.0,0.0,0.0,0.0,0.0,0.0,0.0,0.0,0.0,0.0,0.0,0.0,0.0,0.0,0.0,0.0,0.0,0.0,0.0,0.0,0.0,0.0,0.0,0.0,0.0,0.0,0.0,0.0,0.0,0.0,0.0,0.0,0.0,0.0,0.0,0.0,0.0,0.0,0.0,0.0,0.0,0.0,0.0,0.0,0.0,0.0,0.0,0.0,0.0,0.0,0.0,0.0,0.0,0.0,0.0,0.0,0.0,0.0,0.0,0.0,0.0,0.0,0.0,0.0,0.0,0.0,0.0,0.0,0.0,0.0,0.0,0.0,0.0,0.0,0.0,0.0,0.0,0.0,0.0,0.0,0.0,0.0,0.0,0.0,0.0,0.0,0.0,0.0,0.0,0.0,0.0,0.0,0.0,0.0,0.0,0.0,0.0,0.0,0.0,0.0,0.0,0.0,0.0,0.0,0.0,0.0,0.0,0.0,0.0,0.0,0.0,0.0,0.0,0.0,0.0,0.0,0.0,0.0,0.0,0.0,0.0,0.0,0.0,0.0,0.0,0.0,0.0,0.0,0.0,0.0,0.0,0.0,0.0,0.0,0.0,0.0,0.0,0.0,0.0,0.0,0.0,0.0,0.0,0.0,0.0,0.0,0.0,0.0,0.0,0.0,0.0,0.0,0.0,0.0,0.0,0.0,0.0,0.0,0.0,0.0,0.0,0.0,0.0,0.0,0.0,0.0,0.0,0.0,0.0,0.0,0.0,0.0,0.0,0.0,0.0,0.0,0.0,0.0,0.0,0.0,0.0,0.0,0.0,0.0,0.0,0.0,0.0,0.0,0.0,0.0,0.0,0.0,0.0,0.0,0.0,0.0,0.0,0.0,0.0,0.0,0.0,0.0,0.0,0.0,0.0,0.0,0.0,0.0,0.0,0.0,0.0,0.0,0.0,0.0,0.0,0.0,0.0,0.0,0.0,0.0,0.0,0.0,0.0,0.0,0.0,0.0,0.0,0.0,0.0,0.0,0.0,0.0,0.0,0.0,0.0,0.0,0.0,0.0,0.0,0.0,0.0,0.0,0.0,0.0,0.0,0.0,0.0,0.0,0.0,0.0,0.0,0.0,0.0,0.0,0.0,0.0,0.0,0.0,0.0,0.0,0.0,0.0,0.0,0.0,0.0,0.0,0.0,0.0,0.0,0.0,0.0,0.0,0.0,0.0,0.0,0.0,0.0,0.0,0.0,0.0,0.0,0.0,0.0,0.0,0.0,0.0,0.0,0.0,0.0,0.0,0.0,0.0,0.0,0.0,0.0,0.0,0.0,0.0,0.0,0.0,0.0,0.0,0.0,0.0,0.0,0.0,0.0,0.0,0.0,0.0,0.0,0.0,0.0,0.0,0.0,0.0,0.0,0.0,0.0,0.0,0.0,0.0,0.0,0.0,0.0,0.0,0.0,0.0,0.0,0.0,0.0,0.0,0.0,0.0,0.0,0.0,0.0,0.0,0.0,0.0,0.0,0.0,0.0,0.0,0.0,0.0,0.0,0.0,0.0,0.0,0.0,0.0,0.0,0.0,0.0,0.0,0.0,0.0,0.0,0.0,0.0,0.0,0.0,0.0,0.0,0.0,0.0,0.0,0.0,0.0,0.0,0.0,0.0,0.0,0.0,0.0,0.0,0.0,0.0,0.0,0.0,0.0,0.0,0.0,0.0,0.0,0.0,0.0,0.0,0.0,0.0,0.0,0.0,0.0,0.0,0.0,0.0,0.0,0.0,0.0,0.0,0.0,0.0,0.0,0.0,0.0,0.0,0.0,0.0,0.0,0.0,0.0,0.0,0.0,0.0,0.0,0.0,0.0,0.0,0.0,0.0,0.0,0.0,0.0,0.0,0.0,0.0,0.0,0.0,0.0,0.0,0.0,0.0,0.0,0.0,0.0,0.0,0.0,0.0,0.0,0.0,0.0,0.0,0.0,0.0,0.0,0.0,0.0,0.0,0.0,0.0,0.0,0.0,0.0,0.0,0.0,0.0,0.0,0.0,0.0,0.0,0.0,0.0,0.0,0.0,0.0,0.0,0.0,0.0,0.0,0.0,0.0,0.0,0.0,0.0,0.0,0.0,0.0,0.0,0.0,0.0,0.0,0.0,0.0,0.0,0.0,0.0,0.0,0.0,0.0,0.0,0.0,0.0,0.0,0.0,0.0,0.0,0.0,0.0,0.0,0.0,0.0,0.0,0.0,0.0,0.0,0.0,0.0,0.0,0.0,0.0,0.0,0.0,0.0,0.0,0.0,0.0,0.0,0.0,0.0,0.0,0.0,0.0,0.0,0.0,0.0,0.0,0.0,0.0,0.0,0.0,0.0,0.0,0.0,0.0,0.0,0.0,0.0,0.0,0.0,0.0,0.0,0.0,0.0,0.0,0.0,0.0,0.0,0.0,0.0,0.0,0.0,0.0,0.0,0.0,0.0,0.0,0.0,0.0,0.0,0.0,0.0,0.0,0.0,0.0,0.0,0.0,0.0,0.0,0.0,0.0,0.0,0.0,0.0,0.0,0.0,0.0,0.0,0.0,0.0,0.0,0.0,0.0,0.0,0.0,0.0,0.0,0.0,0.0,0.0,0.0,0.0,0.0,0.0,0.0,0.0,0.0,0.0,0.0,0.0,0.0,0.0,0.0,0.0,0.0,0.0,0.0,0.0,0.0,0.0,0.0,0.0,0.0,0.0,0.0,0.0,0.0,0.0,0.0,0.0,0.0,0.0,0.0,0.0,0.0,0.0,0.0,0.0,0.0,0.0,0.0,0.0,0.0,0.0,0.0,0.0,0.0,0.0,0.0,0.0,0.0,0.0,0.0,0.0,0.0,0.0,0.0,0.0,0.0,0.0,0.0,0.0,0.0,0.0,0.0,0.0,0.0,0.0,0.0,0.0,0.0,0.0,0.0,0.0,0.0,0.0,0.0,0.0,0.0,0.0,0.0,0.0,0.0,0.0,0.0,0.0,0.0,0.0,0.0,0.0,0.0,0.0,0.0,0.0,0.0,0.0,0.0,0.0,0.0,0.0,0.0,0.0,0.0,0.0,0.0,0.0,0.0,0.0,0.0,0.0,0.0,0.0,-3.6784,0.0,0.0,0.0,0.0,0.0,0.0,0.0,0.0,0.0,0.0,0.0,0.0,0.0,0.0,0.0,0.0,0.0,0.0,0.0,0.0,0.0,0.0,0.0,0.0,0.0,0.0,0.0,0.0,0.0,0.0,0.0,0.0,0.0,0.0,0.0,0.0,0.0,0.0,0.0,0.0,0.0,0.0,0.0,0.0,0.0,0.0,0.0,0.0,0.0,0.0,0.0,0.0,0.0,0.0,0.0,0.0,0.0,0.0,0.0,0.0,0.0,0.0,0.0,0.0,0.0,0.0,0.0,0.0,0.0,0.0,0.0,0.0,0.0,0.0,0.0,0.0,0.0,0.0,0.0,0.0,0.0,0.0,0.0,0.0,0.0,0.0,0.0,0.0,0.0,0.0,0.0,0.0,0.0,0.0,0.0,0.0,0.0,0.0,0.0,0.0,0.0,0.0,0.0,0.0,0.0,0.0,0.0,0.0,0.0,0.0,-3.48,-3.5161,-3.5807,-3.6163,-3.6146,0.0,0.0,0.0,0.0,0.0,0.0,0.0,0.0,0.0,0.0,0.0,0.0,0.0,0.0,0.0,0.0,0.0,0.0,0.0,0.0,0.0,0.0,0.0,0.0,0.0,0.0,0.0,0.0,0.0,0.0,0.0,0.0,0.0,0.0,0.0,0.0,0.0,0.0,0.0,0.0,0.0,0.0,0.0,0.0,0.0,0.0,0.0,0.0,0.0,0.0,0.0,0.0,0.0,0.0,0.0,0.0,0.0,0.0,0.0,0.0,0.0,0.0,0.0,0.0,0.0,0.0,0.0,0.0,0.0,0.0,0.0,0.0,0.0,0.0,0.0,0.0,0.0,0.0,0.0,0.0,0.0,0.0,0.0,0.0,0.0,0.0,0.0,0.0,0.0,0.0,0.0,0.0,0.0,0.0,0.0,0.0,0.0,0.0,0.0,0.0,0.0,0.0,0.0,0.0,0.0,0.0,0.0,0.0,0.0,0.0,0.0,0.0,-3.5968,-3.5898,-3.5783,0.0,0.0,0.0,0.0,0.0,0.0,0.0,0.0,0.0,0.0,0.0,0.0,0.0,0.0,0.0,0.0,0.0,0.0,0.0,0.0,0.0,0.0,0.0,0.0,0.0,0.0,0.0,0.0,0.0,0.0,0.0,0.0,0.0,0.0,0.0,0.0,0.0,0.0,0.0,0.0,0.0,0.0,0.0,0.0,0.0,0.0,0.0,0.0,0.0,0.0,0.0,0.0,0.0,0.0,0.0,0.0,0.0,0.0,0.0,0.0,0.0,0.0,0.0,0.0,0.0,0.0,0.0,0.0,0.0,0.0,0.0,0.0,0.0,0.0,0.0,0.0,0.0,0.0,0.0,0.0,0.0,0.0,0.0,0.0,0.0,0.0,0.0,0.0,0.0,0.0,0.0,0.0,0.0,0.0,0.0,0.0,0.0,0.0,0.0,0.0,0.0,0.0,0.0,0.0,0.0,0.0,0.0,0.0,0.0,0.0,-3.6522,-3.702,-3.7038,0.0,-3.6333,0.0,0.0,0.0,0.0,0.0,0.0,0.0,0.0,0.0,0.0,0.0,0.0,0.0,0.0,0.0,0.0,0.0,0.0,0.0,0.0,0.0,0.0,0.0,0.0,0.0,0.0,0.0,0.0,0.0,0.0,0.0,0.0,0.0,0.0,0.0,0.0,0.0,0.0,0.0,0.0,0.0,0.0,0.0,0.0,0.0,0.0,0.0,0.0,0.0,0.0,0.0,0.0,0.0,0.0,0.0,0.0,0.0,0.0,0.0,0.0,0.0,0.0,0.0,0.0,0.0,0.0,0.0,0.0,0.0,0.0,0.0,0.0,0.0,0.0,0.0,0.0,0.0,0.0,0.0,0.0,0.0,0.0,0.0,0.0,0.0,0.0,0.0,0.0,0.0,0.0,0.0,0.0,0.0,0.0,0.0,0.0,0.0,0.0,0.0,0.0,0.0,0.0,0.0,0.0,0.0,0.0,0.0,0.0,0.0,0.0,-3.6643,-3.719,-3.719,-3.7097,0.0,0.0,0.0,0.0,0.0,0.0,0.0,0.0,0.0,0.0,0.0,0.0,0.0,0.0,0.0,0.0,0.0,0.0,0.0,0.0,0.0,0.0,0.0,0.0,0.0,0.0,0.0,0.0,0.0,0.0,0.0,0.0,0.0,0.0,0.0,0.0,0.0,0.0,0.0,0.0,0.0,0.0,0.0,0.0,0.0,0.0,0.0,0.0,0.0,0.0,0.0,0.0,0.0,0.0,0.0,0.0,0.0,0.0,0.0,0.0,0.0,0.0,0.0,0.0,0.0,0.0,0.0,0.0,0.0,0.0,0.0,0.0,0.0,0.0,0.0,0.0,0.0,0.0,0.0,0.0,0.0,0.0,0.0,0.0,0.0,0.0,0.0,0.0,0.0,0.0,0.0,0.0,0.0,0.0,0.0,0.0,0.0,0.0,0.0,0.0,0.0,0.0,0.0,0.0,0.0,0.0,0.0,0.0,0.0,0.0,-3.6751,-3.7058,-3.7578,-3.7596,-3.7542,-3.7396,0.0,0.0,0.0,0.0,0.0,0.0,0.0,0.0,0.0,0.0,0.0,0.0,0.0,0.0,0.0,0.0,0.0,0.0,0.0,0.0,0.0,0.0,0.0,0.0,0.0,0.0,0.0,0.0,0.0,0.0,0.0,0.0,0.0,0.0,0.0,0.0,0.0,0.0,0.0,0.0,0.0,0.0,0.0,0.0,0.0,0.0,0.0,0.0,0.0,0.0,0.0,0.0,0.0,0.0,0.0,0.0,0.0,0.0,0.0,0.0,0.0,0.0,0.0,0.0,0.0,0.0,0.0,0.0,0.0,0.0,0.0,0.0,0.0,0.0,0.0,0.0,0.0,0.0,0.0,0.0,0.0,0.0,0.0,0.0,0.0,0.0,0.0,0.0,0.0,0.0,0.0,0.0,0.0,0.0,0.0,0.0,0.0,0.0,0.0,0.0,0.0,0.0,0.0,0.0,0.0,0.0,0.0,0.0,-3.7149,-3.7594,-3.8083,-3.8578,-3.8645,-3.8382,0.0,0.0,0.0,0.0,0.0,0.0,0.0,0.0,0.0,0.0,0.0,0.0,0.0,0.0,0.0,0.0,0.0,0.0,0.0,0.0,0.0,0.0,0.0,0.0,0.0,0.0,0.0,0.0,0.0,0.0,0.0,0.0,0.0,0.0,0.0,0.0,0.0,0.0,0.0,0.0,0.0,0.0,0.0,0.0,0.0,0.0,0.0,0.0,0.0,0.0,0.0,0.0,0.0,0.0,0.0,0.0,0.0,0.0,0.0,0.0,0.0,0.0,0.0,0.0,0.0,0.0,0.0,0.0,0.0,0.0,0.0,0.0,0.0,0.0,0.0,0.0,0.0,0.0,0.0,0.0,0.0,0.0,0.0,0.0,0.0,0.0,0.0,0.0,0.0,0.0,0.0,0.0,0.0,0.0,0.0,0.0,0.0,0.0,0.0,0.0,0.0,0.0,0.0,0.0,0.0,0.0,0.0,0.0,0.0,-3.7202,-3.7972,-3.8515,-3.8707,-3.8707,-3.8627,0.0,0.0,0.0,0.0,0.0,0.0,0.0,0.0,0.0,0.0,0.0,0.0,0.0,0.0,0.0,0.0,0.0,0.0,0.0,0.0,0.0,0.0,0.0,0.0,0.0,0.0,0.0,0.0,0.0,0.0,0.0,0.0,0.0,0.0,0.0,0.0,0.0,0.0,0.0,0.0,0.0,0.0,0.0,0.0,0.0,0.0,0.0,0.0,0.0,0.0,0.0,0.0,0.0,0.0,0.0,0.0,0.0,0.0,0.0,0.0,0.0,0.0,0.0,0.0,0.0,0.0,0.0,0.0,0.0,0.0,0.0,0.0,0.0,0.0,0.0,0.0,0.0,0.0,0.0,0.0,0.0,0.0,0.0,0.0,0.0,0.0,0.0,0.0,0.0,0.0,0.0,0.0,0.0,0.0,0.0,0.0,0.0,0.0,0.0,0.0,0.0,0.0,0.0,0.0,0.0,0.0,0.0,0.0,0.0,-3.7693,0.0,-3.8844,-3.8815,-3.8844,-3.8833,0.0,0.0,0.0,0.0,0.0,0.0,0.0,0.0,0.0,0.0,0.0,0.0,0.0,0.0,0.0,0.0,0.0,0.0,0.0,0.0,0.0,0.0,0.0,0.0,0.0,0.0,0.0,0.0,0.0,0.0,0.0,0.0,0.0,0.0,0.0,0.0,0.0,0.0,0.0,0.0,0.0,0.0,0.0,0.0,0.0,0.0,0.0,0.0,0.0,0.0,0.0,0.0,0.0,0.0,0.0,0.0,0.0,0.0,0.0,0.0,0.0,0.0,0.0,0.0,0.0,0.0,0.0,0.0,0.0,0.0,0.0,0.0,0.0,0.0,0.0,0.0,0.0,0.0,0.0,0.0,0.0,0.0,0.0,0.0,0.0,0.0,0.0,0.0,0.0,0.0,0.0,0.0,0.0,0.0,0.0,0.0,0.0,0.0,0.0,0.0,0.0,0.0,0.0,0.0,0.0,0.0,0.0,0.0,-3.8165,-3.867,-3.8961,-3.9099,-3.9099,-3.9125,-3.9099,0.0,0.0,0.0,0.0,0.0,0.0,0.0,0.0,0.0,0.0,0.0,0.0,0.0,0.0,0.0,0.0,0.0,0.0,0.0,0.0,0.0,0.0,0.0,0.0,0.0,0.0,0.0,0.0,0.0,0.0,0.0,0.0,0.0,0.0,0.0,0.0,0.0,0.0,0.0,0.0,0.0,0.0,0.0,0.0,0.0,0.0,0.0,0.0,0.0,0.0,0.0,0.0,0.0,0.0,0.0,0.0,0.0,0.0,0.0,0.0,0.0,0.0,0.0,0.0,0.0,0.0,0.0,0.0,0.0,0.0,0.0,0.0,0.0,0.0,0.0,0.0,0.0,0.0,0.0,0.0,0.0,0.0,0.0,0.0,0.0,0.0,0.0,0.0,0.0,0.0,0.0,0.0,0.0,0.0,0.0,0.0,0.0,0.0,0.0,0.0,0.0,0.0,0.0,0.0,0.0,0.0,0.0,0.0,0.0,-3.8952,-3.9264,-3.9438,-3.9438,-3.9438,-3.9457,0.0,0.0,0.0,0.0,0.0,0.0,0.0,0.0,0.0,0.0,0.0,0.0,0.0,0.0,0.0,0.0,0.0,0.0,0.0,0.0,0.0,0.0,0.0,0.0,0.0,0.0,0.0,0.0,0.0,0.0,0.0,0.0,0.0,0.0,0.0,0.0,0.0,0.0,0.0,0.0,0.0,0.0,0.0,0.0,0.0,0.0,0.0,0.0,0.0,0.0,0.0,0.0,0.0,0.0,0.0,0.0,0.0,0.0,0.0,0.0,0.0,0.0,0.0,0.0,0.0,0.0,0.0,0.0,0.0,0.0,0.0,0.0,0.0,0.0,0.0,0.0,0.0,0.0,0.0,0.0,0.0,0.0,0.0,0.0,0.0,0.0,0.0,0.0,0.0,0.0,0.0,0.0,0.0,0.0,0.0,0.0,0.0,0.0,0.0,0.0,0.0,0.0,0.0,0.0,0.0,0.0,0.0,0.0,0.0,-3.9486,-3.9668,-3.9797,-3.9797,-3.9775,-3.9797,-3.9775,0.0,0.0,0.0,0.0,0.0,0.0,0.0,0.0,0.0,0.0,0.0,0.0,0.0,0.0,0.0,0.0,0.0,0.0,0.0,0.0,0.0,0.0,0.0,0.0,0.0,0.0,0.0,0.0,0.0,0.0,0.0,0.0,0.0,0.0,0.0,0.0,0.0,0.0,0.0,0.0,0.0,0.0,0.0,0.0,0.0,0.0,0.0,0.0,0.0,0.0,0.0,0.0,0.0,0.0,0.0,0.0,0.0,0.0,0.0,0.0,0.0,0.0,0.0,0.0,0.0,0.0,0.0,0.0,0.0,0.0,0.0,0.0,0.0,0.0,0.0,0.0,0.0,0.0,0.0,0.0,0.0,0.0,0.0,0.0,0.0,0.0,0.0,0.0,0.0,0.0,0.0,0.0,0.0,0.0,0.0,0.0,0.0,0.0,0.0,0.0,0.0,0.0,0.0,0.0,0.0,0.0,0.0,0.0,-4.0101,-4.012,-4.012,-4.012,-4.0101,-4.012,0.0,0.0,0.0,0.0,0.0,0.0,0.0,0.0,0.0,0.0,0.0,0.0,0.0,0.0,0.0,0.0,0.0,0.0,0.0,0.0,0.0,0.0,0.0,0.0,0.0,0.0,0.0,0.0,0.0,0.0,0.0,0.0,0.0,0.0,0.0,0.0,0.0,0.0,0.0,0.0,0.0,0.0,0.0,0.0,0.0,0.0,0.0,0.0,0.0,0.0,0.0,0.0,0.0,0.0,0.0,0.0,0.0,0.0,0.0,0.0,0.0,0.0,0.0,0.0,0.0,0.0,0.0,0.0,0.0,0.0,0.0,0.0,0.0,0.0,0.0,0.0,0.0,0.0,0.0,0.0,0.0,0.0,0.0,0.0,0.0,0.0,0.0,0.0,0.0,0.0,0.0,0.0,0.0,0.0,0.0,0.0,0.0,0.0,0.0,0.0,0.0,0.0,0.0,0.0,0.0,0.0,0.0,0.0,0.0,-4.0389,-4.0389,-4.0389,-4.0389,-4.0389,-4.0389,0.0,0.0,0.0,0.0,0.0,0.0,0.0,0.0,0.0,0.0,0.0,0.0,0.0,0.0,0.0,0.0,0.0,0.0,0.0,0.0,0.0,0.0,0.0,0.0,0.0,0.0,0.0,0.0,0.0,0.0,0.0,0.0,0.0,0.0,0.0,0.0,0.0,0.0,0.0,0.0,0.0,0.0,0.0,0.0,0.0,0.0,0.0,0.0,0.0,0.0,0.0,0.0,0.0,0.0,0.0,0.0,0.0,0.0,0.0,0.0,0.0,0.0,0.0,0.0,0.0,0.0,0.0,0.0,0.0,0.0,0.0,0.0,0.0,0.0,0.0,0.0,0.0,0.0,0.0,0.0,0.0,0.0,0.0,0.0,0.0,0.0,0.0,0.0,0.0,0.0,0.0,0.0,0.0,0.0,0.0,0.0,0.0,0.0,0.0,0.0,0.0,0.0,0.0,0.0,0.0,0.0,0.0,0.0,-4.0354,-4.0489,-4.0489,-4.0489,-4.0489,-4.0489,-4.0489,0.0,0.0,0.0,0.0,0.0,0.0,0.0,0.0,0.0,0.0,0.0,0.0,0.0,0.0,0.0,0.0,0.0,0.0,0.0,0.0,0.0,0.0,0.0,0.0,0.0,0.0,0.0,0.0,0.0,0.0,0.0,0.0,0.0,0.0,0.0,0.0,0.0,0.0,0.0,0.0,0.0,0.0,0.0,0.0,0.0,0.0,0.0,0.0,0.0,0.0,0.0,0.0,0.0,0.0,0.0,0.0,0.0,0.0,0.0,0.0,0.0,0.0,0.0,0.0,0.0,0.0,0.0,0.0,0.0,0.0,0.0,0.0,0.0,0.0,0.0,0.0,0.0,0.0,0.0,0.0,0.0,0.0,0.0,0.0,0.0,0.0,0.0,0.0,0.0,0.0,0.0,0.0,0.0,0.0,0.0,0.0,0.0,0.0,0.0,0.0,0.0,0.0,0.0,0.0,0.0,0.0,0.0,0.0,-4.0489,-4.0489,-4.0489,-4.0489,-4.0489,-4.0489,-4.0489,0.0,0.0,0.0,0.0,0.0,0.0,0.0,0.0,0.0,0.0,0.0,0.0,0.0,0.0,0.0,0.0,0.0,0.0,0.0,0.0,0.0,0.0,0.0,0.0,0.0,0.0,0.0,0.0,0.0,0.0,0.0,0.0,0.0,0.0,0.0,0.0,0.0,0.0,0.0,0.0,0.0,0.0,0.0,0.0,0.0,0.0,0.0,0.0,0.0,0.0,0.0,0.0,0.0,0.0,0.0,0.0,0.0,0.0,0.0,0.0,0.0,0.0,0.0,0.0,0.0,0.0,0.0,0.0,0.0,0.0,0.0,0.0,0.0,0.0,0.0,0.0,0.0,0.0,0.0,0.0,0.0,0.0,0.0,0.0,0.0,0.0,0.0,0.0,0.0,0.0,0.0,0.0,0.0,0.0,0.0,0.0,0.0,0.0,0.0,0.0,0.0,0.0,0.0,0.0,0.0,0.0,0.0,0.0,-4.0489,-4.0489,-4.0489,-4.0489,-4.0489,-4.0489,-4.0489,0.0,0.0,0.0,0.0,0.0,0.0,0.0,0.0,0.0,0.0,0.0,0.0,0.0,0.0,0.0,0.0,0.0,0.0,0.0,0.0,0.0,0.0,0.0,0.0,0.0,0.0,0.0,0.0,0.0,0.0,0.0,0.0,0.0,0.0,0.0,0.0,0.0,0.0,0.0,0.0,0.0,0.0,0.0,0.0,0.0,0.0,0.0,0.0,-2.232,0.0,0.0,0.0,0.0,0.0,0.0,0.0,0.0,0.0,0.0,0.0,0.0,0.0,0.0,0.0,0.0,0.0,0.0,0.0,0.0,0.0,0.0,0.0,0.0,0.0,0.0,0.0,0.0,0.0,0.0,0.0,0.0,0.0,0.0,0.0,0.0,0.0,0.0,0.0,0.0,0.0,0.0,0.0,0.0,0.0,0.0,0.0,0.0,0.0,0.0,0.0,0.0,0.0,0.0,0.0,0.0,0.0,0.0,0.0,-4.0489,-4.0489,-4.0489,-4.0534,-4.0582,-4.0582,-4.0582,0.0,0.0,0.0,0.0,0.0,0.0,0.0,0.0,0.0,0.0,0.0,0.0,0.0,0.0,0.0,0.0,0.0,0.0,0.0,0.0,0.0,0.0,0.0,0.0,0.0,0.0,0.0,0.0,0.0,0.0,0.0,0.0,0.0,0.0,0.0,0.0,0.0,0.0,0.0,0.0,0.0,0.0,0.0,0.0,0.0,0.0,0.0,0.0,0.0,0.0,0.0,0.0,0.0,0.0,0.0,0.0,0.0,0.0,0.0,0.0,0.0,0.0,0.0,0.0,0.0,0.0,0.0,0.0,0.0,0.0,0.0,0.0,0.0,0.0,0.0,0.0,0.0,0.0,0.0,0.0,0.0,0.0,0.0,0.0,0.0,0.0,0.0,0.0,0.0,0.0,0.0,0.0,0.0,0.0,0.0,0.0,0.0,0.0,0.0,0.0,0.0,0.0,0.0,0.0,0.0,0.0,0.0,-4.0489,-4.0489,-4.0489,-4.0519,-4.0602,-4.0711,-4.0715,-4.0729,-4.0751,0.0,0.0,0.0,0.0,0.0,0.0,0.0,0.0,0.0,0.0,0.0,0.0,0.0,0.0,0.0,0.0,0.0,0.0,0.0,0.0,0.0,0.0,0.0,0.0,0.0,0.0,0.0,0.0,0.0,0.0,0.0,0.0,0.0,0.0,0.0,0.0,0.0,0.0,-2.0934,-2.0722,0.0,0.0,0.0,0.0,0.0,0.0,0.0,0.0,-2.5108,0.0,0.0,0.0,0.0,0.0,0.0,0.0,0.0,0.0,0.0,0.0,0.0,0.0,0.0,0.0,0.0,0.0,0.0,0.0,0.0,0.0,0.0,0.0,0.0,0.0,0.0,0.0,0.0,0.0,0.0,0.0,0.0,0.0,0.0,0.0,0.0,0.0,0.0,0.0,0.0,0.0,0.0,0.0,0.0,0.0,0.0,0.0,0.0,0.0,0.0,0.0,0.0,0.0,0.0,0.0,0.0,-4.0489,-4.0489,-4.0489,-4.0504,-4.061,-4.0667,-4.0723,-4.0752,-4.0836,-4.0939,0.0,0.0,0.0,0.0,0.0,0.0,0.0,0.0,0.0,0.0,0.0,0.0,0.0,0.0,0.0,0.0,0.0,0.0,0.0,0.0,0.0,0.0,0.0,0.0,0.0,0.0,0.0,0.0,0.0,0.0,0.0,0.0,0.0,0.0,0.0,0.0,0.0,0.0,0.0,-2.1088,-2.0934,0.0,0.0,0.0,0.0,0.0,0.0,0.0,0.0,-2.7012,0.0,0.0,0.0,0.0,0.0,0.0,0.0,0.0,0.0,0.0,0.0,0.0,0.0,0.0,0.0,0.0,0.0,0.0,0.0,0.0,0.0,0.0,0.0,0.0,0.0,0.0,0.0,0.0,0.0,0.0,0.0,0.0,0.0,0.0,0.0,0.0,0.0,0.0,0.0,0.0,0.0,0.0,0.0,0.0,0.0,0.0,0.0,0.0,0.0,0.0,0.0,0.0,0.0,0.0,0.0,-4.0489,-4.0489,-4.0489,-4.0504,-4.0636,-4.0718,-4.0752,-4.0863,-4.0959,0.0,0.0,0.0,0.0,0.0,0.0,0.0,0.0,0.0,0.0,0.0,0.0,0.0,0.0,0.0,0.0,0.0,0.0,0.0,0.0,0.0,0.0,0.0,0.0,0.0,0.0,0.0,0.0,0.0,0.0,0.0,0.0,0.0,0.0,0.0,0.0,0.0,0.0,0.0,0.0,-2.2403,-2.2264,-2.2702,0.0,0.0,0.0,0.0,0.0,0.0,-2.723,-2.769,0.0,0.0,0.0,0.0,0.0,0.0,0.0,0.0,0.0,0.0,0.0,0.0,0.0,0.0,0.0,0.0,0.0,0.0,0.0,0.0,0.0,0.0,0.0,0.0,0.0,0.0,0.0,0.0,0.0,0.0,0.0,0.0,0.0,0.0,0.0,0.0,0.0,0.0,0.0,0.0,0.0,0.0,0.0,0.0,0.0,0.0,0.0,0.0,0.0,0.0,0.0,0.0,0.0,0.0,0.0,-4.0489,-4.0489,-4.0489,-4.0504,-4.0636,-4.0731,-4.0793,-4.0925,-4.0977,0.0,0.0,0.0,0.0,0.0,0.0,0.0,0.0,0.0,0.0,0.0,0.0,0.0,0.0,0.0,0.0,0.0,0.0,0.0,0.0,0.0,0.0,0.0,0.0,0.0,0.0,0.0,0.0,0.0,0.0,0.0,0.0,0.0,0.0,0.0,0.0,0.0,0.0,0.0,0.0,0.0,-2.3599,-2.3734,-2.448,0.0,0.0,0.0,0.0,-2.7863,-2.7938,0.0,0.0,0.0,0.0,0.0,0.0,0.0,0.0,0.0,0.0,0.0,0.0,0.0,0.0,0.0,0.0,0.0,0.0,0.0,0.0,0.0,0.0,0.0,0.0,0.0,0.0,0.0,0.0,0.0,0.0,0.0,0.0,0.0,0.0,0.0,0.0,0.0,0.0,0.0,0.0,0.0,0.0,0.0,0.0,0.0,0.0,0.0,0.0,0.0,0.0,0.0,0.0,0.0,0.0,0.0,0.0,-4.0489,-4.0489,-4.0489,-4.0504,-4.0617,-4.0751,-4.0793,-4.0925,-4.0704,0.0,0.0,0.0,0.0,0.0,0.0,0.0,0.0,0.0,0.0,0.0,0.0,0.0,0.0,0.0,0.0,0.0,0.0,0.0,0.0,0.0,0.0,0.0,0.0,0.0,0.0,0.0,0.0,0.0,0.0,0.0,0.0,0.0,0.0,0.0,0.0,0.0,0.0,0.0,0.0,0.0,-2.3806,-2.4707,-2.4921,-2.537,0.0,0.0,-2.7313,-2.8021,-2.8487,0.0,0.0,0.0,0.0,0.0,0.0,0.0,0.0,0.0,0.0,0.0,0.0,0.0,0.0,0.0,0.0,0.0,0.0,0.0,0.0,0.0,0.0,0.0,0.0,0.0,0.0,0.0,0.0,0.0,0.0,0.0,0.0,0.0,0.0,0.0,0.0,0.0,0.0,0.0,0.0,0.0,0.0,0.0,0.0,0.0,0.0,0.0,0.0,0.0,0.0,0.0,0.0,0.0,0.0,0.0,-4.0489,-4.0489,-4.0489,-4.0489,-4.0504,-4.0636,-4.0731,-4.0793,-4.0452,-4.0137,0.0,0.0,0.0,0.0,0.0,0.0,0.0,0.0,0.0,0.0,0.0,0.0,0.0,0.0,0.0,0.0,0.0,0.0,0.0,0.0,0.0,0.0,0.0,0.0,0.0,0.0,0.0,0.0,0.0,0.0,0.0,0.0,0.0,0.0,0.0,0.0,0.0,0.0,0.0,0.0,0.0,0.0,-2.5004,-2.5453,0.0,0.0,0.0,-2.7833,-2.8072,0.0,0.0,0.0,0.0,0.0,0.0,0.0,0.0,0.0,0.0,0.0,0.0,0.0,0.0,0.0,0.0,0.0,0.0,0.0,0.0,0.0,0.0,0.0,0.0,0.0,0.0,0.0,0.0,0.0,0.0,0.0,0.0,0.0,0.0,0.0,0.0,0.0,0.0,0.0,0.0,0.0,0.0,0.0,0.0,0.0,0.0,0.0,0.0,0.0,0.0,0.0,0.0,0.0,0.0,0.0,0.0,0.0,-4.0545,-4.0564,-4.0545,-4.0559,-4.0642,-4.0634,-4.0482,-3.9967,0.0,0.0,0.0,0.0,0.0,0.0,0.0,0.0,0.0,0.0,0.0,0.0,0.0,0.0,0.0,0.0,0.0,0.0,0.0,0.0,0.0,0.0,0.0,0.0,0.0,0.0,0.0,-2.8856,0.0,0.0,0.0,0.0,0.0,0.0,0.0,0.0,0.0,0.0,0.0,0.0,0.0,0.0,-2.6245,-2.5441,-2.6025,-2.6571,0.0,0.0,-2.816,-2.8298,-2.9139,-2.9779,0.0,0.0,0.0,0.0,0.0,0.0,0.0,0.0,0.0,0.0,0.0,0.0,0.0,0.0,0.0,0.0,0.0,0.0,0.0,0.0,0.0,0.0,0.0,0.0,0.0,0.0,0.0,0.0,0.0,0.0,0.0,0.0,0.0,0.0,0.0,0.0,0.0,0.0,0.0,0.0,0.0,0.0,0.0,0.0,0.0,0.0,0.0,0.0,0.0,0.0,0.0,0.0,0.0,0.0,0.0,-4.0699,-4.0699,-4.068,-4.068,-4.0692,-4.0363,-3.9715,-3.9645,-3.8931,0.0,0.0,0.0,0.0,0.0,0.0,0.0,0.0,0.0,0.0,0.0,0.0,0.0,0.0,0.0,0.0,0.0,0.0,0.0,0.0,0.0,0.0,0.0,0.0,0.0,0.0,0.0,0.0,0.0,0.0,0.0,0.0,0.0,0.0,0.0,0.0,0.0,0.0,0.0,0.0,0.0,-2.6452,-2.6383,-2.6465,-2.6722,0.0,0.0,-2.8273,-2.8787,-2.9377,-2.9779,-2.9779,0.0,0.0,0.0,0.0,0.0,0.0,0.0,0.0,0.0,0.0,0.0,0.0,0.0,0.0,0.0,0.0,0.0,0.0,0.0,0.0,0.0,0.0,0.0,0.0,0.0,0.0,0.0,0.0,0.0,0.0,0.0,0.0,0.0,0.0,0.0,0.0,0.0,0.0,0.0,0.0,0.0,0.0,0.0,0.0,0.0,0.0,0.0,0.0,0.0,0.0,0.0,0.0,0.0,-4.0574,-4.0711,-4.0723,-4.071,-4.0743,-4.0197,-3.982,-3.9666,-3.8565,-3.7781,0.0,0.0,0.0,0.0,0.0,0.0,0.0,0.0,0.0,0.0,0.0,0.0,0.0,0.0,0.0,0.0,0.0,0.0,0.0,0.0,0.0,0.0,0.0,0.0,0.0,0.0,0.0,0.0,-2.9062,-2.8889,-2.9554,0.0,0.0,0.0,0.0,0.0,0.0,0.0,0.0,0.0,0.0,-2.6521,-2.6521,-2.6521,0.0,0.0,-2.7745,-2.8298,-2.885,-2.9415,-2.9779,-2.9779,-2.9779,0.0,0.0,0.0,0.0,0.0,0.0,0.0,0.0,0.0,0.0,0.0,0.0,0.0,0.0,0.0,0.0,0.0,0.0,0.0,0.0,0.0,0.0,0.0,0.0,0.0,0.0,0.0,0.0,0.0,0.0,0.0,0.0,0.0,0.0,0.0,0.0,0.0,0.0,0.0,0.0,0.0,0.0,0.0,0.0,0.0,0.0,0.0,0.0,0.0,0.0,0.0,0.0,-4.059,-4.0781,-4.0771,-4.0635,-4.0468,-3.9818,-3.9299,-3.8896,-3.7669,-3.6982,0.0,0.0,0.0,0.0,0.0,0.0,0.0,0.0,0.0,0.0,0.0,0.0,0.0,0.0,0.0,0.0,0.0,0.0,0.0,0.0,0.0,0.0,0.0,0.0,0.0,0.0,0.0,0.0,-2.9362,-2.9203,-3.0036,0.0,0.0,0.0,0.0,0.0,0.0,0.0,0.0,0.0,0.0,-2.6521,-2.6521,-2.6603,-2.6904,-2.7457,-2.7996,-2.8536,-2.9101,-2.9541,-2.9779,-2.9779,0.0,0.0,0.0,0.0,0.0,0.0,0.0,0.0,0.0,0.0,0.0,0.0,0.0,0.0,0.0,0.0,0.0,0.0,0.0,0.0,0.0,0.0,0.0,0.0,0.0,0.0,0.0,0.0,0.0,0.0,0.0,0.0,0.0,0.0,0.0,0.0,0.0,0.0,0.0,0.0,0.0,0.0,0.0,0.0,0.0,0.0,0.0,0.0,0.0,0.0,0.0,0.0,0.0,-4.0665,-4.0988,-4.0838,-4.0429,-3.9759,-3.9624,-3.8805,-3.7262,-3.7066,-3.6689,-3.6074,0.0,0.0,0.0,0.0,0.0,0.0,0.0,0.0,0.0,0.0,0.0,0.0,0.0,0.0,0.0,0.0,0.0,0.0,0.0,0.0,0.0,0.0,0.0,0.0,0.0,0.0,-2.9409,-2.9535,-2.947,0.0,0.0,0.0,0.0,0.0,0.0,0.0,0.0,0.0,0.0,-2.6521,-2.6521,-2.6521,-2.6917,-2.7444,-2.7984,-2.8549,-2.9101,-2.9666,-2.9779,-2.9779,0.0,0.0,0.0,0.0,0.0,0.0,0.0,0.0,0.0,0.0,0.0,0.0,0.0,0.0,0.0,0.0,0.0,0.0,0.0,0.0,0.0,0.0,0.0,0.0,0.0,0.0,0.0,0.0,-4.1191,0.0,0.0,0.0,0.0,0.0,0.0,0.0,0.0,0.0,0.0,0.0,-4.0793,-4.0752,0.0,0.0,0.0,0.0,0.0,0.0,0.0,0.0,0.0,0.0,0.0,0.0,-4.071,-4.0818,-4.0291,-3.9903,-3.9685,-3.858,-3.7757,-3.724,-3.6586,-3.618,-3.6016,0.0,0.0,0.0,0.0,0.0,0.0,0.0,0.0,0.0,0.0,0.0,0.0,0.0,0.0,0.0,0.0,0.0,0.0,0.0,0.0,0.0,0.0,0.0,0.0,0.0,-2.9673,0.0,0.0,0.0,0.0,0.0,0.0,0.0,0.0,0.0,0.0,0.0,-2.6521,-2.6521,-2.6521,-2.6521,-2.6521,-2.6929,-2.7482,0.0,0.0,0.0,0.0,0.0,0.0,0.0,0.0,0.0,0.0,0.0,0.0,0.0,0.0,-2.9934,-3.0203,-3.0482,-3.062,-3.0355,0.0,0.0,0.0,0.0,0.0,0.0,0.0,0.0,0.0,0.0,0.0,0.0,0.0,0.0,0.0,0.0,-4.1103,0.0,0.0,0.0,0.0,0.0,0.0,0.0,0.0,-4.0796,-4.0733,-4.0692,-4.0648,-4.0648,0.0,-4.0752,-4.0731,0.0,0.0,0.0,0.0,0.0,0.0,0.0,0.0,-4.0586,-4.0376,-3.9867,-3.9351,-3.8807,-3.7764,-3.7094,-3.6855,-3.6244,-3.595,-3.6016,-3.6016,-3.6016,0.0,0.0,0.0,0.0,0.0,0.0,0.0,0.0,0.0,0.0,0.0,0.0,0.0,0.0,0.0,0.0,0.0,0.0,0.0,0.0,0.0,0.0,0.0,-2.9805,0.0,0.0,0.0,0.0,0.0,0.0,0.0,0.0,0.0,-2.6589,-2.6521,-2.6521,-2.6521,-2.6521,-2.6596,-2.6785,0.0,0.0,0.0,0.0,0.0,0.0,0.0,-2.9779,-2.9779,-2.9779,-2.9779,-2.9779,-2.9779,-2.9702,-2.9275,0.0,0.0,-2.9702,-3.0266,-3.0558,-2.9934,-3.1057,-3.1829,-3.0895,-3.1756,-3.2806,0.0,0.0,0.0,0.0,0.0,0.0,0.0,0.0,-4.1052,-4.1055,0.0,-4.0914,0.0,0.0,0.0,0.0,0.0,0.0,0.0,0.0,-4.0703,-4.0636,-4.0504,-4.0504,-4.0504,-4.0504,-4.0636,-4.0636,-4.0519,-4.0636,0.0,0.0,0.0,0.0,0.0,0.0,-4.0325,-3.9622,-3.9519,-3.875,-3.7284,-3.7172,-3.6802,-3.6055,-3.6016,-3.6016,-3.6016,-3.6016,-3.6016,-3.6016,-3.5996,0.0,0.0,0.0,0.0,0.0,0.0,0.0,0.0,0.0,0.0,0.0,0.0,0.0,0.0,0.0,0.0,0.0,0.0,0.0,0.0,-3.0658,0.0,0.0,0.0,0.0,0.0,0.0,0.0,0.0,0.0,0.0,-2.6589,-2.6521,-2.6521,-2.6521,0.0,0.0,0.0,0.0,-2.8298,-2.8837,-2.9415,-2.9779,-2.9779,-2.9779,-2.9779,-2.9779,0.0,0.0,-2.9702,-2.9792,-2.9443,-2.8335,-2.8176,-2.8426,-2.9534,-2.9702,-2.9779,-2.9792,-3.0558,-3.0833,-3.0126,-3.1267,-3.2522,-4.0835,0.0,0.0,0.0,0.0,-4.0914,-4.0914,-4.0914,-4.087,-4.0877,-4.0914,-4.0824,0.0,0.0,0.0,0.0,0.0,0.0,-4.0807,-4.0723,-4.0723,-4.0636,-4.0489,-4.0489,-4.0489,-4.0504,-4.053,-4.053,-4.0504,-4.053,-4.0604,-4.0721,0.0,0.0,0.0,0.0,-3.9663,-3.9412,-3.8338,-3.7527,-3.707,-3.6591,-3.6249,-3.6016,-3.6016,-3.6016,-3.6016,-3.6016,-3.6016,-3.6016,-3.595,0.0,0.0,0.0,0.0,0.0,0.0,0.0,0.0,0.0,0.0,0.0,0.0,0.0,0.0,0.0,0.0,0.0,0.0,0.0,-3.1213,-3.0658,-3.019,0.0,0.0,0.0,0.0,0.0,0.0,0.0,0.0,0.0,-2.6726,-2.6521,-2.6521,0.0,0.0,-2.6735,-2.7205,-2.7758,-2.8298,-2.885,0.0,0.0,0.0,-2.9779,-2.9779,-2.9779,-2.9779,-2.9534,-2.8688,-2.9275,-2.9443,-2.8335,-2.8084,-2.8255,-2.8505,-2.8597,-2.8858,-2.9611,-3.0558,-3.0908,-3.0139,-3.0771,-3.1815,-4.0648,-4.0682,-4.0779,-4.0801,-4.0801,-4.0801,-4.0801,-4.0793,-4.077,-4.0779,-4.0793,-4.0723,-4.0733,-4.0801,-4.0801,0.0,0.0,0.0,-4.0701,-4.0623,-4.0623,-4.0568,-4.0504,-4.0489,-4.0489,-4.0504,-4.0559,-4.0545,-4.0489,-4.0559,-4.0623,-4.0711,0.0,0.0,-4.0743,-3.9867,-3.922,-3.8818,-3.7618,-3.6802,-3.6442,-3.6127,-3.5951,-3.5951,-3.5976,-3.5976,-3.5971,-3.5976,-3.6016,-3.6016,-3.5923,-3.5884,0.0,0.0,0.0,0.0,0.0,0.0,0.0,0.0,0.0,0.0,0.0,-3.4401,-3.4401,0.0,0.0,0.0,-3.1914,-3.1432,-3.123,-3.0658,0.0,0.0,0.0,0.0,0.0,0.0,0.0,-2.8615,-2.8466,-2.7986,-2.6645,-2.6521,-2.6521,-2.6521,-2.6521,-2.6741,-2.7507,0.0,-2.8386,-2.9151,-2.9566,-2.9779,-2.9779,-2.9443,-2.904,-2.8542,-2.887,-2.8937,-2.8255,-2.8359,-2.8211,-2.7614,-2.7105,-2.6767,-2.6767,-2.6767,-2.7522,-2.9365,-2.9858,-2.9909,-2.9779,-3.0279,-3.0908,-4.0489,-4.0534,-4.0692,-4.0768,-4.0768,-4.0768,-4.0768,-4.0768,-4.0718,-4.0721,-4.077,-4.059,-4.061,-4.0768,-4.0749,0.0,0.0,-4.068,-4.0623,-4.0489,-4.0489,-4.0489,-4.0489,-4.0489,-4.0489,-4.0504,-4.0636,-4.0604,-4.0504,-4.0623,-4.068,-4.068,-4.0699,-4.0672,-4.0568,-3.9724,-3.882,-3.7911,-3.7158,-3.6425,-3.5652,-3.5817,-3.5884,-3.5884,-3.5971,-3.5971,-3.59,-3.5929,-3.5976,-3.5976,-3.5916,-3.5869,-3.5869,0.0,0.0,0.0,0.0,0.0,0.0,0.0,0.0,0.0,0.0,0.0,0.0,0.0,0.0,0.0,-3.1694,0.0,-3.119,-3.0601,0.0,0.0,0.0,-3.047,-3.0563,-3.0441,-3.0011,-2.9115,0.0,0.0,0.0,0.0,-2.6521,-2.6521,-2.6559,-2.6917,-2.7959,-2.8147,-2.8561,-2.9616,-2.9779,-2.9779,-2.9779,-2.8924,-2.7763,-2.6719,-2.729,-2.7924,-2.7683,-2.7209,-2.6565,-2.6378,-2.5546,-2.4882,-2.4882,-2.4872,-2.5703,-2.887,-2.8688,-2.8335,-2.9287,-2.9521,-2.9729,-4.0489,-4.0504,-4.0554,-4.0577,-4.0577,-4.0577,-4.0577,-4.0544,-4.054,-4.0554,-4.0563,-4.0515,-4.053,-4.0577,-4.0577,-4.0568,-4.0545,-4.0545,-4.0515,-4.0489,-4.0489,-4.0489,-4.0489,-4.0489,-4.0489,-4.0504,-4.0534,-4.0515,-4.0504,-4.0515,-4.0545,-4.0564,-4.0545,-4.0268,-3.9696,-3.8814,-3.7896,-3.7012,-3.6277,-3.5888,-3.5821,-3.5877,-3.5884,-3.5884,-3.5913,-3.5877,-3.5741,-3.5752,-3.5783,-3.5777,-3.5702,-3.5676,-3.5657,-3.5675,0.0,0.0,0.0,0.0,0.0,0.0,0.0,0.0,0.0,-3.4423,-3.4655,0.0,-3.3447,0.0,-3.1731,-3.119,-3.119,-3.0251,0.0,0.0,-3.0346,-3.0177,-3.115,-3.1246,-3.0658,-2.9192,-2.8798,-2.8117,-2.6645,-2.6521,-2.6521,-2.6533,-2.6829,-2.7331,-2.8009,-2.8486,-2.8976,-2.9628,-2.9779,-2.9779,-2.9624,-2.8846,-2.7429,-2.5535,-2.613,-2.6543,-2.5703,-2.613,-2.6224,-2.5378,-2.5041,-2.4798,-2.4787,-2.4135,-2.4467,-2.6637,-2.7058,-2.7209,-2.8267,-2.7867,-2.7832,-4.0489,-4.0489,-4.0489,-4.0489,-4.0489,-4.0489,-4.0489,-4.0489,-4.0489,-4.0489,-4.0489,-4.0489,-4.0489,-4.0489,-4.0489,-4.0489,-4.0489,-4.0489,-4.0489,-4.0489,-4.0489,-4.0489,-4.0489,-4.0489,-4.0489,-4.0489,-4.0489,-4.0489,-4.0489,-4.0489,-4.0489,-4.0489,-4.0142,-3.9567,-3.8794,-3.8257,-3.7589,-3.6805,-3.5971,-3.565,-3.5802,-3.5807,-3.586,-3.588,-3.5884,-3.5841,-3.571,-3.5703,-3.5723,-3.5791,-3.5694,-3.5638,-3.5638,-3.5646,-3.5648,0.0,0.0,0.0,0.0,0.0,0.0,0.0,0.0,0.0,0.0,0.0,-3.3429,0.0,-3.1714,0.0,-3.119,-3.0351,-3.0238,-3.131,-3.0541,-3.0386,-3.139,-3.1467,-3.0837,-2.9178,-2.8989,-2.8363,-2.6714,-2.6521,-2.6521,-2.6533,-2.7155,-2.7758,-2.8084,-2.8586,-2.9139,-2.9679,-2.9779,-2.9378,-2.8542,-2.7787,-2.6625,-2.4628,-2.4967,-2.5546,-2.4872,-2.4882,-2.4882,-2.4787,-2.4382,-2.4039,-2.4049,-2.3551,-2.3724,-2.5052,-2.5305,-2.563,-2.7035,-2.6964,-2.6942,-4.06,-4.0489,-4.0489,-4.0489,-4.0489,-4.0489,-4.0489,-4.0489,-4.0489,-4.0489,-4.0489,-4.0489,-4.0489,-4.0489,-4.0489,-4.0489,-4.0489,-4.0489,-4.0489,-4.0489,-4.0489,-4.0489,-4.0489,-4.0489,-4.0489,-4.0489,-4.0489,-4.0489,-4.0489,-4.0489,-4.0489,-4.0485,-3.97,-3.8869,-3.8036,-3.7906,-3.7473,-3.6728,-3.5905,-3.5577,-3.5703,-3.5703,-3.5761,-3.5869,-3.5869,-3.5811,-3.5675,-3.5667,-3.5723,-3.5827,-3.573,-3.5687,-3.5687,-3.5621,-3.5611,0.0,-3.5546,0.0,0.0,0.0,0.0,0.0,0.0,0.0,0.0,-3.391,-3.3372,-3.2583,-3.175,-3.1252,-3.119,-3.0658,-3.0593,-3.1278,-3.0864,-3.0784,-3.1387,-3.1467,-3.0837,-2.9192,-2.8989,-2.8363,-2.6782,-2.6521,-2.6521,-2.6609,-2.7394,-2.8047,-2.816,-2.8662,-2.9264,-2.9741,-2.9702,-2.8779,-2.6883,-2.6307,-2.5557,-2.3724,-2.3963,-2.4542,-2.4542,-2.38,-2.3474,-2.4211,-2.38,-2.3222,-2.3144,-2.3135,-2.3377,-2.4372,-2.3877,-2.3973,-2.5641,-2.6058,-2.6141,-4.1143,-4.0508,-4.0489,-4.0489,-4.0489,-4.0489,-4.0489,-4.0489,-4.0489,-4.0489,-4.0489,-4.0489,-4.0489,-4.0489,-4.0489,-4.0489,-4.0489,-4.0489,-4.0489,-4.0489,-4.0489,-4.0489,-4.0489,-4.0489,-4.0489,-4.0489,-4.0489,-4.0489,-4.0489,-4.0489,-4.0489,-4.0485,-3.9681,-3.8888,0.0,0.0,0.0,0.0,-3.5643,-3.562,-3.5703,-3.5703,-3.571,-3.5729,-3.5671,0.0,-3.5553,-3.5521,-3.5534,-3.557,-3.5534,0.0,0.0,0.0,0.0,0.0,0.0,0.0,0.0,0.0,0.0,0.0,-3.4467,-3.4288,-3.4176,-3.3661,-3.3075,-3.255,-3.2004,-3.1528,-3.123,-3.0658,-3.0609,-3.1262,-3.088,-3.0784,-3.1387,-3.1467,-3.0837,-2.9254,-2.8989,-2.8363,-2.6782,-2.6521,-2.6521,-2.6584,-2.7406,-2.8059,-2.8109,-2.8963,-2.9628,-2.9702,-2.9015,-2.7602,-2.5452,-2.5126,-2.4723,-2.3474,-2.3222,-2.3474,-2.3474,-2.3299,-2.3144,-2.3464,-2.3222,-2.3144,-2.3144,-2.3144,-2.3135,-2.3387,-2.3212,-2.3474,-2.4798,-2.4382,-2.3963,-4.195,0.0,-4.1143,-4.0893,0.0,-4.0489,-4.0489,-4.0489,-4.0489,-4.0489,-4.0489,-4.0489,-4.0489,-4.0489,-4.0489,-4.0489,-4.0489,-4.0489,-4.0489,-4.0489,-4.0489,-4.0489,-4.0489,-4.0489,-4.0489,-4.0489,-4.0489,-4.0489,-4.0489,-4.0489,-4.0296,-3.9873,-3.9065,-3.8243,-3.7398,-3.6548,-3.5911,-3.5507,-3.5514,-3.5581,-3.5646,-3.5646,-3.5671,-3.5703,0.0,0.0,0.0,0.0,0.0,0.0,0.0,0.0,0.0,0.0,0.0,-3.5558,-3.5558,-3.5558,-3.5546,-3.5262,-3.5,-3.4714,-3.4242,-3.3993,-3.4012,-3.3514,-3.2996,-3.255,-3.2074,-3.1623,-3.1269,-3.0935,-3.0912,-3.1358,-3.1128,-3.112,-3.1426,-3.1467,-3.0822,-2.938,-2.8989,-2.8363,-2.6714,-2.6521,-2.6521,-2.6584,-2.7406,-2.8122,-2.821,-2.9076,-2.9611,-2.9028,-2.8028,-2.6707,-2.5115,-2.4286,-2.38,-2.3212,-2.3144,-2.3144,-2.3144,-2.3144,-2.3144,-2.3144,-2.3144,-2.3144,-2.3144,-2.3144,-2.295,-2.2403,-2.2677,-2.294,-2.3144,-2.3096,-2.3212,-4.2816,-4.2027,-4.1873,-4.1393,-4.0719,-4.0566,-4.0489,-4.0489,0.0,0.0,0.0,-4.0489,-4.0489,-4.0489,-4.0489,-4.0489,-4.0489,-4.0489,-4.0489,-4.0489,-4.0489,-4.0489,-4.0489,-4.0489,-4.0489,-4.0489,-4.0489,-4.0489,-4.0489,-4.0489,-4.0104,-3.9296,-3.843,-3.7488,-3.6526,-3.5834,-3.5507,-3.5507,-3.5526,-3.5547,-3.56,-3.5611,-3.5621,-3.5675,-3.5602,-3.5588,-3.5588,-3.5534,-3.5534,-3.5588,-3.5588,-3.5588,-3.5588,-3.5588,-3.555,-3.5501,-3.5507,-3.5507,-3.5493,-3.5187,-3.487,-3.4569,-3.4062,-3.3807,-3.3807,-3.3437,-3.3014,-3.2533,-3.2057,-3.1623,-3.1269,-3.119,-3.1241,-3.139,-3.1406,-3.1397,-3.1513,-3.1467,-3.0851,-2.938,-2.8989,-2.8376,-2.6782,-2.6521,-2.6521,-2.6659,-2.7406,-2.8075,-2.8226,-2.8808,-2.887,-2.7602,-2.6696,-2.5808,-2.4713,-2.38,-2.3135,-2.3135,-2.3144,-2.3144,-2.3144,-2.3144,-2.3144,-2.3144,-2.3144,-2.296,-2.2862,-2.2677,-2.2315,-2.1212,-2.1756,-2.2217,-2.14,-2.1756,-2.2501,-4.3662,-4.2854,-4.2124,-4.1739,-4.1566,-4.0816,-4.0489,-4.0489,-4.0489,-4.0489,-4.0489,-4.0489,-4.0489,-4.0489,-4.0489,-4.0489,-4.0489,-4.0489,-4.0489,0.0,-4.0489,-4.0489,-4.0489,-4.0489,-4.0489,-4.0489,-4.0489,-4.0489,-4.0489,-4.0489,-4.0085,-3.9277,-3.843,-3.7219,-3.5795,-3.5551,-3.5507,-3.5507,-3.5565,-3.5586,-3.56,-3.5611,-3.5621,-3.5611,-3.5558,-3.5495,-3.5495,-3.5501,-3.5488,-3.5495,-3.5495,-3.5515,-3.5515,-3.5509,-3.5501,-3.5488,-3.5507,-3.5507,-3.5474,-3.5053,-3.4526,-3.4005,-3.3842,-3.3807,-3.3807,-3.3419,-3.3014,-3.255,-3.2074,-3.164,-3.1252,-3.119,-3.1241,-3.1373,-3.1406,-3.1413,-3.1516,-3.1467,-3.0837,-2.9254,-2.8989,-2.8363,-2.685,-2.6521,-2.6521,-2.6603,-2.7335,-2.8027,-2.7909,-2.8239,-2.7429,-2.5775,-2.5126,-2.4542,-2.3714,-2.3299,-2.3144,-2.3144,-2.3144,-2.3047,-2.296,-2.296,-2.296,-2.3047,-2.2862,-2.258,-2.1854,-2.1569,-2.1025,-2.0034,-2.0133,-2.0133,-1.9852,-2.0042,-2.0863,-4.4231,-4.3503,-4.3246,-4.2912,-4.2431,-4.1566,-4.0931,-4.0508,-4.0489,-4.0489,-4.0489,-4.0489,-4.0489,-4.0489,-4.0489,-4.0489,-4.0489,-4.0489,-4.0489,-4.0489,-4.0489,-4.0489,-4.0489,-4.0489,-4.0489,-4.0489,-4.0489,-4.0489,-4.045,-4.0065,-3.9431,-3.8565,-3.7296,-3.6257,-3.5551,-3.5507,-3.5507,-3.5507,-3.5526,-3.5566,-3.5565,-3.5546,-3.5565,-3.5546,-3.5528,-3.5507,-3.5507,-3.5507,-3.5507,-3.5507,-3.5507,-3.5507,-3.5507,-3.5507,-3.5507,-3.5507,-3.5507,-3.5451,-3.5289,-3.4755,-3.426,-3.3842,-3.3807,-3.3807,-3.3807,-3.3437,-3.3014,-3.255,-3.2057,-3.164,-3.1252,-3.119,-3.1241,-3.1406,-3.1406,-3.1444,-3.1494,-3.1467,-3.0837,-2.9317,-2.8989,-2.8363,-2.6714,-2.6521,-2.6521,-2.6553,-2.6964,-2.7007,-2.6445,-2.6356,-2.6025,-2.5041,-2.4798,-2.4296,-2.3299,-2.3144,-2.3144,-2.3144,-2.3144,-2.2775,-2.2306,-2.212,-2.2129,-2.2031,-2.1667,-2.1302,-2.1114,-2.0755,-1.9852,-1.8956,-1.9131,-1.9222,-1.8864,-1.9488,-2.1105,-4.4604,-4.3999,-4.4038,-4.3636,-4.2902,-4.2129,-4.1431,-4.0796,-4.0585,-4.0489,-4.0489,-4.0489,-4.0489,-4.0489,-4.0489,-4.0489,-4.0489,-4.0489,-4.0489,-4.0489,-4.0489,-4.0489,-4.0489,-4.0489,-4.0489,-4.0489,-4.0489,-4.0489,-4.0392,-3.9681,-3.8757,-3.768,-3.6219,-3.5507,-3.5507,-3.5507,-3.5507,-3.5507,-3.5507,-3.5507,-3.5507,-3.5507,-3.5507,-3.5507,-3.5507,-3.5507,-3.5507,-3.5507,-3.5507,-3.5507,-3.5507,-3.5507,-3.5507,-3.5507,-3.5507,-3.5493,-3.5465,-3.5254,-3.4888,-3.447,-3.4093,-3.3834,-3.3807,-3.3762,-3.3634,-3.3273,-3.2872,-3.2517,-3.1986,-3.149,-3.1252,-3.1055,-3.1115,-3.1342,-3.126,-3.1239,-3.1483,-3.1467,-3.0837,-2.938,-2.8989,-2.8376,-2.696,-2.6521,-2.6509,-2.6507,-2.6296,-2.5745,-2.4986,-2.4617,-2.4372,-2.4372,-2.4372,-2.4049,-2.3222,-2.3144,-2.296,-2.2765,-2.2668,-2.2031,-2.1302,-2.0935,-2.0935,-2.0845,-2.0215,-1.9861,-2.0305,-1.9761,-1.868,-1.7677,-1.7863,-1.8218,-1.749,-1.8764,-2.0648,-4.4594,-4.4405,-4.3731,-4.3084,-4.2563,-4.2042,-4.1742,-4.153,-4.0835,-4.0489,-4.0489,-4.0489,-4.0489,-4.0489,-4.0489,-4.0489,-4.0489,-4.0489,-4.0489,-4.0489,-4.0489,-4.0489,-4.0489,-4.0489,-4.0489,-4.0489,-4.0489,-4.0469,-4.0373,-3.9604,-3.8411,-3.6911,-3.5916,-3.5507,-3.5507,-3.5507,-3.5507,-3.5507,-3.5507,-3.5507,-3.5507,-3.5507,-3.5507,-3.5507,-3.5507,-3.5507,-3.5507,-3.5507,-3.5507,-3.5507,-3.5507,-3.5507,-3.5507,-3.5507,-3.5507,-3.5474,-3.5273,-3.4888,-3.4379,-3.4242,-3.4093,-3.386,-3.3807,-3.3634,-3.3302,-3.2858,-3.255,-3.235,-3.1714,-3.1291,-3.119,-3.074,-3.0697,-3.115,-3.0898,-3.0837,-3.1294,-3.1467,-3.0837,-2.9192,-2.8939,-2.8376,-2.685,-2.6452,-2.6408,-2.6306,-2.5528,-2.4944,-2.4598,-2.3963,-2.3464,-2.3387,-2.3309,-2.3309,-2.3144,-2.3144,-2.2687,-2.1845,-2.148,-2.1025,-2.0215,-1.9679,-1.967,-1.967,-1.9397,-1.8948,-1.8503,-1.787,-1.7498,-1.6662,-1.6386,-1.6285,-1.6197,-1.7304,-1.8672,-4.4233,-4.4243,-4.4124,-4.3655,-4.2943,-4.2281,-4.1677,-4.1144,-4.054,-4.0271,-4.0286,-4.0441,-4.0489,-4.0489,-4.0489,-4.0489,-4.0489,-4.0489,-4.0489,-4.0489,-4.0489,-4.0489,-4.0489,-4.0489,-4.0489,-4.0489,-4.0489,-4.0254,-3.9623,-3.843,-3.7161,-3.6084,-3.5641,-3.5507,-3.5507,-3.5507,-3.5507,-3.5507,-3.5507,-3.5507,-3.5507,-3.5507,-3.5507,-3.5507,-3.5507,-3.5507,-3.5507,-3.5507,-3.5507,-3.5507,-3.5507,-3.5507,-3.5507,-3.5507,-3.5507,-3.546,-3.5105,-3.4675,-3.4242,-3.4068,-3.391,-3.3807,-3.3807,-3.3634,-3.3214,-3.2777,-3.24,-3.2074,-3.1545,-3.1072,-3.0699,-3.0435,-3.0315,-3.0306,-3.0394,-3.063,-3.0848,-3.0866,-3.0269,-2.9192,-2.857,-2.7789,-2.6701,-2.5955,-2.5601,-2.5371,-2.4591,-2.4013,-2.378,-2.3387,-2.3135,-2.3144,-2.3144,-2.3144,-2.3144,-2.3144,-2.2501,-2.1658,-2.1293,-2.0755,-1.8948,-1.8411,-1.8411,-1.8411,-1.7848,-1.7669,-1.787,-1.6943,-1.6386,-1.573,-1.5825,-1.5825,-1.5825,-1.685,-1.7591,-4.3849,-4.3924,-4.428,-4.4062,-4.3442,-4.2737,-4.1933,-4.1127,-4.0536,-4.015,-3.9983,-4.0155,-4.0315,-4.0389,-4.0473,-4.0489,-4.0489,-4.0489,-4.0489,-4.0489,-4.0489,-4.0489,-4.0489,-4.0489,-4.0489,-4.0489,-4.0489,-3.995,-3.8892,-3.7469,-3.6295,-3.5622,-3.5507,-3.5507,-3.5507,-3.5507,-3.5507,-3.5507,-3.5507,-3.5507,-3.5507,-3.5507,-3.5507,-3.5507,-3.5507,-3.5507,-3.5507,-3.5507,-3.5507,-3.5507,-3.5507,-3.5507,-3.5507,-3.5507,-3.5432,-3.5254,-3.4926,-3.4508,-3.4141,-3.3884,-3.3807,-3.3807,-3.3707,-3.3465,-3.3045,-3.2583,-3.2144,-3.1714,-3.1389,-3.0958,-3.0435,-3.0166,-2.9891,-2.9555,-3.0001,-3.0297,-3.0503,-3.0353,-3.0011,-2.9129,-2.8312,-2.7271,-2.6277,-2.5465,-2.4938,-2.4448,-2.3823,-2.3258,-2.314,-2.3144,-2.3144,-2.3047,-2.2862,-2.2765,-2.296,-2.2677,-2.212,-2.1123,-2.0486,-1.9397,-1.7677,-1.7318,-1.7131,-1.703,-1.6001,-1.5724,-1.6473,-1.6103,-1.5242,-1.5242,-1.5242,-1.5242,-1.5146,-1.5886,-1.5792,-4.3532,-4.3563,-4.3881,-4.399,-4.3897,-4.3396,-4.2737,-4.1807,-4.1098,-4.034,-3.9664,-3.9667,-3.9831,-4.0139,-4.0372,-4.0489,-4.0489,-4.0489,-4.0489,-4.0489,-4.0489,-4.0489,-4.0489,-4.0489,-4.0489,-4.0489,-4.0489,-3.9681,-3.8123,-3.7142,-3.6281,-3.5551,-3.5507,-3.5507,-3.5507,-3.5507,-3.5507,-3.5507,-3.5507,-3.5507,-3.5507,-3.5507,-3.5507,-3.5507,-3.5507,-3.5507,-3.5507,-3.5507,-3.5507,-3.5507,-3.5507,-3.5507,-3.5507,-3.5507,-3.5289,-3.4813,-3.4714,-3.442,-3.3928,-3.3815,-3.3807,-3.378,-3.3476,-3.3045,-3.2616,-3.2161,-3.1733,-3.1274,-3.1173,-3.0878,-3.0293,-2.9805,-2.948,-2.9379,-2.9553,-2.9913,-3.0347,-3.0207,-2.9907,-2.9066,-2.8038,-2.6854,-2.5358,-2.5004,-2.4357,-2.3748,-2.3322,-2.3186,-2.314,-2.3144,-2.3144,-2.2862,-2.2306,-2.1765,-2.2687,-2.2041,-2.0944,-1.9943,-1.8856,-1.7677,-1.6662,-1.5825,-1.592,-1.5717,-1.4943,-1.4746,-1.5337,-1.5045,-1.4268,-1.3974,-1.3974,-1.3974,-1.398,-1.2915,-1.2915,-4.3479,-4.3513,-4.3631,-4.366,-4.3601,-4.2934,-4.2198,-4.1401,-4.0766,-4.0026,-3.9406,-3.9514,-3.9658,-3.9797,-4.0101,-4.0339,-4.0489,-4.0489,-4.0489,-4.0489,-4.0489,-4.0489,-4.0489,-4.0489,-4.0489,-4.0489,-4.0489,-3.9642,-3.8007,-3.6622,-3.5795,-3.5565,-3.5507,-3.5507,-3.5507,-3.5507,-3.5507,-3.5507,-3.5507,-3.5507,-3.5507,-3.5507,-3.5507,-3.5507,-3.5507,-3.5507,-3.5507,-3.5507,-3.5507,-3.5507,-3.5507,-3.5507,-3.5507,-3.5507,-3.5273,-3.4793,-3.4694,-3.442,-3.3902,-3.3807,-3.3807,-3.378,-3.3419,-3.2983,-3.255,-3.2074,-3.164,-3.1235,-3.0838,-3.0393,-2.9865,-2.954,-2.9091,-2.8503,-2.9049,-2.9476,-2.9201,-2.9294,-2.9115,-2.8155,-2.6909,-2.5697,-2.4992,-2.3891,-2.3145,-2.3202,-2.2798,-2.2655,-2.2977,-2.3144,-2.3047,-2.2862,-2.212,-2.148,-2.1747,-2.0935,-1.9761,-1.8772,-1.7863,-1.7124,-1.6197,-1.5724,-1.5724,-1.4651,-1.3872,-1.3295,-1.3686,-1.3499,-1.2818,-1.2619,-1.2619,-1.2313,-1.2624,-1.1448,-1.1643,-4.3479,-4.3479,-4.3479,-4.3479,-4.3424,-4.291,-4.2231,-4.146,-4.0841,-4.0099,-3.946,-3.9338,-3.9342,-3.947,-3.9668,-4.0003,-4.0356,-4.0457,-4.0489,-4.0489,-4.0489,-4.0489,-4.0489,-4.0489,-4.0489,-4.0373,-3.9912,-3.8931,-3.7584,-3.618,-3.5526,-3.5507,-3.5507,-3.5507,-3.5507,-3.5507,-3.5507,-3.5507,-3.5507,-3.5507,-3.5507,-3.5507,-3.5507,-3.5507,-3.5507,-3.5507,-3.5507,-3.5507,-3.5507,-3.5507,-3.5507,-3.5507,-3.5507,-3.5507,-3.5273,-3.4793,-3.4694,-3.4439,-3.3921,-3.3807,-3.3734,-3.3597,-3.3196,-3.2777,-3.2316,-3.1861,-3.1507,-3.1157,-3.0642,-3.0064,-2.954,-2.9225,-2.8685,-2.7976,-2.8771,-2.9193,-2.8454,-2.8774,-2.8447,-2.7391,-2.6045,-2.5075,-2.442,-2.2999,-2.2478,-2.2827,-2.2277,-2.2217,-2.292,-2.3135,-2.2862,-2.2501,-2.1391,-2.0486,-1.9935,-1.8848,-1.8672,-1.7956,-1.7124,-1.6473,-1.5805,-1.5432,-1.4752,-1.3686,-1.2813,-1.2231,-1.1843,-1.175,-1.1458,-1.1258,-1.0658,-1.0253,-1.0262,-1.0066,-0.9964,-4.3479,-4.3479,-4.3479,-4.3479,-4.3479,-4.3406,-4.2983,-4.2158,-4.1372,-4.0561,-3.9761,-3.9093,-3.8929,-3.909,-3.916,-3.9505,-4.0003,-4.0285,-4.0438,-4.0489,-4.0489,-4.0489,-4.0489,-4.0489,-4.0431,-4.0277,-3.8796,-3.7623,-3.6796,-3.5935,-3.5507,-3.5507,-3.5507,-3.5507,-3.5507,-3.5507,-3.5507,-3.5507,-3.5507,-3.5507,-3.5507,-3.5507,-3.5507,-3.5507,-3.5507,-3.5507,-3.5507,-3.5507,-3.5507,-3.5507,-3.5507,-3.5507,-3.5493,-3.5479,-3.5239,-3.4812,-3.4674,-3.4394,-3.3876,-3.378,-3.3578,-3.3273,-3.2777,-3.2298,-3.1933,-3.1507,-3.123,-3.1134,-3.0601,-2.9995,-2.9451,-2.8857,-2.8286,-2.7846,-2.8704,-2.9068,-2.8484,-2.8638,-2.8376,-2.6837,-2.5511,-2.4552,-2.3672,-2.2553,-2.1875,-2.1939,-2.1948,-2.2148,-2.2785,-2.2902,-2.2492,-2.1569,-2.0395,-1.9314,-1.8041,-1.6857,-1.7131,-1.7131,-1.6473,-1.5818,-1.4937,-1.4364,-1.359,-1.2517,-1.0965,-1.0284,-0.9678,-0.9583,-0.9579,-0.928,-0.8685,-0.7987,-0.7789,-0.7592,-0.7496,-4.3479,-4.3479,-4.3479,-4.3479,-4.3479,-4.3479,-4.3039,-4.2216,-4.1437,-4.0683,-3.9863,-3.9056,-3.8732,-3.8855,-3.9008,-3.9212,-3.9457,-3.9738,-4.012,-4.0422,-4.0489,-4.0489,-4.0489,-4.0489,-4.02,-3.9469,-3.793,-3.6988,-3.6603,-3.5892,-3.5507,-3.5507,-3.5507,-3.5507,-3.5507,-3.5507,-3.5507,-3.5507,-3.5507,-3.5507,-3.5507,-3.5507,-3.5507,-3.5507,-3.5507,-3.5507,-3.5507,-3.5507,-3.5507,-3.5507,-3.5507,-3.5507,-3.5479,-3.532,-3.5051,-3.4734,-3.4467,-3.4195,-3.3823,-3.355,-3.3361,-3.3075,-3.2466,-3.1986,-3.1789,-3.1449,-3.119,-3.1055,-3.0309,-2.9585,-2.9316,-2.8448,-2.786,-2.7625,-2.8233,-2.8397,-2.7698,-2.7421,-2.7059,-2.6496,-2.4992,-2.3891,-2.3305,-2.2188,-2.1261,-2.1438,-2.1699,-2.2139,-2.2417,-2.2252,-2.1836,-2.1203,-1.967,-1.8226,-1.7311,-1.648,-1.6292,-1.6278,-1.5717,-1.4949,-1.407,-1.3199,-1.2328,-1.1156,-0.96,-0.8517,-0.7915,-0.7508,-0.7502,-0.6802,-0.5805,-0.5406,-0.5209,-0.5209,-0.5209,-4.3479,-4.3479,-4.3479,-4.3479,-4.3479,-4.3479,-4.3222,-4.2601,-4.1551,-4.08,-4.0198,-3.9184,-3.8707,-3.875,-3.8884,-3.8999,-3.9125,-3.9314,-3.969,-4.0101,-4.0176,-4.023,-4.0279,-4.013,-3.9623,-3.87,-3.7392,-3.6546,-3.6238,-3.5762,-3.5507,-3.5507,-3.5507,-3.5507,-3.5507,-3.5507,-3.5507,-3.5507,-3.5507,-3.5507,-3.5507,-3.5507,-3.5507,-3.5507,-3.5507,-3.5507,-3.5507,-3.5507,-3.5507,-3.5507,-3.5507,-3.5446,-3.5354,-3.519,-3.4944,-3.4572,-3.4311,-3.4093,-3.3815,-3.3419,-3.3124,-3.284,-3.2248,-3.1733,-3.1603,-3.1312,-3.1134,-3.0757,-2.9978,-2.9332,-2.895,-2.8207,-2.761,-2.759,-2.8017,-2.7979,-2.7359,-2.683,-2.6539,-2.6082,-2.4767,-2.3734,-2.3147,-2.1842,-2.083,-2.1172,-2.1611,-2.1781,-2.1826,-2.1595,-2.1114,-2.0305,-1.8864,-1.7684,-1.7044,-1.6292,-1.5635,-1.5337,-1.4949,-1.4076,-1.3199,-1.2134,-1.1263,-0.969,-0.8124,-0.7425,-0.6725,-0.5819,-0.5415,-0.4218,-0.3516,-0.3414,-0.3513,-0.3414,-0.3413,-4.3479,-4.3479,-4.3479,-4.3479,-4.3479,-4.3479,-4.3461,-4.3188,-4.177,-4.1074,-4.073,-3.9386,-3.8707,-3.8707,-3.8732,-3.8855,-3.9036,-3.9063,-3.9249,-3.9481,-3.9576,-3.9694,-3.9834,-3.9432,-3.8757,-3.7892,-3.6988,-3.6257,-3.5661,-3.5565,-3.5507,-3.5507,-3.5507,-3.5507,-3.5507,-3.5507,-3.5507,-3.5507,-3.5507,-3.5507,-3.5507,-3.5507,-3.5507,-3.5507,-3.5507,-3.5507,-3.5507,-3.5507,-3.5507,-3.5507,-3.546,-3.5354,-3.5157,-3.5088,-3.4755,-3.4288,-3.4218,-3.4043,-3.377,-3.3314,-3.2952,-3.2583,-3.2092,-3.1674,-3.1291,-3.1213,-3.0975,-3.0435,-2.9761,-2.918,-2.8606,-2.8008,-2.7604,-2.7587,-2.7845,-2.7861,-2.7629,-2.6892,-2.6508,-2.6013,-2.4767,-2.3441,-2.3294,-2.168,-2.0977,-2.1094,-2.1543,-2.1575,-2.1019,-2.0642,-1.9867,-1.8956,-1.787,-1.7131,-1.6393,-1.5615,-1.4949,-1.4465,-1.3878,-1.2716,-1.194,-1.097,-1.019,-0.8517,-0.7129,-0.6429,-0.5527,-0.462,-0.3717,-0.2914,-0.2413,-0.2013,-0.1812,-0.1711,-0.1307,-4.3479,-4.3479,-4.3479,-4.3479,-4.3479,-4.3479,-4.3479,-4.3314,-4.1789,-4.111,-4.0767,-3.9405,-3.8707,-3.8707,-3.8707,-3.8732,-3.8785,-3.8815,-3.8833,-3.8931,-3.8931,-3.9002,-3.9013,-3.861,-3.7911,-3.7084,-3.6315,-3.5699,-3.5507,-3.5507,-3.5507,-3.5507,-3.5507,-3.5507,-3.5507,-3.5507,-3.5507,-3.5507,-3.5507,-3.5507,-3.5507,-3.5507,-3.5507,-3.5507,-3.5507,-3.5507,-3.5507,-3.5507,-3.5507,-3.5474,-3.5304,-3.519,-3.5053,-3.4696,-3.4383,-3.42,-3.3993,-3.3902,-3.3689,-3.3087,-3.2648,-3.2451,-3.1823,-3.1346,-3.123,-3.119,-3.0878,-3.0335,-2.9777,-2.915,-2.8559,-2.7944,-2.7491,-2.723,-2.7323,-2.7237,-2.6919,-2.6658,-2.6245,-2.5429,-2.4253,-2.3368,-2.2403,-2.1461,-2.0693,-2.0859,-2.1205,-2.1387,-2.0427,-1.9855,-1.9222,-1.8126,-1.7037,-1.6386,-1.5724,-1.4848,-1.4172,-1.368,-1.2614,-1.0872,-1.0288,-0.9604,-0.892,-0.7939,-0.6625,-0.5627,-0.452,-0.3416,-0.2614,-0.1711,0.0,0.0,0.0,0.0,0.0604,-4.3479,-4.3479,-4.3479,-4.3479,-4.3479,-4.3479,-4.3479,-4.3185,-4.1821,-4.1107,-4.0749,-3.9405,-3.8707,-3.8707,-3.8707,-3.8707,-3.8707,-3.8707,-3.8707,-3.8719,-3.8844,-3.8801,-3.8527,-3.8037,-3.7417,-3.6699,-3.5878,-3.5545,-3.5507,-3.5507,-3.5507,-3.5507,-3.5507,-3.5507,-3.5507,-3.5507,-3.5507,-3.5507,-3.5507,-3.5507,-3.5507,-3.5507,-3.5507,-3.5507,-3.5507,-3.5507,-3.5507,-3.5507,-3.5446,-3.532,-3.519,-3.498,-3.4716,-3.4405,-3.4147,-3.4043,-3.3876,-3.3807,-3.3652,-3.3014,-3.255,-3.235,-3.1694,-3.1291,-3.119,-3.119,-3.0918,-2.9995,-2.9601,-2.8996,-2.8222,-2.7545,-2.714,-2.7009,-2.6734,-2.6519,-2.6463,-2.6521,-2.6025,-2.5075,-2.412,-2.3073,-2.2113,-2.1155,-2.0712,-2.0654,-2.0771,-2.0319,-1.9453,-1.8994,-1.8411,-1.7217,-1.6082,-1.5324,-1.4657,-1.3878,-1.2614,-1.2129,-1.1253,-0.9509,-0.8916,-0.8326,-0.7932,-0.7135,-0.6027,-0.482,-0.3516,-0.2314,-0.131,0.0,0.0,0.0,0.0,0.131,0.2013,-4.341,-4.341,-4.3479,-4.3479,-4.3479,-4.3479,-4.3406,-4.3057,-4.1742,-4.1027,-4.0616,-3.9368,-3.8726,-3.8707,-3.8707,-3.8707,-3.8707,-3.8707,-3.8707,-3.8762,-3.882,-3.8693,-3.7981,-3.7737,-3.7097,-3.6415,-3.5767,-3.5565,-3.5507,-3.5507,-3.5507,-3.5507,-3.5507,-3.5507,-3.5507,-3.5507,-3.5507,-3.5507,-3.5507,-3.5507,-3.5507,-3.5507,-3.5507,-3.5507,-3.5507,-3.546,-3.5446,-3.5417,-3.5304,-3.5035,-3.5034,-3.4774,-3.4315,-3.4218,-3.4043,-3.3876,-3.3834,-3.3807,-3.3606,-3.2934,-3.2451,-3.2282,-3.162,-3.123,-3.119,-3.1112,-3.0576,-2.9601,-2.9361,-2.867,-2.763,-2.6826,-2.6594,-2.6567,-2.6201,-2.6026,-2.6316,-2.6396,-2.5955,-2.4933,-2.3963,-2.2925,-2.2038,-2.1221,-2.0566,-2.0077,-2.0088,-1.9574,-1.8841,-1.8269,-1.7387,-1.6379,-1.5229,-1.4166,-1.3397,-1.2721,-1.1356,-1.0284,-0.9505,-0.8428,-0.7925,-0.7431,-0.7033,-0.6229,-0.5022,-0.3819,-0.2615,-0.1411,-0.0404,0.0,0.0,0.0,0.0404,0.1812,0.2815,-4.2864,-4.2902,-4.3321,-4.3479,-4.3479,-4.3479,-4.313,-4.2506,-4.1522,-4.0785,-4.0065,-3.9129,-3.8726,-3.8707,-3.8707,-3.8707,-3.8707,-3.8707,-3.8707,-3.8689,-3.875,-3.809,-3.7405,-3.7293,-3.6725,-3.5815,-3.5532,-3.5493,-3.5474,-3.5446,-3.5474,-3.5474,-3.5493,-3.5507,-3.5507,-3.5507,-3.5507,-3.5507,-3.5507,-3.5507,-3.5507,-3.5507,-3.5493,-3.5474,-3.5474,-3.5369,-3.5223,-3.519,-3.4925,-3.4615,-3.4595,-3.4574,-3.4242,-3.3993,-3.3876,-3.3815,-3.378,-3.3634,-3.3302,-3.2809,-3.235,-3.1951,-3.1545,-3.119,-3.1134,-3.074,-3.0208,-2.9451,-2.8966,-2.8207,-2.7019,-2.6122,-2.5935,-2.5989,-2.5597,-2.5418,-2.6095,-2.5804,-2.5004,-2.4036,-2.2999,-2.1952,-2.1078,-2.0779,-2.0196,-1.9631,-1.9226,-1.8905,-1.8169,-1.7371,-1.6486,-1.5432,-1.407,-1.2904,-1.242,-1.1648,-1.019,-0.911,-0.8226,-0.7537,-0.7033,-0.6126,-0.5625,-0.4822,-0.392,-0.2816,-0.1712,-0.1008,0.0,0.0,0.0,0.0,0.1511,0.2715,0.4014,-4.2302,-4.2342,-4.2865,-4.3124,-4.316,-4.3356,-4.3039,-4.2249,-4.1445,-4.0639,-3.9845,-3.9056,-3.8707,-3.8707,-3.8707,-3.8707,-3.8707,-3.8707,-3.8707,-3.8707,-3.8634,-3.7879,-3.6867,-3.6863,-3.6501,-3.5172,-3.519,-3.5258,-3.519,-3.5239,-3.5304,-3.532,-3.5432,-3.5493,-3.5507,-3.5507,-3.5507,-3.5507,-3.5507,-3.5507,-3.5507,-3.5507,-3.5398,-3.5335,-3.5304,-3.519,-3.4944,-3.4908,-3.4655,-3.4379,-3.4357,-3.4353,-3.4068,-3.3895,-3.3834,-3.3807,-3.3597,-3.3465,-3.3136,-3.2565,-3.2074,-3.1825,-3.1449,-3.1252,-3.1055,-3.0642,-3.0038,-2.9451,-2.8826,-2.7978,-2.6654,-2.5851,-2.5649,-2.5664,-2.5218,-2.5153,-2.5522,-2.53,-2.4636,-2.3599,-2.2691,-2.1659,-2.0924,-2.0391,-1.9766,-1.9179,-1.8029,-1.7636,-1.7098,-1.6274,-1.5457,-1.4358,-1.2807,-1.1838,-1.1453,-1.048,-0.9114,-0.8226,-0.7431,-0.6933,-0.6431,-0.5225,-0.4019,-0.3317,-0.2816,-0.2013,-0.1008,-0.0303,0.0404,0.0,0.0,0.0,0.2614,0.3919,0.5411,-4.1664,-4.1707,-4.2302,-4.2616,-4.2714,-4.2941,-4.2556,-4.191,-4.1159,-4.016,-3.9635,-3.8884,-3.8707,-3.8707,-3.8707,-3.8707,-3.8707,-3.8707,-3.8707,-3.8707,-3.8707,-3.7911,-3.698,-3.6789,-3.6295,-3.4913,-3.502,-3.5,-3.4889,-3.4963,-3.5138,-3.5174,-3.5369,-3.5474,-3.5507,-3.5507,-3.5507,-3.5507,-3.5507,-3.5507,-3.546,-3.5446,-3.5289,-3.5069,-3.5016,-3.4889,-3.4675,-3.4593,-3.4445,-3.4171,-3.4147,-3.4018,-3.3895,-3.3807,-3.3807,-3.3788,-3.3465,-3.3184,-3.2903,-3.2332,-3.1825,-3.1733,-3.1411,-3.123,-3.1055,-3.0518,-2.9892,-2.93,-2.8575,-2.7515,-2.6443,-2.5563,-2.5405,-2.5419,-2.5039,-2.4779,-2.4859,-2.4791,-2.3891,-2.3294,-2.2188,-2.1231,-2.0537,-1.9923,-1.9274,-1.8584,-1.7334,-1.6367,-1.5887,-1.5304,-1.4584,-1.3584,-1.2226,-1.0574,-0.9993,-0.9797,-0.8329,-0.7431,-0.6734,-0.5929,-0.5427,-0.4121,-0.2917,-0.2414,-0.1812,-0.1008,-0.0302,0.0303,0.1008,0.1813,0.2515,0.2916,0.4019,0.5225,0.6807,-4.1041,-4.1087,-4.1707,-4.2244,-4.2469,-4.1626,-4.1025,-4.0528,-3.9857,-3.8989,-3.8404,-3.8551,-3.8707,-3.8707,-3.8707,-3.8707,-3.8707,-3.8707,-3.8707,-3.8707,-3.867,-3.8065,-3.7356,-3.6846,-3.6124,-3.5268,-3.5009,-3.4889,-3.4754,-3.4963,-3.4981,-3.5141,-3.5354,-3.546,-3.546,-3.5507,-3.5507,-3.5507,-3.5507,-3.5507,-3.546,-3.5289,-3.5088,-3.4832,-3.4774,-3.4593,-3.4379,-3.4288,-3.4147,-3.3884,-3.3868,-3.3842,-3.3807,-3.3807,-3.378,-3.368,-3.3361,-3.2983,-3.2583,-3.2144,-3.164,-3.1389,-3.123,-3.119,-3.0918,-3.0267,-2.9569,-2.8919,-2.7868,-2.6534,-2.5673,-2.5007,-2.4741,-2.4646,-2.4378,-2.3998,-2.4402,-2.3734,-2.2702,-2.2253,-2.1451,-2.0702,-2.007,-1.9274,-1.8461,-1.7711,-1.673,-1.5701,-1.499,-1.4469,-1.3874,-1.2893,-1.1745,-0.9993,-0.8627,-0.8428,-0.7836,-0.683,-0.5927,-0.472,-0.3919,-0.2816,-0.1913,-0.1208,-0.0705,-0.0202,0.0504,0.1008,0.1913,0.2816,0.3417,0.4119,0.5518,0.6915,0.8389,-4.0497,-4.0528,-4.1087,-4.1244,-4.1149,-4.0902,-4.0153,-3.9349,-3.9157,-3.8668,-3.8246,-3.8433,-3.8707,-3.8707,-3.8707,-3.8707,-3.8707,-3.8707,-3.8707,-3.8707,-3.867,-3.8267,-3.7518,-3.696,-3.6038,-3.5214,-3.4764,-3.451,-3.4284,-3.4489,-3.4656,-3.4736,-3.5049,-3.5289,-3.532,-3.5432,-3.546,-3.5474,-3.5493,-3.5474,-3.546,-3.5223,-3.4963,-3.4734,-3.4508,-3.4288,-3.4062,-3.4012,-3.3935,-3.3842,-3.3807,-3.3807,-3.3753,-3.3625,-3.3476,-3.3419,-3.3075,-3.2648,-3.2179,-3.1733,-3.1389,-3.1252,-3.119,-3.1015,-3.0601,-2.9935,-2.9164,-2.8321,-2.752,-2.6176,-2.5522,-2.4738,-2.4528,-2.4557,-2.3923,-2.3661,-2.3715,-2.2796,-2.2038,-2.1441,-2.0924,-2.0304,-1.9511,-1.8709,-1.7649,-1.6798,-1.6011,-1.5129,-1.4276,-1.3495,-1.2879,-1.1531,-1.048,-0.9505,-0.8035,-0.7836,-0.7235,-0.6129,-0.5024,-0.3819,-0.2715,-0.1712,-0.0604,0.0402,0.0705,0.1008,0.1511,0.2213,0.3017,0.382,0.472,0.572,0.7214,0.87,0.9976,-3.9986,-3.9901,-4.0371,-4.017,-3.9693,-3.9756,-3.9288,-3.8443,-3.8378,-3.8205,-3.7897,-3.8267,-3.8578,-3.8676,-3.8707,-3.8707,-3.8707,-3.8707,-3.8707,-3.8707,-3.8689,-3.8267,-3.7529,-3.6814,-3.6038,-3.5064,-3.44,-3.3993,-3.3961,-3.4147,-3.4218,-3.4401,-3.4794,-3.5016,-3.507,-3.5258,-3.5369,-3.5436,-3.5493,-3.546,-3.5304,-3.5122,-3.4851,-3.4529,-3.4242,-3.4018,-3.3868,-3.3842,-3.3842,-3.3807,-3.3807,-3.3807,-3.3734,-3.3419,-3.3166,-3.3014,-3.2616,-3.2196,-3.1861,-3.1449,-3.1269,-3.119,-3.119,-3.0878,-3.0309,-2.9629,-2.8764,-2.7745,-2.6707,-2.6054,-2.5398,-2.4567,-2.4421,-2.4456,-2.3773,-2.3086,-2.3145,-2.2489,-2.1451,-2.0924,-2.0547,-1.9913,-1.9116,-1.7819,-1.6683,-1.6291,-1.549,-1.4568,-1.3627,-1.2483,-1.1612,-1.0134,-0.9019,-0.8627,-0.7836,-0.7434,-0.6631,-0.5422,-0.4119,-0.2815,-0.1812,-0.0807,0.0302,0.1208,0.2211,0.2413,0.2916,0.3417,0.4221,0.5222,0.6124,0.7319,0.8609,0.9788,1.1058,-3.9698,-3.9123,-3.9188,-3.9093,-3.8649,-3.7802,-3.748,-3.7624,-3.7079,-3.697,-3.7323,-3.779,-3.8267,-3.8546,-3.8658,-3.8658,-3.8707,-3.8707,-3.8707,-3.8707,-3.867,-3.8267,-3.7489,-3.6681,-3.591,-3.5018,-3.4228,-3.3897,-3.3868,-3.4049,-3.4152,-3.4265,-3.4508,-3.4734,-3.4774,-3.5018,-3.5143,-3.5181,-3.5358,-3.5254,-3.4908,-3.4793,-3.4461,-3.4111,-3.3902,-3.3868,-3.3834,-3.3807,-3.3807,-3.3807,-3.3807,-3.3807,-3.3753,-3.3419,-3.2965,-3.2598,-3.2196,-3.1861,-3.1716,-3.1411,-3.119,-3.119,-3.1151,-3.0878,-3.0081,-2.9196,-2.8319,-2.7645,-2.6428,-2.5563,-2.5119,-2.4092,-2.3974,-2.3732,-2.3246,-2.2924,-2.2893,-2.1973,-2.1011,-2.0138,-1.9668,-1.9274,-1.863,-1.7172,-1.5801,-1.5496,-1.4972,-1.3956,-1.2825,-1.1589,-1.0633,-0.9155,-0.8528,-0.8137,-0.7637,-0.7235,-0.6126,-0.472,-0.3417,0.0,0.0,0.0,0.0705,0.1711,0.2714,0.3915,0.4418,0.502,0.5724,0.6523,0.7419,0.851,0.9702,1.0974,1.2231,-3.8667,-3.8379,-3.8379,-3.8065,-3.7564,-3.7029,-3.6622,-3.649,-3.6446,-3.6539,-3.6803,-3.7285,-3.7773,-3.8183,-3.8249,-3.8415,-3.8627,-3.8707,-3.8707,-3.8689,-3.8615,-3.8248,-3.7477,-3.667,-3.5862,-3.4963,-3.4266,-3.3852,-3.3868,-3.3902,-3.3986,-3.4037,-3.4242,-3.4401,-3.4464,-3.4734,-3.4832,-3.4905,-3.4954,-3.4923,-3.4715,-3.4508,-3.4288,-3.4018,-3.3895,-3.3834,-3.3807,-3.3807,-3.3807,-3.3807,-3.3807,-3.368,-3.3437,-3.3045,-3.2583,-3.2144,-3.1714,-3.147,-3.1393,-3.1308,-3.123,-3.1055,-3.0838,-3.0267,-2.9406,-2.8543,-2.7745,-2.6982,-2.6054,-2.5287,-2.4781,-2.3754,-2.3629,-2.3304,-2.274,-2.2533,-2.2325,-2.1329,-2.0401,-1.9599,-1.8789,-1.831,-1.7738,-1.6519,-1.5296,-1.4776,-1.4038,-1.2937,-1.1613,-1.0192,-0.9275,-0.8407,-0.8137,-0.8038,-0.7534,-0.7033,-0.5722,-0.4318,-0.3016,0.0,0.0,0.0,0.0,0.2213,0.3416,0.4516,0.572,0.6426,0.693,0.7723,0.8612,0.9698,1.0779,1.2226,1.3765,-3.7516,-3.7347,-3.7533,-3.7178,-3.6502,-3.6502,-3.6163,-3.5718,-3.6028,-3.6266,-3.6539,-3.6943,-3.7433,-3.772,-3.7877,-3.815,-3.8483,-3.8627,-3.8707,-3.867,-3.8414,-3.7881,-3.7074,-3.6303,-3.5477,-3.4724,-3.41,-3.3825,-3.3807,-3.3834,-3.386,-3.3807,-3.4012,-3.4074,-3.4171,-3.4401,-3.4578,-3.4737,-3.4756,-3.4678,-3.4532,-3.4334,-3.4195,-3.4043,-3.3928,-3.3807,-3.3807,-3.3807,-3.3807,-3.3807,-3.3807,-3.368,-3.3437,-3.2903,-3.2484,-3.2039,-3.162,-3.1252,-3.1252,-3.119,-3.1095,-3.0781,-3.0251,-2.9451,-2.8779,-2.7944,-2.7306,-2.6669,-2.5892,-2.5119,-2.4337,-2.359,-2.3331,-2.3048,-2.2548,-2.2199,-2.1775,-2.0978,-2.0079,-1.9274,-1.839,-1.7172,-1.6519,-1.5703,-1.4887,-1.4159,-1.3145,-1.1888,-1.0557,-0.9076,-0.8543,-0.8035,-0.8038,-0.7736,-0.6933,-0.6326,-0.502,-0.3817,-0.2514,0.0,0.0,0.0,0.0,0.2814,0.4117,0.542,0.6728,0.7434,0.8038,0.8428,0.911,1.048,1.1843,1.3482,1.519,-3.6434,-3.5825,-3.6569,-3.6434,-3.5723,-3.5707,-3.569,-3.5639,-3.565,-3.5941,-3.6374,-3.6865,-3.7079,-3.7305,-3.7578,-3.7808,-3.7998,-3.8465,-3.8473,-3.8297,-3.7918,-3.7154,-3.6366,-3.5569,-3.4816,-3.4119,-3.3825,-3.3825,-3.3807,-3.3807,-3.3807,-3.3834,-3.3895,-3.3842,-3.391,-3.4141,-3.4357,-3.451,-3.4564,-3.4454,-3.4325,-3.4171,-3.4049,-3.3902,-3.3834,-3.3807,-3.3807,-3.3807,-3.3807,-3.3807,-3.3734,-3.3652,-3.3332,-3.2759,-3.2298,-3.2021,-3.1562,-3.123,-3.119,-3.1151,-3.0878,-3.0251,-2.9451,-2.8732,-2.8367,-2.7894,-2.7306,-2.651,-2.5728,-2.5007,-2.4279,-2.3633,-2.3219,-2.2756,-2.2297,-2.193,-2.1447,-2.0757,-1.9913,-1.9036,-1.79,-1.6601,-1.5711,-1.4977,-1.4287,-1.3555,-1.2129,-1.0858,-0.9828,-0.8564,-0.8336,-0.8031,-0.8038,-0.7434,-0.6229,-0.5222,-0.4218,-0.2916,-0.1611,-0.0705,0.0,0.1108,0.2012,0.3618,0.502,0.6429,0.7537,0.7836,0.8137,0.8627,0.9608,1.1263,1.3278,1.519,1.6879,-3.5893,-3.5656,-3.5943,-3.5893,-3.5639,-3.5639,-3.5639,-3.5639,-3.5622,-3.5711,-3.5958,-3.6122,-3.6399,-3.6724,-3.6865,-3.7173,-3.747,-3.7632,-3.7659,-3.7464,-3.7021,-3.6413,-3.5663,-3.51,-3.4587,-3.3972,-3.3807,-3.3807,-3.3807,-3.3807,-3.3807,-3.3807,-3.3807,-3.3807,-3.3868,-3.3902,-3.4037,-3.413,-3.4161,-3.4086,-3.4023,-3.3961,-3.3902,-3.3834,-3.3807,-3.3807,-3.3807,-3.3807,-3.3807,-3.3734,-3.355,-3.3361,-3.3057,-3.2433,-3.2074,-3.1842,-3.1406,-3.123,-3.1151,-3.1112,-3.074,-2.9805,-2.9012,-2.8334,-2.8042,-2.771,-2.6916,-2.6162,-2.5577,-2.4894,-2.3708,-2.3236,-2.2947,-2.257,-2.211,-2.1643,-2.1107,-2.0362,-1.9423,-1.839,-1.709,-1.5786,-1.5061,-1.4412,-1.3717,-1.2954,-1.1364,-0.9943,-0.895,-0.8236,-0.8105,-0.7822,-0.7736,-0.7132,-0.5927,-0.472,-0.3516,-0.2113,-0.0806,0.0,0.0706,0.1309,0.2413,0.4119,0.5625,0.6731,0.7437,0.7839,0.8333,0.9118,1.0485,1.2334,1.4435,1.6706,1.8195,-3.5639,-3.5639,-3.5639,-3.5639,-3.5639,-3.5639,-3.5639,-3.5639,-3.5639,-3.5639,-3.5639,-3.5622,-3.5766,-3.6097,-3.6374,-3.658,-3.6855,-3.6889,-3.6702,-3.6466,-3.6092,-3.5579,-3.5027,-3.4586,-3.4266,-3.388,-3.3807,-3.3807,-3.3807,-3.3807,-3.3807,-3.3807,-3.3807,-3.3807,-3.3807,-3.3807,-3.3807,-3.3807,-3.3807,-3.3807,-3.3834,-3.3834,-3.3815,-3.3807,-3.3807,-3.3807,-3.3807,-3.3807,-3.3707,-3.355,-3.3332,-3.2983,-3.255,-3.2074,-3.1696,-3.1449,-3.1252,-3.119,-3.1151,-3.0716,-3.0208,-2.9225,-2.8543,-2.8042,-2.7725,-2.7408,-2.6602,-2.5673,-2.5245,-2.4567,-2.3185,-2.286,-2.2543,-2.2116,-2.16,-2.1132,-2.0591,-1.9923,-1.8789,-1.7658,-1.6437,-1.5379,-1.421,-1.3464,-1.2425,-1.1774,-1.07,-0.9354,-0.8389,-0.7928,-0.7973,-0.7677,-0.7434,-0.6628,-0.5525,-0.4117,-0.2614,-0.1511,-0.0202,0.0504,0.1209,0.2012,0.3116,0.4922,0.6229,0.6933,0.7733,0.8428,0.9118,0.9706,1.1458,1.3397,1.5576,1.7747,1.8932,-3.5577,-3.5639,-3.5577,-3.5577,-3.5622,-3.5639,-3.5639,-3.5639,-3.5639,-3.5639,-3.5639,-3.5639,-3.5622,-3.5766,-3.6053,-3.6143,-3.6093,-3.5983,-3.5791,-3.5527,-3.4918,-3.4479,-3.4244,-3.4004,-3.3863,-3.3817,-3.3734,-3.3707,-3.3753,-3.3707,-3.3707,-3.378,-3.378,-3.3807,-3.3807,-3.3807,-3.3807,-3.3807,-3.3807,-3.3807,-3.3807,-3.3807,-3.3807,-3.3807,-3.3807,-3.3807,-3.3807,-3.3707,-3.3578,-3.3332,-3.3057,-3.2745,-3.2417,-3.1968,-3.1696,-3.166,-3.1351,-3.1173,-3.1095,-3.0081,-2.9271,-2.8685,-2.8174,-2.771,-2.7458,-2.6982,-2.6336,-2.5522,-2.4851,-2.4105,-2.3173,-2.2457,-2.2122,-2.1778,-2.1268,-2.0762,-2.0299,-1.9283,-1.8069,-1.718,-1.6273,-1.5206,-1.3691,-1.2425,-1.1305,-1.0415,-0.9678,-0.8774,-0.7847,-0.759,-0.7721,-0.7267,-0.6833,-0.5625,-0.452,-0.3116,-0.1812,-0.0706,0.0404,0.1209,0.2213,0.3215,0.452,0.5927,0.683,0.7633,0.8425,0.9118,1.019,1.1356,1.2716,1.4543,1.6814,1.8503,1.9588,-3.4544,-3.4941,-3.4941,-3.5207,-3.5577,-3.5639,-3.5639,-3.5639,-3.5639,-3.5639,-3.5639,-3.5639,-3.5639,-3.5593,-3.5239,-3.5173,-3.5078,-3.4445,-3.4214,-3.3997,-3.3635,-3.3351,-3.3241,-3.3352,-3.339,-3.3408,-3.3408,-3.339,-3.339,-3.339,-3.339,-3.3419,-3.3652,-3.3807,-3.3807,-3.3807,-3.3807,-3.3807,-3.3807,-3.3807,-3.3807,-3.378,-3.378,-3.3753,-3.3753,-3.3734,-3.3707,-3.3504,-3.3284,-3.3027,-3.2727,-3.2264,-3.2039,-3.164,-3.1449,-3.1411,-3.1173,-3.0781,-3.0166,-2.9241,-2.8779,-2.8319,-2.7944,-2.761,-2.7509,-2.6878,-2.6176,-2.5398,-2.4624,-2.3884,-2.3185,-2.2384,-2.1958,-2.1767,-2.1334,-2.0834,-2.0195,-1.8682,-1.7415,-1.6772,-1.5959,-1.4448,-1.2936,-1.1906,-1.0783,-0.9575,-0.8802,-0.8386,-0.765,-0.7435,-0.7442,-0.6741,-0.6029,-0.4722,-0.3417,-0.2213,-0.1309,-0.0404,0.0907,0.2113,0.3115,0.4218,0.5625,0.6833,0.7534,0.8233,0.9406,1.0578,1.1935,1.3295,1.4358,1.5494,1.7382,1.8772,1.9761,-3.3836,-3.4219,-3.4235,-3.4496,-3.4958,-3.5424,-3.5639,-3.5639,-3.5639,-3.5639,-3.5588,-3.5368,-3.5199,-3.4996,-3.4506,-3.4117,-3.4032,-3.338,-3.2981,-3.2758,-3.2637,-3.251,-3.2491,-3.2713,-3.2921,-3.2952,-3.2952,-3.2934,-3.2934,-3.2934,-3.3075,-3.3273,-3.3465,-3.3652,-3.3734,-3.3807,-3.3726,-3.3652,-3.3522,-3.3465,-3.3361,-3.3284,-3.3332,-3.3302,-3.3284,-3.3284,-3.3255,-3.3087,-3.2872,-3.2598,-3.2213,-3.1716,-3.1565,-3.1389,-3.119,-3.119,-3.0878,-3.0293,-2.9332,-2.8873,-2.8463,-2.814,-2.7795,-2.761,-2.7342,-2.6602,-2.6014,-2.5287,-2.4452,-2.3767,-2.3065,-2.2273,-2.159,-2.1325,-2.0942,-2.0424,-2.0101,-1.8585,-1.7334,-1.669,-1.5462,-1.3866,-1.2419,-1.1386,-1.0351,-0.9144,-0.7937,-0.7706,-0.7529,-0.7312,-0.7016,-0.6216,-0.532,-0.4019,-0.2816,-0.1611,-0.0807,-0.0101,0.1209,0.2613,0.3717,0.472,0.6329,0.7637,0.8035,0.8821,1.0578,1.194,1.3199,1.4453,1.5609,1.6835,1.8048,1.9222,2.0305,-3.3531,-3.3582,-3.3598,-3.3566,-3.3788,-3.4712,-3.5318,-3.5509,-3.5526,-3.5493,-3.5329,-3.4648,-3.4489,-3.432,-3.3694,-3.3389,-3.322,-3.2577,-3.2313,-3.2145,-3.1994,-3.1854,-3.1967,-3.2248,-3.2451,-3.2484,-3.2466,-3.2466,-3.2466,-3.2484,-3.2713,-3.3014,-3.3105,-3.3284,-3.3476,-3.3522,-3.3437,-3.3332,-3.3184,-3.3045,-3.284,-3.2681,-3.2745,-3.2745,-3.2745,-3.2745,-3.2681,-3.255,-3.2264,-3.2022,-3.1789,-3.1545,-3.1368,-3.1207,-3.1151,-3.0958,-3.0477,-2.954,-2.8826,-2.8511,-2.8189,-2.781,-2.7545,-2.7509,-2.7137,-2.6322,-2.5618,-2.4824,-2.3975,-2.3458,-2.2823,-2.1879,-2.0928,-2.0582,-2.0216,-1.995,-1.9947,-1.8868,-1.7577,-1.6445,-1.5144,-1.3633,-1.2163,-1.1042,-1.0009,-0.8619,-0.769,-0.7548,-0.7359,-0.7001,-0.6533,-0.5525,-0.4501,-0.3316,0.0,0.0,-0.0101,0.0605,0.1711,0.3015,0.4117,0.5322,0.6731,0.7736,0.8134,0.9213,1.1068,1.2716,1.4268,1.5425,1.6379,1.7576,1.8688,2.0034,2.1203,-3.2422,-3.2895,-3.2879,-3.2914,-3.2848,-3.2804,-3.3294,-3.416,-3.4571,-3.4399,-3.3395,-3.3638,-3.3693,-3.366,-3.2933,-3.2679,-3.2341,-3.1935,-3.1613,-3.1477,-3.1487,-3.1423,-3.1545,-3.1806,-3.1968,-3.2004,-3.1986,-3.1986,-3.2004,-3.2021,-3.2265,-3.2634,-3.2681,-3.2809,-3.2872,-3.2872,-3.2965,-3.3014,-3.2827,-3.2583,-3.2451,-3.2384,-3.2384,-3.2384,-3.2384,-3.2384,-3.235,-3.2144,-3.1897,-3.1825,-3.1507,-3.1291,-3.123,-3.0797,-3.0477,-2.9892,-2.9361,-2.8764,-2.8511,-2.8091,-2.781,-2.7509,-2.7188,-2.6878,-2.6549,-2.5946,-2.5175,-2.4439,-2.3374,-2.2677,-2.2051,-2.1174,-2.061,-2.027,-1.9848,-1.9574,-1.9369,-1.8523,-1.7228,-1.5869,-1.4573,-1.3197,-1.1729,-1.0783,-0.9749,-0.8273,-0.7443,-0.7272,-0.7109,-0.6755,-0.6034,-0.492,-0.3699,-0.2513,0.0,0.0,0.0,0.131,0.2413,0.3616,0.5022,0.6229,0.7235,0.8131,0.9015,1.0092,1.156,1.3204,1.5045,1.5805,1.6662,1.7948,1.9222,2.0486,2.1658,-3.1332,-3.1717,-3.1527,-3.157,-3.1697,-3.1385,-3.1566,-3.219,-3.3208,-3.3181,-3.2602,-3.283,-3.2967,-3.2865,-3.2222,-3.1833,-3.1799,-3.1512,-3.1258,-3.1258,-3.119,-3.123,-3.1312,-3.1432,-3.1545,-3.1565,-3.1565,-3.1565,-3.1565,-3.162,-3.1841,-3.2213,-3.2248,-3.235,-3.2433,-3.24,-3.2366,-3.2433,-3.2384,-3.2196,-3.2092,-3.2004,-3.1986,-3.2004,-3.2021,-3.2021,-3.1986,-3.1677,-3.1603,-3.1565,-3.1252,-3.119,-3.1095,-3.0658,-2.9805,-2.9271,-2.8826,-2.8415,-2.8091,-2.786,-2.766,-2.7408,-2.6878,-2.6443,-2.5892,-2.5342,-2.4851,-2.4221,-2.2967,-2.1815,-2.1164,-2.0604,-2.0363,-2.0216,-1.9653,-1.9199,-1.8511,-1.786,-1.6651,-1.5213,-1.3873,-1.2504,-1.1386,-1.0524,-0.9488,-0.8009,-0.7054,-0.6824,-0.6494,-0.6065,-0.5339,-0.4401,-0.3083,0.0,0.0,0.0,0.0,0.1812,0.2914,0.4218,0.5827,0.6833,0.7637,0.8817,1.0092,1.1068,1.1945,1.398,1.5724,1.6292,1.703,1.8403,1.9497,2.0486,2.1667,-3.0432,-3.0443,-2.9759,-2.9917,-3.0381,-3.0309,-3.0002,-2.9697,-3.1342,-3.2118,-3.2015,-3.2101,-3.2066,-3.189,-3.1419,-3.1246,-3.1263,-3.1089,-3.1055,-3.1151,-3.119,-3.119,-3.119,-3.123,-3.1329,-3.1252,-3.1213,-3.1312,-3.1252,-3.1291,-3.1487,-3.1752,-3.177,-3.1914,-3.2092,-3.1897,-3.1842,-3.1842,-3.1806,-3.1677,-3.1428,-3.1252,-3.119,-3.1252,-3.1291,-3.1252,-3.1252,-3.123,-3.119,-3.119,-3.1112,-3.1055,-3.0576,-3.0309,-2.9406,-2.881,-2.8367,-2.814,-2.7845,-2.766,-2.7509,-2.7255,-2.6811,-2.6054,-2.5342,-2.4894,-2.4465,-2.3741,-2.2482,-2.1616,-2.0974,-1.9911,-1.9385,-1.9354,-1.9102,-1.8508,-1.789,-1.6959,-1.5779,-1.4475,-1.3444,-1.2077,-1.0961,-1.0096,-0.8969,-0.7665,-0.6966,-0.6707,-0.588,-0.5458,-0.445,-0.3591,-0.2282,-0.1006,0.0,0.0,0.0,0.2113,0.3416,0.482,0.6531,0.7335,0.7939,0.9019,1.0092,1.1165,1.2334,1.4274,1.5724,1.6197,1.7117,1.8764,1.9852,2.0666,2.1667,-2.9804,-2.9729,-2.9101,-2.8937,-2.8988,-2.8556,-2.8268,-2.8132,-2.9024,-2.9543,-2.9656,-3.0382,-3.0848,-3.0784,-3.0667,-3.0658,-3.0975,-3.0658,-3.0838,-3.0958,-3.1055,-3.0918,-3.1151,-3.1072,-3.1112,-3.119,-3.119,-3.119,-3.119,-3.1213,-3.1213,-3.1351,-3.1389,-3.1524,-3.162,-3.1411,-3.1411,-3.1411,-3.1389,-3.1389,-3.1213,-3.119,-3.119,-3.119,-3.119,-3.119,-3.119,-3.119,-3.119,-3.119,-3.0699,-3.0081,-2.9196,-2.9058,-2.8606,-2.7993,-2.7894,-2.776,-2.771,-2.756,-2.7357,-2.6759,-2.6108,-2.5329,-2.4781,-2.4465,-2.393,-2.3027,-2.2224,-2.1467,-2.0537,-1.9351,-1.8466,-1.8545,-1.8499,-1.7845,-1.7225,-1.6002,-1.488,-1.388,-1.2936,-1.1815,-1.0611,-0.9492,-0.8452,-0.7753,-0.7316,-0.6707,-0.5397,-0.4574,-0.3368,-0.2401,-0.1289,-0.0201,0.0202,0.0807,0.1712,0.3016,0.442,0.5824,0.7235,0.7637,0.8038,0.8821,0.9797,1.1068,1.2528,1.4274,1.5432,1.619,1.721,1.8856,1.9943,2.0755,2.1756,-2.9146,-2.9056,-2.8427,-2.8143,-2.8068,-2.7724,-2.756,-2.7655,-2.7986,-2.8106,-2.825,-2.9275,-2.9891,-2.9913,-2.9892,-3.0038,-3.0351,-3.0081,-3.0081,-3.0293,-3.0477,-3.0335,-3.0477,-3.0716,-3.0757,-3.0797,-3.1095,-3.119,-3.119,-3.119,-3.119,-3.119,-3.119,-3.119,-3.119,-3.119,-3.119,-3.119,-3.119,-3.119,-3.119,-3.119,-3.119,-3.119,-3.119,-3.119,-3.119,-3.119,-3.119,-3.1049,-3.0626,-2.9705,-2.8997,-2.8654,-2.8238,-2.781,-2.761,-2.756,-2.756,-2.7458,-2.7188,-2.6496,-2.5783,-2.5175,-2.4323,-2.393,-2.3027,-2.2175,-2.153,-2.0771,-1.9944,-1.8818,-1.8377,-1.8241,-1.7989,-1.7529,-1.6531,-1.527,-1.4132,-1.3105,-1.2072,-1.0956,-0.9749,-0.8619,-0.7665,-0.7312,-0.6959,-0.5977,-0.4848,-0.3805,-0.2502,0.0,0.0,0.0,0.0101,0.1109,0.2314,0.3718,0.5222,0.6329,0.7437,0.7736,0.8233,0.8722,0.9702,1.1263,1.2818,1.437,1.59,1.685,1.7855,1.9047,2.0034,2.1025,2.212,-2.8457,-2.8382,-2.7844,-2.7575,-2.7575,-2.756,-2.756,-2.7625,-2.7625,-2.7625,-2.772,-2.8702,-2.9104,-2.9294,-2.9271,-2.9345,-2.9345,-2.9361,-2.9361,-2.9496,-2.954,-2.9717,-2.9848,-2.9935,-3.0208,-3.0477,-3.0797,-3.1055,-3.119,-3.119,-3.119,-3.119,-3.119,-3.119,-3.119,-3.119,-3.119,-3.119,-3.119,-3.1095,-3.1134,-3.1173,-3.119,-3.119,-3.119,-3.119,-3.119,-3.1095,-3.1095,-3.0733,-3.029,-2.9319,-2.8669,-2.8222,-2.8042,-2.771,-2.756,-2.756,-2.756,-2.7408,-2.693,-2.6336,-2.5673,-2.4881,-2.3975,-2.3088,-2.2249,-2.1428,-2.0782,-2.0139,-1.9299,-1.8664,-1.8289,-1.7839,-1.7488,-1.6927,-1.5683,-1.4629,-1.362,-1.2504,-1.1386,-1.0265,-0.9056,-0.7837,-0.7224,-0.6871,-0.6065,-0.4907,-0.3851,-0.2988,-0.1933,0.0,0.0,0.0,0.0,0.1511,0.3016,0.4422,0.5927,0.683,0.7537,0.7839,0.8137,0.8432,0.9608,1.1361,1.2818,1.4178,1.5697,1.7318,1.8411,1.9405,2.0683,2.1667,2.2668,-2.7769,-2.7754,-2.7655,-2.756,-2.756,-2.756,-2.756,-2.756,-2.756,-2.756,-2.7655,-2.7786,-2.8168,-2.8654,-2.8685,-2.8779,-2.9042,-2.8873,-2.9104,-2.9361,-2.9134,-2.9271,-2.9361,-2.9406,-2.9848,-3.0166,-3.0435,-3.0699,-3.0781,-3.0958,-3.1151,-3.1055,-3.1095,-3.1095,-3.1151,-3.1112,-3.1015,-3.0958,-3.0918,-3.0838,-3.0699,-3.0781,-3.1151,-3.119,-3.119,-3.119,-3.1095,-3.0716,-3.0559,-3.0166,-2.9512,-2.8654,-2.814,-2.7894,-2.776,-2.771,-2.756,-2.7509,-2.7408,-2.7086,-2.6549,-2.5673,-2.4951,-2.4266,-2.3386,-2.2482,-2.1616,-2.0782,-2.0139,-1.9617,-1.8921,-1.8395,-1.7969,-1.7474,-1.7013,-1.5952,-1.471,-1.4266,-1.3555,-1.2425,-1.1214,-1.0096,-0.8798,-0.7841,-0.7139,-0.6605,-0.58,-0.4641,-0.3393,-0.235,-0.1281,0.0,0.0,0.0,0.14,0.2511,0.3917,0.5322,0.6431,0.7235,0.7736,0.7939,0.8137,0.8726,0.9998,1.1653,1.3011,1.4274,1.5792,1.7404,1.8588,1.977,2.1042,2.2129,2.3028]},{"header":{"parameterUnit":"m.s-1","parameterCategory":1,"la1":31.0,"la2":29.5877,"lo1":-88.7671,"lo2":-86.6584,"dy":0.0162,"dx":0.0185,"nx":115,"ny":88,"refTime":"2023-05-30T18:00:00:Z","depth":0,"parameterNumber":3,"parameterNumberName":"V-component_of_WINDS"},"data":[0.0,0.0,0.0,0.0,0.0,0.0,0.0,0.0,0.0,0.0,0.0,0.0,0.0,0.0,0.0,0.0,0.0,0.0,0.0,0.0,0.0,0.0,0.0,0.0,0.0,0.0,0.0,0.0,0.0,0.0,0.0,0.0,0.0,0.0,0.0,0.0,0.0,0.0,0.0,0.0,0.0,0.0,0.0,0.0,0.0,0.0,0.0,0.0,0.0,0.0,0.0,0.0,0.0,0.0,0.0,0.0,0.0,0.0,0.0,0.0,0.0,0.0,0.0,0.0,0.0,0.0,0.0,0.0,0.0,0.0,0.0,0.0,0.0,0.0,0.0,0.0,0.0,0.0,0.0,0.0,0.0,0.0,0.0,0.0,0.0,0.0,0.0,0.0,0.0,0.0,0.0,0.0,0.0,0.0,0.0,0.0,0.0,0.0,0.0,0.0,0.0,0.0,0.0,0.0,0.0,0.0,0.0,0.0,0.0,0.0,0.0,0.0,0.0,0.0,0.0,0.0,0.0,0.0,0.0,0.0,0.0,0.0,0.0,0.0,0.0,0.0,0.0,0.0,0.0,0.0,0.0,0.0,0.0,0.0,0.0,0.0,0.0,0.0,0.0,0.0,0.0,0.0,0.0,0.0,0.0,0.0,0.0,0.0,0.0,0.0,0.0,0.0,0.0,0.0,0.0,0.0,0.0,0.0,0.0,0.0,0.0,0.0,0.0,0.0,0.0,0.0,0.0,0.0,0.0,0.0,0.0,0.0,0.0,0.0,0.0,0.0,0.0,0.0,0.0,0.0,0.0,0.0,0.0,0.0,0.0,0.0,0.0,0.0,0.0,0.0,0.0,0.0,0.0,0.0,0.0,0.0,0.0,0.0,0.0,0.0,0.0,0.0,0.0,0.0,0.0,0.0,0.0,0.0,0.0,0.0,0.0,0.0,0.0,0.0,0.0,0.0,0.0,0.0,0.0,0.0,0.0,0.0,0.0,0.0,0.0,0.0,0.0,0.0,0.0,0.0,0.0,0.0,0.0,0.0,0.0,0.0,0.0,0.0,0.0,0.0,0.0,0.0,0.0,0.0,0.0,0.0,0.0,0.0,0.0,0.0,0.0,0.0,0.0,0.0,0.0,0.0,0.0,0.0,0.0,0.0,0.0,0.0,0.0,0.0,0.0,0.0,0.0,0.0,0.0,0.0,0.0,0.0,0.0,0.0,0.0,0.0,0.0,0.0,0.0,0.0,0.0,0.0,0.0,0.0,0.0,0.0,0.0,0.0,0.0,0.0,0.0,0.0,0.0,0.0,0.0,0.0,0.0,0.0,0.0,0.0,0.0,0.0,0.0,0.0,0.0,0.0,0.0,0.0,0.0,0.0,0.0,0.0,0.0,0.0,0.0,0.0,0.0,0.0,0.0,0.0,0.0,0.0,0.0,0.0,0.0,0.0,0.0,0.0,0.0,0.0,0.0,0.0,0.0,0.0,0.0,0.0,0.0,0.0,0.0,0.0,0.0,0.0,0.0,0.0,0.0,0.0,0.0,0.0,0.0,0.0,0.0,0.0,0.0,0.0,0.0,0.0,0.0,0.0,0.0,0.0,0.0,0.0,0.0,0.0,0.0,0.0,0.0,0.0,0.0,0.0,0.0,0.0,0.0,0.0,0.0,0.0,0.0,0.0,0.0,0.0,0.0,0.0,0.0,0.0,0.0,0.0,0.0,0.0,0.0,0.0,0.0,0.0,0.0,0.0,0.0,0.0,0.0,0.0,0.0,0.0,0.0,0.0,0.0,0.0,0.0,0.0,0.0,0.0,0.0,0.0,0.0,0.0,0.0,0.0,0.0,0.0,0.0,0.0,0.0,0.0,0.0,0.0,0.0,0.0,0.0,0.0,0.0,0.0,0.0,0.0,0.0,0.0,0.0,0.0,0.0,0.0,0.0,0.0,0.0,0.0,0.0,0.0,0.0,0.0,0.0,0.0,0.0,0.0,0.0,0.0,0.0,0.0,0.0,0.0,0.0,0.0,0.0,0.0,0.0,0.0,0.0,0.0,0.0,0.0,0.0,0.0,0.0,0.0,0.0,0.0,0.0,0.0,0.0,0.0,0.0,0.0,0.0,0.0,0.0,0.0,0.0,0.0,0.0,0.0,0.0,0.0,0.0,0.0,0.0,0.0,0.0,0.0,0.0,0.0,0.0,0.0,0.0,0.0,0.0,0.0,0.0,0.0,0.0,0.0,0.0,0.0,0.0,0.0,0.0,0.0,0.0,0.0,0.0,0.0,0.0,0.0,0.0,0.0,0.0,0.0,0.0,0.0,0.0,0.0,0.0,0.0,0.0,0.0,0.0,0.0,0.0,0.0,0.0,0.0,0.0,0.0,0.0,0.0,0.0,0.0,0.0,0.0,0.0,0.0,0.0,0.0,0.0,0.0,0.0,0.0,0.0,0.0,0.0,0.0,0.0,0.0,0.0,0.0,0.0,0.0,0.0,0.0,0.0,0.0,0.0,0.0,0.0,0.0,0.0,0.0,0.0,0.0,0.0,0.0,0.0,0.0,0.0,0.0,0.0,0.0,0.0,0.0,0.0,0.0,0.0,0.0,0.0,0.0,0.0,0.0,0.0,0.0,0.0,0.0,0.0,0.0,0.0,0.0,0.0,0.0,0.0,0.0,0.0,0.0,0.0,0.0,0.0,0.0,0.0,0.0,0.0,0.0,0.0,0.0,0.0,0.0,0.0,0.0,0.0,0.0,0.0,0.0,0.0,0.0,0.0,0.0,0.0,0.0,0.0,0.0,0.0,0.0,0.0,0.0,0.0,0.0,0.0,0.0,0.0,0.0,0.0,0.0,0.0,0.0,0.0,0.0,0.0,0.0,0.0,0.0,0.0,0.0,0.0,0.0,0.0,0.0,0.0,0.0,0.0,0.0,0.0,0.0,0.0,0.0,0.0,0.0,0.0,0.0,0.0,0.0,0.0,0.0,0.0,0.0,0.0,0.0,0.0,0.0,0.0,0.0,0.0,0.0,0.0,0.0,0.0,0.0,0.0,0.0,0.0,0.0,0.0,0.0,0.0,0.0,0.0,0.0,0.0,0.0,0.0,0.0,0.0,0.0,0.0,0.0,0.0,0.0,0.0,0.0,0.0,0.0,0.0,0.0,0.0,0.0,0.0,0.0,0.0,0.0,0.0,0.0,0.0,0.0,0.0,0.0,0.0,0.0,0.0,0.0,0.0,0.0,0.0,0.0,0.0,0.0,0.0,0.0,0.0,0.0,0.0,0.0,0.0,0.0,0.0,0.0,0.0,0.0,0.0,0.0,0.0,0.0,0.0,0.0,0.0,0.0,0.0,0.0,0.0,0.0,0.0,0.0,0.0,0.0,0.0,0.0,0.0,0.0,0.0,0.0,0.0,0.0,0.0,0.0,0.0,0.0,0.0,0.0,0.0,0.0,0.0,0.0,0.0,0.0,0.0,0.0,0.0,0.0,0.0,0.0,0.0,0.0,0.0,0.0,0.0,0.0,0.0,0.0,0.0,0.0,0.0,0.0,0.0,0.0,0.0,0.0,0.0,0.0,0.0,0.0,0.0,0.0,0.0,0.0,0.0,0.0,0.0,0.0,0.0,0.0,0.0,0.0,0.0,0.0,0.0,0.0,0.0,0.0,0.0,0.0,0.0,0.0,0.0,0.0,0.0,0.0,0.0,0.0,0.0,0.0,0.0,0.0,0.0,0.0,0.0,0.0,0.0,0.0,0.0,0.0,0.0,0.0,0.0,0.0,0.0,0.0,0.0,0.0,0.0,0.0,0.0,0.0,0.0,0.0,0.0,0.0,0.0,0.0,0.0,0.0,0.0,0.0,0.0,0.0,0.0,0.0,0.0,0.0,0.0,0.0,0.0,0.0,0.0,0.0,0.0,0.0,0.0,0.0,0.0,0.0,0.0,0.0,0.0,0.0,0.0,0.0,0.0,0.0,0.0,0.0,0.0,0.0,0.0,0.0,0.0,0.0,0.0,0.0,0.0,0.0,0.0,0.0,0.0,0.0,0.0,0.0,0.0,0.0,0.0,0.0,0.0,0.0,0.0,0.0,0.0,0.0,0.0,0.0,0.0,0.0,0.0,0.0,0.0,0.0,0.0,0.0,0.0,0.0,0.0,0.0,0.0,0.0,0.0,0.0,0.0,0.0,0.0,0.0,0.0,0.0,0.0,0.0,0.0,0.0,0.0,0.0,0.0,0.0,0.0,0.0,0.0,0.0,0.0,0.0,0.0,0.0,0.0,0.0,2.156,0.0,0.0,0.0,0.0,0.0,0.0,0.0,0.0,0.0,0.0,0.0,0.0,0.0,0.0,0.0,0.0,0.0,0.0,0.0,0.0,0.0,0.0,0.0,0.0,0.0,0.0,0.0,0.0,0.0,0.0,0.0,0.0,0.0,0.0,0.0,0.0,0.0,0.0,0.0,0.0,0.0,0.0,0.0,0.0,0.0,0.0,0.0,0.0,0.0,0.0,0.0,0.0,0.0,0.0,0.0,0.0,0.0,0.0,0.0,0.0,0.0,0.0,0.0,0.0,0.0,0.0,0.0,0.0,0.0,0.0,0.0,0.0,0.0,0.0,0.0,0.0,0.0,0.0,0.0,0.0,0.0,0.0,0.0,0.0,0.0,0.0,0.0,0.0,0.0,0.0,0.0,0.0,0.0,0.0,0.0,0.0,0.0,0.0,0.0,0.0,0.0,0.0,0.0,0.0,0.0,0.0,0.0,0.0,0.0,0.0,2.1745,2.1231,2.0987,2.0879,2.0869,0.0,0.0,0.0,0.0,0.0,0.0,0.0,0.0,0.0,0.0,0.0,0.0,0.0,0.0,0.0,0.0,0.0,0.0,0.0,0.0,0.0,0.0,0.0,0.0,0.0,0.0,0.0,0.0,0.0,0.0,0.0,0.0,0.0,0.0,0.0,0.0,0.0,0.0,0.0,0.0,0.0,0.0,0.0,0.0,0.0,0.0,0.0,0.0,0.0,0.0,0.0,0.0,0.0,0.0,0.0,0.0,0.0,0.0,0.0,0.0,0.0,0.0,0.0,0.0,0.0,0.0,0.0,0.0,0.0,0.0,0.0,0.0,0.0,0.0,0.0,0.0,0.0,0.0,0.0,0.0,0.0,0.0,0.0,0.0,0.0,0.0,0.0,0.0,0.0,0.0,0.0,0.0,0.0,0.0,0.0,0.0,0.0,0.0,0.0,0.0,0.0,0.0,0.0,0.0,0.0,0.0,0.0,0.0,0.0,0.0,0.0,0.0,1.9835,2.0001,2.0245,0.0,0.0,0.0,0.0,0.0,0.0,0.0,0.0,0.0,0.0,0.0,0.0,0.0,0.0,0.0,0.0,0.0,0.0,0.0,0.0,0.0,0.0,0.0,0.0,0.0,0.0,0.0,0.0,0.0,0.0,0.0,0.0,0.0,0.0,0.0,0.0,0.0,0.0,0.0,0.0,0.0,0.0,0.0,0.0,0.0,0.0,0.0,0.0,0.0,0.0,0.0,0.0,0.0,0.0,0.0,0.0,0.0,0.0,0.0,0.0,0.0,0.0,0.0,0.0,0.0,0.0,0.0,0.0,0.0,0.0,0.0,0.0,0.0,0.0,0.0,0.0,0.0,0.0,0.0,0.0,0.0,0.0,0.0,0.0,0.0,0.0,0.0,0.0,0.0,0.0,0.0,0.0,0.0,0.0,0.0,0.0,0.0,0.0,0.0,0.0,0.0,0.0,0.0,0.0,0.0,0.0,0.0,0.0,0.0,0.0,1.8709,1.7658,1.7666,0.0,1.9116,0.0,0.0,0.0,0.0,0.0,0.0,0.0,0.0,0.0,0.0,0.0,0.0,0.0,0.0,0.0,0.0,0.0,0.0,0.0,0.0,0.0,0.0,0.0,0.0,0.0,0.0,0.0,0.0,0.0,0.0,0.0,0.0,0.0,0.0,0.0,0.0,0.0,0.0,0.0,0.0,0.0,0.0,0.0,0.0,0.0,0.0,0.0,0.0,0.0,0.0,0.0,0.0,0.0,0.0,0.0,0.0,0.0,0.0,0.0,0.0,0.0,0.0,0.0,0.0,0.0,0.0,0.0,0.0,0.0,0.0,0.0,0.0,0.0,0.0,0.0,0.0,0.0,0.0,0.0,0.0,0.0,0.0,0.0,0.0,0.0,0.0,0.0,0.0,0.0,0.0,0.0,0.0,0.0,0.0,0.0,0.0,0.0,0.0,0.0,0.0,0.0,0.0,0.0,0.0,0.0,0.0,0.0,0.0,0.0,0.0,1.847,1.7342,1.7342,1.7496,0.0,0.0,0.0,0.0,0.0,0.0,0.0,0.0,0.0,0.0,0.0,0.0,0.0,0.0,0.0,0.0,0.0,0.0,0.0,0.0,0.0,0.0,0.0,0.0,0.0,0.0,0.0,0.0,0.0,0.0,0.0,0.0,0.0,0.0,0.0,0.0,0.0,0.0,0.0,0.0,0.0,0.0,0.0,0.0,0.0,0.0,0.0,0.0,0.0,0.0,0.0,0.0,0.0,0.0,0.0,0.0,0.0,0.0,0.0,0.0,0.0,0.0,0.0,0.0,0.0,0.0,0.0,0.0,0.0,0.0,0.0,0.0,0.0,0.0,0.0,0.0,0.0,0.0,0.0,0.0,0.0,0.0,0.0,0.0,0.0,0.0,0.0,0.0,0.0,0.0,0.0,0.0,0.0,0.0,0.0,0.0,0.0,0.0,0.0,0.0,0.0,0.0,0.0,0.0,0.0,0.0,0.0,0.0,0.0,0.0,1.8123,1.7577,1.6535,1.6445,1.6519,1.6846,0.0,0.0,0.0,0.0,0.0,0.0,0.0,0.0,0.0,0.0,0.0,0.0,0.0,0.0,0.0,0.0,0.0,0.0,0.0,0.0,0.0,0.0,0.0,0.0,0.0,0.0,0.0,0.0,0.0,0.0,0.0,0.0,0.0,0.0,0.0,0.0,0.0,0.0,0.0,0.0,0.0,0.0,0.0,0.0,0.0,0.0,0.0,0.0,0.0,0.0,0.0,0.0,0.0,0.0,0.0,0.0,0.0,0.0,0.0,0.0,0.0,0.0,0.0,0.0,0.0,0.0,0.0,0.0,0.0,0.0,0.0,0.0,0.0,0.0,0.0,0.0,0.0,0.0,0.0,0.0,0.0,0.0,0.0,0.0,0.0,0.0,0.0,0.0,0.0,0.0,0.0,0.0,0.0,0.0,0.0,0.0,0.0,0.0,0.0,0.0,0.0,0.0,0.0,0.0,0.0,0.0,0.0,0.0,1.6443,1.6055,1.5387,1.4328,1.4257,1.4734,0.0,0.0,0.0,0.0,0.0,0.0,0.0,0.0,0.0,0.0,0.0,0.0,0.0,0.0,0.0,0.0,0.0,0.0,0.0,0.0,0.0,0.0,0.0,0.0,0.0,0.0,0.0,0.0,0.0,0.0,0.0,0.0,0.0,0.0,0.0,0.0,0.0,0.0,0.0,0.0,0.0,0.0,0.0,0.0,0.0,0.0,0.0,0.0,0.0,0.0,0.0,0.0,0.0,0.0,0.0,0.0,0.0,0.0,0.0,0.0,0.0,0.0,0.0,0.0,0.0,0.0,0.0,0.0,0.0,0.0,0.0,0.0,0.0,0.0,0.0,0.0,0.0,0.0,0.0,0.0,0.0,0.0,0.0,0.0,0.0,0.0,0.0,0.0,0.0,0.0,0.0,0.0,0.0,0.0,0.0,0.0,0.0,0.0,0.0,0.0,0.0,0.0,0.0,0.0,0.0,0.0,0.0,0.0,0.0,1.6273,1.5245,1.4496,1.4088,1.4088,1.425,0.0,0.0,0.0,0.0,0.0,0.0,0.0,0.0,0.0,0.0,0.0,0.0,0.0,0.0,0.0,0.0,0.0,0.0,0.0,0.0,0.0,0.0,0.0,0.0,0.0,0.0,0.0,0.0,0.0,0.0,0.0,0.0,0.0,0.0,0.0,0.0,0.0,0.0,0.0,0.0,0.0,0.0,0.0,0.0,0.0,0.0,0.0,0.0,0.0,0.0,0.0,0.0,0.0,0.0,0.0,0.0,0.0,0.0,0.0,0.0,0.0,0.0,0.0,0.0,0.0,0.0,0.0,0.0,0.0,0.0,0.0,0.0,0.0,0.0,0.0,0.0,0.0,0.0,0.0,0.0,0.0,0.0,0.0,0.0,0.0,0.0,0.0,0.0,0.0,0.0,0.0,0.0,0.0,0.0,0.0,0.0,0.0,0.0,0.0,0.0,0.0,0.0,0.0,0.0,0.0,0.0,0.0,0.0,0.0,1.5517,0.0,1.347,1.3555,1.347,1.3561,0.0,0.0,0.0,0.0,0.0,0.0,0.0,0.0,0.0,0.0,0.0,0.0,0.0,0.0,0.0,0.0,0.0,0.0,0.0,0.0,0.0,0.0,0.0,0.0,0.0,0.0,0.0,0.0,0.0,0.0,0.0,0.0,0.0,0.0,0.0,0.0,0.0,0.0,0.0,0.0,0.0,0.0,0.0,0.0,0.0,0.0,0.0,0.0,0.0,0.0,0.0,0.0,0.0,0.0,0.0,0.0,0.0,0.0,0.0,0.0,0.0,0.0,0.0,0.0,0.0,0.0,0.0,0.0,0.0,0.0,0.0,0.0,0.0,0.0,0.0,0.0,0.0,0.0,0.0,0.0,0.0,0.0,0.0,0.0,0.0,0.0,0.0,0.0,0.0,0.0,0.0,0.0,0.0,0.0,0.0,0.0,0.0,0.0,0.0,0.0,0.0,0.0,0.0,0.0,0.0,0.0,0.0,0.0,1.513,1.4075,1.2942,1.2328,1.2328,1.2242,1.2328,0.0,0.0,0.0,0.0,0.0,0.0,0.0,0.0,0.0,0.0,0.0,0.0,0.0,0.0,0.0,0.0,0.0,0.0,0.0,0.0,0.0,0.0,0.0,0.0,0.0,0.0,0.0,0.0,0.0,0.0,0.0,0.0,0.0,0.0,0.0,0.0,0.0,0.0,0.0,0.0,0.0,0.0,0.0,0.0,0.0,0.0,0.0,0.0,0.0,0.0,0.0,0.0,0.0,0.0,0.0,0.0,0.0,0.0,0.0,0.0,0.0,0.0,0.0,0.0,0.0,0.0,0.0,0.0,0.0,0.0,0.0,0.0,0.0,0.0,0.0,0.0,0.0,0.0,0.0,0.0,0.0,0.0,0.0,0.0,0.0,0.0,0.0,0.0,0.0,0.0,0.0,0.0,0.0,0.0,0.0,0.0,0.0,0.0,0.0,0.0,0.0,0.0,0.0,0.0,0.0,0.0,0.0,0.0,0.0,1.2845,1.1724,1.1123,1.1123,1.1123,1.1128,0.0,0.0,0.0,0.0,0.0,0.0,0.0,0.0,0.0,0.0,0.0,0.0,0.0,0.0,0.0,0.0,0.0,0.0,0.0,0.0,0.0,0.0,0.0,0.0,0.0,0.0,0.0,0.0,0.0,0.0,0.0,0.0,0.0,0.0,0.0,0.0,0.0,0.0,0.0,0.0,0.0,0.0,0.0,0.0,0.0,0.0,0.0,0.0,0.0,0.0,0.0,0.0,0.0,0.0,0.0,0.0,0.0,0.0,0.0,0.0,0.0,0.0,0.0,0.0,0.0,0.0,0.0,0.0,0.0,0.0,0.0,0.0,0.0,0.0,0.0,0.0,0.0,0.0,0.0,0.0,0.0,0.0,0.0,0.0,0.0,0.0,0.0,0.0,0.0,0.0,0.0,0.0,0.0,0.0,0.0,0.0,0.0,0.0,0.0,0.0,0.0,0.0,0.0,0.0,0.0,0.0,0.0,0.0,0.0,1.095,1.0351,0.9923,0.9923,1.0009,0.9923,1.0009,0.0,0.0,0.0,0.0,0.0,0.0,0.0,0.0,0.0,0.0,0.0,0.0,0.0,0.0,0.0,0.0,0.0,0.0,0.0,0.0,0.0,0.0,0.0,0.0,0.0,0.0,0.0,0.0,0.0,0.0,0.0,0.0,0.0,0.0,0.0,0.0,0.0,0.0,0.0,0.0,0.0,0.0,0.0,0.0,0.0,0.0,0.0,0.0,0.0,0.0,0.0,0.0,0.0,0.0,0.0,0.0,0.0,0.0,0.0,0.0,0.0,0.0,0.0,0.0,0.0,0.0,0.0,0.0,0.0,0.0,0.0,0.0,0.0,0.0,0.0,0.0,0.0,0.0,0.0,0.0,0.0,0.0,0.0,0.0,0.0,0.0,0.0,0.0,0.0,0.0,0.0,0.0,0.0,0.0,0.0,0.0,0.0,0.0,0.0,0.0,0.0,0.0,0.0,0.0,0.0,0.0,0.0,0.0,0.8798,0.8803,0.8803,0.8803,0.8798,0.8803,0.0,0.0,0.0,0.0,0.0,0.0,0.0,0.0,0.0,0.0,0.0,0.0,0.0,0.0,0.0,0.0,0.0,0.0,0.0,0.0,0.0,0.0,0.0,0.0,0.0,0.0,0.0,0.0,0.0,0.0,0.0,0.0,0.0,0.0,0.0,0.0,0.0,0.0,0.0,0.0,0.0,0.0,0.0,0.0,0.0,0.0,0.0,0.0,0.0,0.0,0.0,0.0,0.0,0.0,0.0,0.0,0.0,0.0,0.0,0.0,0.0,0.0,0.0,0.0,0.0,0.0,0.0,0.0,0.0,0.0,0.0,0.0,0.0,0.0,0.0,0.0,0.0,0.0,0.0,0.0,0.0,0.0,0.0,0.0,0.0,0.0,0.0,0.0,0.0,0.0,0.0,0.0,0.0,0.0,0.0,0.0,0.0,0.0,0.0,0.0,0.0,0.0,0.0,0.0,0.0,0.0,0.0,0.0,0.0,0.7577,0.7577,0.7577,0.7577,0.7577,0.7577,0.0,0.0,0.0,0.0,0.0,0.0,0.0,0.0,0.0,0.0,0.0,0.0,0.0,0.0,0.0,0.0,0.0,0.0,0.0,0.0,0.0,0.0,0.0,0.0,0.0,0.0,0.0,0.0,0.0,0.0,0.0,0.0,0.0,0.0,0.0,0.0,0.0,0.0,0.0,0.0,0.0,0.0,0.0,0.0,0.0,0.0,0.0,0.0,0.0,0.0,0.0,0.0,0.0,0.0,0.0,0.0,0.0,0.0,0.0,0.0,0.0,0.0,0.0,0.0,0.0,0.0,0.0,0.0,0.0,0.0,0.0,0.0,0.0,0.0,0.0,0.0,0.0,0.0,0.0,0.0,0.0,0.0,0.0,0.0,0.0,0.0,0.0,0.0,0.0,0.0,0.0,0.0,0.0,0.0,0.0,0.0,0.0,0.0,0.0,0.0,0.0,0.0,0.0,0.0,0.0,0.0,0.0,0.0,0.7115,0.7139,0.7139,0.7139,0.7139,0.7139,0.7139,0.0,0.0,0.0,0.0,0.0,0.0,0.0,0.0,0.0,0.0,0.0,0.0,0.0,0.0,0.0,0.0,0.0,0.0,0.0,0.0,0.0,0.0,0.0,0.0,0.0,0.0,0.0,0.0,0.0,0.0,0.0,0.0,0.0,0.0,0.0,0.0,0.0,0.0,0.0,0.0,0.0,0.0,0.0,0.0,0.0,0.0,0.0,0.0,0.0,0.0,0.0,0.0,0.0,0.0,0.0,0.0,0.0,0.0,0.0,0.0,0.0,0.0,0.0,0.0,0.0,0.0,0.0,0.0,0.0,0.0,0.0,0.0,0.0,0.0,0.0,0.0,0.0,0.0,0.0,0.0,0.0,0.0,0.0,0.0,0.0,0.0,0.0,0.0,0.0,0.0,0.0,0.0,0.0,0.0,0.0,0.0,0.0,0.0,0.0,0.0,0.0,0.0,0.0,0.0,0.0,0.0,0.0,0.0,0.7139,0.7139,0.7139,0.7139,0.7139,0.7139,0.7139,0.0,0.0,0.0,0.0,0.0,0.0,0.0,0.0,0.0,0.0,0.0,0.0,0.0,0.0,0.0,0.0,0.0,0.0,0.0,0.0,0.0,0.0,0.0,0.0,0.0,0.0,0.0,0.0,0.0,0.0,0.0,0.0,0.0,0.0,0.0,0.0,0.0,0.0,0.0,0.0,0.0,0.0,0.0,0.0,0.0,0.0,0.0,0.0,0.0,0.0,0.0,0.0,0.0,0.0,0.0,0.0,0.0,0.0,0.0,0.0,0.0,0.0,0.0,0.0,0.0,0.0,0.0,0.0,0.0,0.0,0.0,0.0,0.0,0.0,0.0,0.0,0.0,0.0,0.0,0.0,0.0,0.0,0.0,0.0,0.0,0.0,0.0,0.0,0.0,0.0,0.0,0.0,0.0,0.0,0.0,0.0,0.0,0.0,0.0,0.0,0.0,0.0,0.0,0.0,0.0,0.0,0.0,0.0,0.7139,0.7139,0.7139,0.7139,0.7139,0.7139,0.7139,0.0,0.0,0.0,0.0,0.0,0.0,0.0,0.0,0.0,0.0,0.0,0.0,0.0,0.0,0.0,0.0,0.0,0.0,0.0,0.0,0.0,0.0,0.0,0.0,0.0,0.0,0.0,0.0,0.0,0.0,0.0,0.0,0.0,0.0,0.0,0.0,0.0,0.0,0.0,0.0,0.0,0.0,0.0,0.0,0.0,0.0,0.0,0.0,3.5546,0.0,0.0,0.0,0.0,0.0,0.0,0.0,0.0,0.0,0.0,0.0,0.0,0.0,0.0,0.0,0.0,0.0,0.0,0.0,0.0,0.0,0.0,0.0,0.0,0.0,0.0,0.0,0.0,0.0,0.0,0.0,0.0,0.0,0.0,0.0,0.0,0.0,0.0,0.0,0.0,0.0,0.0,0.0,0.0,0.0,0.0,0.0,0.0,0.0,0.0,0.0,0.0,0.0,0.0,0.0,0.0,0.0,0.0,0.0,0.7139,0.7139,0.7139,0.6874,0.6337,0.6337,0.6337,0.0,0.0,0.0,0.0,0.0,0.0,0.0,0.0,0.0,0.0,0.0,0.0,0.0,0.0,0.0,0.0,0.0,0.0,0.0,0.0,0.0,0.0,0.0,0.0,0.0,0.0,0.0,0.0,0.0,0.0,0.0,0.0,0.0,0.0,0.0,0.0,0.0,0.0,0.0,0.0,0.0,0.0,0.0,0.0,0.0,0.0,0.0,0.0,0.0,0.0,0.0,0.0,0.0,0.0,0.0,0.0,0.0,0.0,0.0,0.0,0.0,0.0,0.0,0.0,0.0,0.0,0.0,0.0,0.0,0.0,0.0,0.0,0.0,0.0,0.0,0.0,0.0,0.0,0.0,0.0,0.0,0.0,0.0,0.0,0.0,0.0,0.0,0.0,0.0,0.0,0.0,0.0,0.0,0.0,0.0,0.0,0.0,0.0,0.0,0.0,0.0,0.0,0.0,0.0,0.0,0.0,0.0,0.7139,0.7139,0.7139,0.6962,0.634,0.545,0.527,0.5001,0.4823,0.0,0.0,0.0,0.0,0.0,0.0,0.0,0.0,0.0,0.0,0.0,0.0,0.0,0.0,0.0,0.0,0.0,0.0,0.0,0.0,0.0,0.0,0.0,0.0,0.0,0.0,0.0,0.0,0.0,0.0,0.0,0.0,0.0,0.0,0.0,0.0,0.0,0.0,3.5362,3.5532,0.0,0.0,0.0,0.0,0.0,0.0,0.0,0.0,3.5038,0.0,0.0,0.0,0.0,0.0,0.0,0.0,0.0,0.0,0.0,0.0,0.0,0.0,0.0,0.0,0.0,0.0,0.0,0.0,0.0,0.0,0.0,0.0,0.0,0.0,0.0,0.0,0.0,0.0,0.0,0.0,0.0,0.0,0.0,0.0,0.0,0.0,0.0,0.0,0.0,0.0,0.0,0.0,0.0,0.0,0.0,0.0,0.0,0.0,0.0,0.0,0.0,0.0,0.0,0.0,0.0,0.7139,0.7139,0.7139,0.7051,0.616,0.5625,0.5361,0.4463,0.3393,0.2504,0.0,0.0,0.0,0.0,0.0,0.0,0.0,0.0,0.0,0.0,0.0,0.0,0.0,0.0,0.0,0.0,0.0,0.0,0.0,0.0,0.0,0.0,0.0,0.0,0.0,0.0,0.0,0.0,0.0,0.0,0.0,0.0,0.0,0.0,0.0,0.0,0.0,0.0,0.0,3.527,3.5362,0.0,0.0,0.0,0.0,0.0,0.0,0.0,0.0,3.4886,0.0,0.0,0.0,0.0,0.0,0.0,0.0,0.0,0.0,0.0,0.0,0.0,0.0,0.0,0.0,0.0,0.0,0.0,0.0,0.0,0.0,0.0,0.0,0.0,0.0,0.0,0.0,0.0,0.0,0.0,0.0,0.0,0.0,0.0,0.0,0.0,0.0,0.0,0.0,0.0,0.0,0.0,0.0,0.0,0.0,0.0,0.0,0.0,0.0,0.0,0.0,0.0,0.0,0.0,0.0,0.7139,0.7139,0.7139,0.7051,0.5983,0.509,0.4463,0.3306,0.2147,0.0,0.0,0.0,0.0,0.0,0.0,0.0,0.0,0.0,0.0,0.0,0.0,0.0,0.0,0.0,0.0,0.0,0.0,0.0,0.0,0.0,0.0,0.0,0.0,0.0,0.0,0.0,0.0,0.0,0.0,0.0,0.0,0.0,0.0,0.0,0.0,0.0,0.0,0.0,0.0,3.4333,3.4447,3.4137,0.0,0.0,0.0,0.0,0.0,0.0,3.4542,3.5124,0.0,0.0,0.0,0.0,0.0,0.0,0.0,0.0,0.0,0.0,0.0,0.0,0.0,0.0,0.0,0.0,0.0,0.0,0.0,0.0,0.0,0.0,0.0,0.0,0.0,0.0,0.0,0.0,0.0,0.0,0.0,0.0,0.0,0.0,0.0,0.0,0.0,0.0,0.0,0.0,0.0,0.0,0.0,0.0,0.0,0.0,0.0,0.0,0.0,0.0,0.0,0.0,0.0,0.0,0.0,0.7139,0.7139,0.7139,0.7051,0.5983,0.4821,0.3659,0.2413,0.1252,0.0,0.0,0.0,0.0,0.0,0.0,0.0,0.0,0.0,0.0,0.0,0.0,0.0,0.0,0.0,0.0,0.0,0.0,0.0,0.0,0.0,0.0,0.0,0.0,0.0,0.0,0.0,0.0,0.0,0.0,0.0,0.0,0.0,0.0,0.0,0.0,0.0,0.0,0.0,0.0,0.0,3.3547,3.3427,3.2933,0.0,0.0,0.0,0.0,3.3502,3.4501,0.0,0.0,0.0,0.0,0.0,0.0,0.0,0.0,0.0,0.0,0.0,0.0,0.0,0.0,0.0,0.0,0.0,0.0,0.0,0.0,0.0,0.0,0.0,0.0,0.0,0.0,0.0,0.0,0.0,0.0,0.0,0.0,0.0,0.0,0.0,0.0,0.0,0.0,0.0,0.0,0.0,0.0,0.0,0.0,0.0,0.0,0.0,0.0,0.0,0.0,0.0,0.0,0.0,0.0,0.0,0.0,0.7139,0.7139,0.7139,0.7051,0.598,0.4823,0.3659,0.2413,0.1244,0.0,0.0,0.0,0.0,0.0,0.0,0.0,0.0,0.0,0.0,0.0,0.0,0.0,0.0,0.0,0.0,0.0,0.0,0.0,0.0,0.0,0.0,0.0,0.0,0.0,0.0,0.0,0.0,0.0,0.0,0.0,0.0,0.0,0.0,0.0,0.0,0.0,0.0,0.0,0.0,0.0,3.3375,3.2788,3.2625,3.2327,0.0,0.0,3.2841,3.3395,3.41,0.0,0.0,0.0,0.0,0.0,0.0,0.0,0.0,0.0,0.0,0.0,0.0,0.0,0.0,0.0,0.0,0.0,0.0,0.0,0.0,0.0,0.0,0.0,0.0,0.0,0.0,0.0,0.0,0.0,0.0,0.0,0.0,0.0,0.0,0.0,0.0,0.0,0.0,0.0,0.0,0.0,0.0,0.0,0.0,0.0,0.0,0.0,0.0,0.0,0.0,0.0,0.0,0.0,0.0,0.0,0.7139,0.7139,0.7139,0.7139,0.7051,0.5983,0.4821,0.3659,0.2474,0.1226,0.0,0.0,0.0,0.0,0.0,0.0,0.0,0.0,0.0,0.0,0.0,0.0,0.0,0.0,0.0,0.0,0.0,0.0,0.0,0.0,0.0,0.0,0.0,0.0,0.0,0.0,0.0,0.0,0.0,0.0,0.0,0.0,0.0,0.0,0.0,0.0,0.0,0.0,0.0,0.0,0.0,0.0,3.2586,3.2287,0.0,0.0,0.0,3.317,3.3455,0.0,0.0,0.0,0.0,0.0,0.0,0.0,0.0,0.0,0.0,0.0,0.0,0.0,0.0,0.0,0.0,0.0,0.0,0.0,0.0,0.0,0.0,0.0,0.0,0.0,0.0,0.0,0.0,0.0,0.0,0.0,0.0,0.0,0.0,0.0,0.0,0.0,0.0,0.0,0.0,0.0,0.0,0.0,0.0,0.0,0.0,0.0,0.0,0.0,0.0,0.0,0.0,0.0,0.0,0.0,0.0,0.0,0.6694,0.6697,0.6694,0.6605,0.5802,0.4809,0.3631,0.2707,0.0,0.0,0.0,0.0,0.0,0.0,0.0,0.0,0.0,0.0,0.0,0.0,0.0,0.0,0.0,0.0,0.0,0.0,0.0,0.0,0.0,0.0,0.0,0.0,0.0,0.0,0.0,2.1843,0.0,0.0,0.0,0.0,0.0,0.0,0.0,0.0,0.0,0.0,0.0,0.0,0.0,0.0,3.1697,3.2272,3.1853,3.1526,0.0,0.0,3.3559,3.3724,3.4726,3.5489,0.0,0.0,0.0,0.0,0.0,0.0,0.0,0.0,0.0,0.0,0.0,0.0,0.0,0.0,0.0,0.0,0.0,0.0,0.0,0.0,0.0,0.0,0.0,0.0,0.0,0.0,0.0,0.0,0.0,0.0,0.0,0.0,0.0,0.0,0.0,0.0,0.0,0.0,0.0,0.0,0.0,0.0,0.0,0.0,0.0,0.0,0.0,0.0,0.0,0.0,0.0,0.0,0.0,0.0,0.0,0.5539,0.5539,0.5536,0.5536,0.5447,0.4777,0.3649,0.3556,0.2381,0.0,0.0,0.0,0.0,0.0,0.0,0.0,0.0,0.0,0.0,0.0,0.0,0.0,0.0,0.0,0.0,0.0,0.0,0.0,0.0,0.0,0.0,0.0,0.0,0.0,0.0,0.0,0.0,0.0,0.0,0.0,0.0,0.0,0.0,0.0,0.0,0.0,0.0,0.0,0.0,0.0,3.1524,3.1582,3.1539,3.1706,0.0,0.0,3.3694,3.4307,3.5011,3.5489,3.5489,0.0,0.0,0.0,0.0,0.0,0.0,0.0,0.0,0.0,0.0,0.0,0.0,0.0,0.0,0.0,0.0,0.0,0.0,0.0,0.0,0.0,0.0,0.0,0.0,0.0,0.0,0.0,0.0,0.0,0.0,0.0,0.0,0.0,0.0,0.0,0.0,0.0,0.0,0.0,0.0,0.0,0.0,0.0,0.0,0.0,0.0,0.0,0.0,0.0,0.0,0.0,0.0,0.0,0.6517,0.545,0.5361,0.4999,0.4372,0.4847,0.4361,0.2513,0.312,0.2311,0.0,0.0,0.0,0.0,0.0,0.0,0.0,0.0,0.0,0.0,0.0,0.0,0.0,0.0,0.0,0.0,0.0,0.0,0.0,0.0,0.0,0.0,0.0,0.0,0.0,0.0,0.0,0.0,2.3013,2.4457,2.5691,0.0,0.0,0.0,0.0,0.0,0.0,0.0,0.0,0.0,0.0,3.1467,3.1467,3.1467,0.0,0.0,3.3066,3.3724,3.4382,3.5055,3.5489,3.5489,3.5489,0.0,0.0,0.0,0.0,0.0,0.0,0.0,0.0,0.0,0.0,0.0,0.0,0.0,0.0,0.0,0.0,0.0,0.0,0.0,0.0,0.0,0.0,0.0,0.0,0.0,0.0,0.0,0.0,0.0,0.0,0.0,0.0,0.0,0.0,0.0,0.0,0.0,0.0,0.0,0.0,0.0,0.0,0.0,0.0,0.0,0.0,0.0,0.0,0.0,0.0,0.0,0.0,0.6157,0.4376,0.4645,0.4271,0.3096,0.4009,0.3698,0.1953,0.2799,0.2262,0.0,0.0,0.0,0.0,0.0,0.0,0.0,0.0,0.0,0.0,0.0,0.0,0.0,0.0,0.0,0.0,0.0,0.0,0.0,0.0,0.0,0.0,0.0,0.0,0.0,0.0,0.0,0.0,2.3043,2.4722,2.5881,0.0,0.0,0.0,0.0,0.0,0.0,0.0,0.0,0.0,0.0,3.1467,3.1467,3.1704,3.2063,3.2721,3.3365,3.4008,3.4681,3.5205,3.5489,3.5489,0.0,0.0,0.0,0.0,0.0,0.0,0.0,0.0,0.0,0.0,0.0,0.0,0.0,0.0,0.0,0.0,0.0,0.0,0.0,0.0,0.0,0.0,0.0,0.0,0.0,0.0,0.0,0.0,0.0,0.0,0.0,0.0,0.0,0.0,0.0,0.0,0.0,0.0,0.0,0.0,0.0,0.0,0.0,0.0,0.0,0.0,0.0,0.0,0.0,0.0,0.0,0.0,0.0,0.5354,0.1969,0.3124,0.3093,0.191,0.2858,0.2799,0.179,0.2754,0.2244,0.0,0.0,0.0,0.0,0.0,0.0,0.0,0.0,0.0,0.0,0.0,0.0,0.0,0.0,0.0,0.0,0.0,0.0,0.0,0.0,0.0,0.0,0.0,0.0,0.0,0.0,0.0,2.0688,2.3075,2.5281,0.0,0.0,0.0,0.0,0.0,0.0,0.0,0.0,0.0,0.0,3.1467,3.1467,3.1467,3.2078,3.2706,3.335,3.4023,3.4681,3.5355,3.5489,3.5489,0.0,0.0,0.0,0.0,0.0,0.0,0.0,0.0,0.0,0.0,0.0,0.0,0.0,0.0,0.0,0.0,0.0,0.0,0.0,0.0,0.0,0.0,0.0,0.0,0.0,0.0,0.0,0.0,0.0,0.0,0.0,0.0,0.0,0.0,0.0,0.0,0.0,0.0,0.0,0.0,0.3659,0.4463,0.0,0.0,0.0,0.0,0.0,0.0,0.0,0.0,0.0,0.0,0.0,0.0,0.4999,0.3123,0.3348,0.3053,0.1819,0.2022,0.1649,0.065,0.1597,0.1501,0.0,0.0,0.0,0.0,0.0,0.0,0.0,0.0,0.0,0.0,0.0,0.0,0.0,0.0,0.0,0.0,0.0,0.0,0.0,0.0,0.0,0.0,0.0,0.0,0.0,0.0,2.0204,0.0,0.0,0.0,0.0,0.0,0.0,0.0,0.0,0.0,0.0,0.0,3.1467,3.1467,3.1467,3.1467,3.1467,3.2093,3.2751,0.0,0.0,0.0,0.0,0.0,0.0,0.0,0.0,0.0,0.0,0.0,0.0,0.0,0.0,3.5359,3.5052,3.4758,3.461,3.492,0.0,0.0,0.0,0.0,0.0,0.0,0.0,0.0,0.0,0.0,0.0,0.0,0.0,0.0,0.0,0.0,0.0897,0.0,0.0,0.0,0.0,0.0,0.0,0.0,0.0,0.3838,0.4461,0.4816,0.5622,0.5622,0.0,0.4463,0.4821,0.0,0.0,0.0,0.0,0.0,0.0,0.0,0.0,0.4714,0.3266,0.3488,0.2838,0.127,0.1484,0.1052,0.008,0.0633,0.0706,0.0,0.0,0.0,0.0,0.0,0.0,0.0,0.0,0.0,0.0,0.0,0.0,0.0,0.0,0.0,0.0,0.0,0.0,0.0,0.0,0.0,0.0,0.0,0.0,0.0,0.0,2.0009,0.0,0.0,0.0,0.0,0.0,0.0,0.0,0.0,0.0,3.1409,3.1467,3.1467,3.1467,3.1467,3.1556,3.178,0.0,0.0,0.0,0.0,0.0,0.0,0.0,3.5489,3.5489,3.5489,3.5489,3.5489,3.5489,3.5554,3.5831,0.0,0.0,3.5554,3.4971,3.4691,3.5359,3.4192,3.3394,3.4312,3.3463,3.2379,0.0,0.0,0.0,0.0,0.0,0.0,0.0,0.0,0.1344,0.1254,0.0,0.2592,0.0,0.0,0.0,0.0,0.0,0.0,0.0,0.0,0.5359,0.5983,0.7051,0.7051,0.7051,0.7051,0.5983,0.5983,0.6962,0.5983,0.0,0.0,0.0,0.0,0.0,0.0,0.4416,0.2597,0.3197,0.2455,0.0244,0.1055,0.1044,0.0,0.0,0.0,0.0,0.0,0.0,0.0,0.0,0.0,0.0,0.0,0.0,0.0,0.0,0.0,0.0,0.0,0.0,0.0,0.0,0.0,0.0,0.0,0.0,0.0,0.0,0.0,0.0,1.8787,0.0,0.0,0.0,0.0,0.0,0.0,0.0,0.0,0.0,0.0,3.1409,3.1467,3.1467,3.1467,0.0,0.0,0.0,0.0,3.3724,3.4367,3.5055,3.5489,3.5489,3.5489,3.5489,3.5489,0.0,0.0,3.5554,3.5504,3.5718,3.643,3.6554,3.6384,3.5668,3.5554,3.5489,3.5504,3.4691,3.4394,3.5118,3.3973,3.2664,0.3842,0.0,0.0,0.0,0.0,0.2592,0.2592,0.2592,0.2948,0.2858,0.2592,0.3303,0.0,0.0,0.0,0.0,0.0,0.0,0.3929,0.5361,0.5361,0.5983,0.7139,0.7139,0.7139,0.7051,0.6782,0.6782,0.7051,0.6782,0.6068,0.491,0.0,0.0,0.0,0.0,0.487,0.4142,0.3692,0.2871,0.17,0.0878,0.0316,0.0,0.0,0.0,0.0,0.0,0.0,0.0,0.0706,0.0,0.0,0.0,0.0,0.0,0.0,0.0,0.0,0.0,0.0,0.0,0.0,0.0,0.0,0.0,0.0,0.0,0.0,0.0,1.793,1.8787,1.9888,0.0,0.0,0.0,0.0,0.0,0.0,0.0,0.0,0.0,3.1292,3.1467,3.1467,0.0,0.0,3.1721,3.2422,3.308,3.3724,3.4382,0.0,0.0,0.0,3.5489,3.5489,3.5489,3.5489,3.5668,3.6228,3.5831,3.5718,3.643,3.66,3.6492,3.6322,3.6275,3.6117,3.5604,3.4691,3.4327,3.5133,3.4476,3.338,0.5622,0.4905,0.4016,0.357,0.357,0.357,0.357,0.3659,0.4105,0.4016,0.3659,0.455,0.4461,0.357,0.357,0.0,0.0,0.0,0.4907,0.6071,0.6071,0.6425,0.7051,0.7139,0.7139,0.7051,0.6605,0.6694,0.7139,0.6605,0.6071,0.545,0.0,0.0,0.4372,0.4807,0.5251,0.5455,0.4536,0.3544,0.2708,0.1341,0.0628,0.0628,0.0235,0.0157,0.0628,0.0235,0.0,0.0,0.1019,0.1567,0.0,0.0,0.0,0.0,0.0,0.0,0.0,0.0,0.0,0.0,0.0,1.019,1.019,0.0,0.0,0.0,1.6437,1.7423,1.794,1.8787,0.0,0.0,0.0,0.0,0.0,0.0,0.0,2.8367,2.9094,3.0011,3.1336,3.1467,3.1467,3.1467,3.1467,3.1869,3.2781,0.0,3.3829,3.4741,3.5235,3.5489,3.5489,3.5718,3.6022,3.6368,3.6133,3.6054,3.6492,3.6461,3.66,3.698,3.7306,3.7526,3.7526,3.7526,3.7024,3.5782,3.527,3.5175,3.5489,3.4986,3.4327,0.7139,0.6874,0.4816,0.3926,0.3926,0.3926,0.3926,0.3926,0.509,0.491,0.4105,0.6157,0.5888,0.3926,0.3924,0.0,0.0,0.5536,0.6071,0.7139,0.7139,0.7139,0.7139,0.7139,0.7139,0.7051,0.5983,0.6068,0.7051,0.6071,0.5536,0.5536,0.5539,0.5445,0.5341,0.5318,0.5715,0.6685,0.547,0.4311,0.3041,0.2112,0.1567,0.1567,0.0628,0.0628,0.1646,0.0784,0.0235,0.0,0.1254,0.188,0.188,0.0,0.0,0.0,0.0,0.0,0.0,0.0,0.0,0.0,0.0,0.0,0.0,0.0,0.0,0.0,1.6941,0.0,1.8008,1.8844,0.0,0.0,0.0,2.4129,2.5532,2.6814,2.7986,2.8862,0.0,0.0,0.0,0.0,3.1467,3.1467,3.1511,3.2078,3.332,3.3544,3.4038,3.5295,3.5489,3.5489,3.5489,3.6039,3.6843,3.7632,3.7219,3.6722,3.6904,3.7279,3.7764,3.7847,3.8414,3.887,3.887,3.8854,3.8286,3.6133,3.6228,3.643,3.5846,3.5653,3.5429,0.7139,0.7051,0.6514,0.6245,0.6245,0.6245,0.6245,0.6331,0.6602,0.6514,0.6334,0.6871,0.6782,0.6245,0.6245,0.6425,0.6694,0.6694,0.6871,0.7139,0.7139,0.7139,0.7139,0.7139,0.7139,0.7051,0.6874,0.6871,0.7051,0.6871,0.6694,0.6697,0.6694,0.6198,0.5226,0.5887,0.6427,0.661,0.5422,0.3851,0.2034,0.1723,0.1567,0.1567,0.1333,0.1723,0.2656,0.25,0.2345,0.2423,0.3359,0.3986,0.3984,0.3435,0.0,0.0,0.0,0.0,0.0,0.0,0.0,0.0,0.0,1.0115,0.9367,0.0,1.3091,0.0,1.6872,1.8008,1.8008,1.9365,0.0,0.0,2.3496,2.4987,2.6138,2.6569,2.7364,2.8812,2.9178,2.9889,3.1336,3.1467,3.1467,3.1482,3.1973,3.2572,3.338,3.3948,3.4532,3.531,3.5489,3.5489,3.5619,3.6102,3.7068,3.8398,3.8019,3.7732,3.8286,3.8019,3.7978,3.8525,3.8745,3.8924,3.8908,3.9385,3.9156,3.769,3.7413,3.7279,3.6508,3.6814,3.6767,0.7139,0.7139,0.7139,0.7139,0.7139,0.7139,0.7139,0.7139,0.7139,0.7139,0.7139,0.7139,0.7139,0.7139,0.7139,0.7139,0.7139,0.7139,0.7139,0.7139,0.7139,0.7139,0.7139,0.7139,0.7139,0.7139,0.7139,0.7139,0.7139,0.7139,0.7139,0.7139,0.7078,0.6621,0.5884,0.6402,0.6713,0.6655,0.5858,0.4377,0.2347,0.2268,0.2036,0.1645,0.1567,0.2035,0.3046,0.3124,0.289,0.2503,0.3437,0.3982,0.3982,0.3904,0.4062,0.0,0.0,0.0,0.0,0.0,0.0,0.0,0.0,0.0,0.0,0.0,1.3084,0.0,1.6862,0.0,1.8008,1.9243,2.0588,2.2026,2.3435,2.4826,2.6339,2.6521,2.7162,2.8798,2.8989,2.9628,3.1278,3.1467,3.1467,3.1482,3.2362,3.308,3.3469,3.4068,3.4726,3.537,3.5489,3.5797,3.6368,3.6874,3.7674,3.9032,3.8816,3.8414,3.8854,3.887,3.887,3.8908,3.9209,3.942,3.9437,3.9782,3.9679,3.8761,3.8596,3.8358,3.7381,3.7456,3.7424,0.7068,0.7139,0.7139,0.7139,0.7139,0.7139,0.7139,0.7139,0.7139,0.7139,0.7139,0.7139,0.7139,0.7139,0.7139,0.7139,0.7139,0.7139,0.7139,0.7139,0.7139,0.7139,0.7139,0.7139,0.7139,0.7139,0.7139,0.7139,0.7139,0.7139,0.7139,0.7048,0.7,0.6766,0.6536,0.6599,0.6692,0.6642,0.625,0.5079,0.3124,0.3124,0.2657,0.188,0.188,0.2504,0.3435,0.3513,0.3125,0.227,0.3047,0.3515,0.3515,0.4295,0.4688,0.0,0.555,0.0,0.0,0.0,0.0,0.0,0.0,0.0,0.0,1.1842,1.323,1.5021,1.6793,1.7862,1.8008,1.8787,2.0058,2.2003,2.2942,2.4268,2.6221,2.6521,2.7162,2.8812,2.8989,2.9628,3.1219,3.1467,3.1467,3.1571,3.2647,3.3425,3.3559,3.4158,3.4876,3.5444,3.5554,3.618,3.7515,3.7921,3.843,3.9679,3.9489,3.9086,3.9086,3.961,3.985,3.9315,3.961,4.002,4.0087,4.007,3.9885,3.9193,3.9542,3.9506,3.8374,3.8092,3.8035,0.7255,0.7143,0.7139,0.7139,0.7139,0.7139,0.7139,0.7139,0.7139,0.7139,0.7139,0.7139,0.7139,0.7139,0.7139,0.7139,0.7139,0.7139,0.7139,0.7139,0.7139,0.7139,0.7139,0.7139,0.7139,0.7139,0.7139,0.7139,0.7139,0.7139,0.7139,0.7048,0.6997,0.642,0.0,0.0,0.0,0.0,0.5168,0.4137,0.3124,0.3124,0.3046,0.2812,0.3671,0.0,0.5631,0.5705,0.5628,0.5395,0.5628,0.0,0.0,0.0,0.0,0.0,0.0,0.0,0.0,0.0,0.0,0.0,0.9965,1.0565,1.0858,1.2418,1.3954,1.5092,1.6219,1.7207,1.794,1.8787,2.0068,2.1992,2.2954,2.4268,2.6221,2.6521,2.7162,2.8748,2.8989,2.9628,3.1219,3.1467,3.1467,3.1541,3.2662,3.344,3.3499,3.4517,3.531,3.5554,3.5991,3.6964,3.8453,3.869,3.8995,3.985,4.002,3.985,3.985,3.9952,4.0087,3.9833,4.002,4.0087,4.0087,4.0087,4.007,3.9901,4.0003,3.985,3.8924,3.9209,3.9489,0.7397,0.0,0.7255,0.721,0.0,0.7139,0.7139,0.7139,0.7139,0.7139,0.7139,0.7139,0.7139,0.7139,0.7139,0.7139,0.7139,0.7139,0.7139,0.7139,0.7139,0.7139,0.7139,0.7139,0.7139,0.7139,0.7139,0.7139,0.7139,0.7139,0.7105,0.7031,0.6888,0.6485,0.584,0.6198,0.6332,0.6261,0.5625,0.4763,0.3904,0.3904,0.3671,0.3124,0.0,0.0,0.0,0.0,0.0,0.0,0.0,0.0,0.0,0.0,0.0,0.5473,0.5473,0.5473,0.555,0.6934,0.8241,0.9221,1.0714,1.1539,1.1545,1.2865,1.4091,1.5092,1.6079,1.6991,1.7872,1.8405,1.9599,2.1855,2.2616,2.3771,2.6021,2.6521,2.7149,2.862,2.8989,2.9628,3.1278,3.1467,3.1467,3.1541,3.2662,3.3514,3.3619,3.4651,3.5604,3.6006,3.6692,3.7616,3.8674,3.9246,3.961,4.0003,4.0087,4.0087,4.0087,4.0087,4.0087,4.0087,4.0087,4.0087,4.0087,4.0087,4.0154,4.0417,4.0286,4.0137,3.9885,4.0003,4.0003,0.755,0.7411,0.7383,0.7299,0.718,0.7153,0.7139,0.7139,0.0,0.0,0.0,0.7139,0.7139,0.7139,0.7139,0.7139,0.7139,0.7139,0.7139,0.7139,0.7139,0.7139,0.7139,0.7139,0.7139,0.7139,0.7139,0.7139,0.7139,0.7139,0.7071,0.6929,0.6776,0.661,0.6441,0.6318,0.6261,0.6261,0.6264,0.5789,0.4766,0.4688,0.4295,0.3435,0.445,0.5002,0.5002,0.5867,0.5867,0.5002,0.5002,0.5002,0.5002,0.5002,0.5392,0.618,0.6261,0.6261,0.6338,0.7399,0.8613,0.975,1.1397,1.2305,1.2305,1.3171,1.4099,1.5084,1.607,1.6991,1.7872,1.8008,1.9145,2.1878,2.2195,2.3339,2.5977,2.6521,2.7175,2.862,2.8989,2.9642,3.1219,3.1467,3.1467,3.1631,3.2662,3.3757,3.4089,3.5102,3.6133,3.6964,3.76,3.8262,3.8978,3.961,4.007,4.007,4.0087,4.0087,4.0087,4.0087,4.0087,4.0087,4.0087,4.0171,4.0204,4.0286,4.0466,4.0967,4.0703,4.0497,4.0891,4.0703,4.0385,0.7699,0.7556,0.7428,0.736,0.7329,0.7197,0.7139,0.7139,0.7139,0.7139,0.7139,0.7139,0.7139,0.7139,0.7139,0.7139,0.7139,0.7139,0.7139,0.0,0.7139,0.7139,0.7139,0.7139,0.7139,0.7139,0.7139,0.7139,0.7139,0.7139,0.7068,0.6926,0.6776,0.6563,0.6312,0.6349,0.6261,0.6261,0.6271,0.5796,0.4766,0.4688,0.4611,0.453,0.5473,0.6099,0.6099,0.618,0.6257,0.6099,0.6099,0.6103,0.6103,0.6022,0.618,0.6257,0.6261,0.6261,0.6335,0.8012,0.99,1.1626,1.215,1.2305,1.2305,1.3164,1.4099,1.5092,1.6079,1.7001,1.7862,1.8008,1.9145,2.1764,2.2195,2.335,2.6096,2.6521,2.7162,2.8748,2.8989,2.9628,3.1161,3.1467,3.1467,3.1704,3.2721,3.4151,3.5722,3.6307,3.7068,3.8213,3.869,3.9086,3.9662,3.9952,4.0087,4.0087,4.0087,4.0121,4.0171,4.0171,4.0171,4.0121,4.0204,4.0319,4.0672,4.078,4.1041,4.1534,4.1508,4.1508,4.1621,4.1552,4.1168,0.8898,0.8653,0.7918,0.7567,0.7482,0.7329,0.7217,0.7143,0.7139,0.7139,0.7139,0.7139,0.7139,0.7139,0.7139,0.7139,0.7139,0.7139,0.7139,0.7139,0.7139,0.7139,0.7139,0.7139,0.7139,0.7139,0.7139,0.7139,0.7132,0.7065,0.6953,0.68,0.6576,0.6393,0.6349,0.6261,0.6261,0.6261,0.6264,0.6032,0.5553,0.555,0.5553,0.555,0.6025,0.6261,0.6261,0.6261,0.6261,0.6261,0.6261,0.6261,0.6261,0.6261,0.6261,0.6261,0.6261,0.657,0.7099,0.8988,1.072,1.215,1.2305,1.2305,1.2305,1.3171,1.4099,1.5092,1.607,1.7001,1.7862,1.8008,1.9145,2.1889,2.2195,2.3374,2.5847,2.6521,2.7162,2.8684,2.8989,2.9628,3.1278,3.1467,3.1467,3.1644,3.3002,3.5038,3.7419,3.7815,3.8044,3.8745,3.8924,3.9262,3.9952,4.0087,4.0087,4.0087,4.0087,4.0254,4.0449,4.0528,4.0546,4.0577,4.075,4.092,4.0995,4.1178,4.1621,4.208,4.1979,4.1937,4.2121,4.1793,4.0978,1.04,1.0158,0.916,0.8482,0.7951,0.7618,0.7305,0.7193,0.7156,0.7139,0.7139,0.7139,0.7139,0.7139,0.7139,0.7139,0.7139,0.7139,0.7139,0.7139,0.7139,0.7139,0.7139,0.7139,0.7139,0.7139,0.7139,0.7139,0.7122,0.6997,0.6834,0.6644,0.6386,0.6261,0.6261,0.6261,0.6261,0.6261,0.6261,0.6261,0.6261,0.6261,0.6261,0.6261,0.6261,0.6261,0.6261,0.6261,0.6261,0.6261,0.6261,0.6261,0.6261,0.6261,0.6261,0.6338,0.6493,0.7173,0.8456,0.9884,1.1242,1.2231,1.2305,1.2372,1.2659,1.3528,1.4378,1.5163,1.6298,1.7276,1.7862,1.8202,1.9349,2.1844,2.24,2.3647,2.5952,2.6521,2.7162,2.862,2.8989,2.9642,3.1014,3.1467,3.1732,3.2443,3.3809,3.5927,3.8292,3.9016,3.9193,3.9193,3.9193,3.9437,4.002,4.0087,4.0171,4.0237,4.0269,4.0577,4.092,4.1087,4.1087,4.1133,4.1446,4.1639,4.1402,4.1664,4.2203,4.2675,4.2598,4.2404,4.2752,4.2144,4.1188,1.1741,1.1691,1.1411,1.0543,0.9241,0.7982,0.7454,0.7416,0.72,0.7139,0.7139,0.7139,0.7139,0.7139,0.7139,0.7139,0.7139,0.7139,0.7139,0.7139,0.7139,0.7139,0.7139,0.7139,0.7139,0.7139,0.7139,0.7136,0.7119,0.6983,0.6773,0.6508,0.6414,0.6261,0.6261,0.6261,0.6261,0.6261,0.6261,0.6261,0.6261,0.6261,0.6261,0.6261,0.6261,0.6261,0.6261,0.6261,0.6261,0.6261,0.6261,0.6261,0.6261,0.6261,0.6261,0.6335,0.7176,0.8456,1.0265,1.0714,1.1242,1.2157,1.2305,1.2659,1.3455,1.4458,1.5092,1.5517,1.6862,1.7794,1.8008,1.8654,1.9935,2.1913,2.2863,2.4201,2.6027,2.6521,2.7162,2.8812,2.9066,2.9642,3.1161,3.1524,3.2322,3.3975,3.4975,3.6464,3.8611,3.9489,3.9833,3.9901,3.9969,3.9969,4.0087,4.0087,4.0303,4.0655,4.0827,4.1041,4.1446,4.1725,4.1707,4.1707,4.1835,4.2062,4.2302,4.2616,4.277,4.3124,4.325,4.3267,4.3321,4.2828,4.2185,1.3102,1.3,1.2133,1.1392,1.0707,0.9956,0.9622,0.9499,0.8802,0.8376,0.8105,0.7404,0.7139,0.7139,0.7139,0.7139,0.7139,0.7139,0.7139,0.7139,0.7139,0.7139,0.7139,0.7139,0.7139,0.7139,0.7139,0.7007,0.6987,0.6776,0.6552,0.6363,0.6285,0.6261,0.6261,0.6261,0.6261,0.6261,0.6261,0.6261,0.6261,0.6261,0.6261,0.6261,0.6261,0.6261,0.6261,0.6261,0.6261,0.6261,0.6261,0.6261,0.6261,0.6261,0.6261,0.6412,0.7783,0.9291,1.0714,1.1316,1.1842,1.2305,1.2305,1.2659,1.3673,1.4593,1.5367,1.6079,1.7217,1.8212,1.8721,1.911,2.016,2.212,2.3112,2.4147,2.577,2.6713,2.7736,2.8812,2.9456,3.0194,3.1263,3.191,3.3064,3.492,3.5948,3.7154,3.9189,3.9901,4.007,4.0087,4.0087,4.0087,4.0087,4.0087,4.0385,4.0733,4.0903,4.1178,4.2062,4.2342,4.2342,4.2342,4.2562,4.2657,4.2616,4.3014,4.325,4.3513,4.3479,4.3479,4.3479,4.305,4.2732,1.4459,1.4166,1.3011,1.2427,1.2252,1.1651,1.1334,1.102,1.0107,0.9547,0.9231,0.8261,0.7654,0.7577,0.7228,0.7139,0.7139,0.7139,0.7139,0.7139,0.7139,0.7139,0.7139,0.7139,0.7139,0.7139,0.7139,0.7044,0.6858,0.6607,0.64,0.6281,0.6261,0.6261,0.6261,0.6261,0.6261,0.6261,0.6261,0.6261,0.6261,0.6261,0.6261,0.6261,0.6261,0.6261,0.6261,0.6261,0.6261,0.6261,0.6261,0.6261,0.6261,0.6261,0.6567,0.7173,0.8466,0.9895,1.1093,1.1916,1.2305,1.2305,1.2519,1.3098,1.4027,1.5021,1.5939,1.6862,1.7579,1.8327,1.911,1.9497,2.0543,2.2474,2.3334,2.4316,2.5482,2.6854,2.7986,2.8876,2.9704,3.0689,3.1595,3.2302,3.3396,3.5573,3.6509,3.7585,3.948,4.0087,4.0087,4.0121,4.0204,4.0237,4.0171,4.0286,4.0528,4.1013,4.1313,4.1835,4.2675,4.2864,4.2939,4.2958,4.3373,4.3495,4.3196,4.3356,4.3646,4.3646,4.3646,4.3646,4.3679,4.3353,4.3387,1.5737,1.5534,1.4364,1.3765,1.3736,1.2341,1.1651,1.1496,1.0437,1.0245,1.0443,0.9798,0.9196,0.8715,0.7665,0.7139,0.7139,0.7139,0.7139,0.7139,0.7139,0.7139,0.7139,0.7139,0.7139,0.7139,0.7139,0.6997,0.6722,0.6549,0.6479,0.6349,0.6261,0.6261,0.6261,0.6261,0.6261,0.6261,0.6261,0.6261,0.6261,0.6261,0.6261,0.6261,0.6261,0.6261,0.6261,0.6261,0.6261,0.6261,0.6261,0.6261,0.6261,0.6261,0.7099,0.8841,0.9221,1.0196,1.1848,1.2224,1.2305,1.2378,1.3018,1.4027,1.495,1.586,1.6784,1.7784,1.7998,1.8462,1.9299,2.0009,2.1028,2.2543,2.3931,2.4878,2.5577,2.696,2.8011,2.8939,2.9936,3.1028,3.2312,3.2586,3.399,3.588,3.6785,3.7652,3.948,4.0087,4.0087,4.0204,4.0449,4.072,4.0303,4.0594,4.1105,4.1578,4.2103,4.2675,4.3124,4.3479,4.3444,4.3477,4.3707,4.3754,4.3612,4.3693,4.3912,4.3986,4.3986,4.3986,4.4004,4.4308,4.4308,1.5825,1.573,1.5343,1.514,1.5013,1.4365,1.3915,1.3652,1.2951,1.2237,1.186,1.2175,1.1559,0.9923,0.8798,0.7841,0.7139,0.7139,0.7139,0.7139,0.7139,0.7139,0.7139,0.7139,0.7139,0.7139,0.7139,0.699,0.6702,0.6458,0.6312,0.6271,0.6261,0.6261,0.6261,0.6261,0.6261,0.6261,0.6261,0.6261,0.6261,0.6261,0.6261,0.6261,0.6261,0.6261,0.6261,0.6261,0.6261,0.6261,0.6261,0.6261,0.6261,0.6261,0.7176,0.8998,0.9296,1.0196,1.1922,1.2305,1.2305,1.2378,1.3164,1.4171,1.5092,1.6079,1.7001,1.7852,1.8529,1.9177,1.9955,2.0398,2.1233,2.2774,2.4053,2.5064,2.6063,2.7437,2.8862,2.9799,3.0955,3.2018,3.2571,3.3339,3.4639,3.6421,3.7203,3.827,3.9598,4.0087,4.0121,4.0204,4.0528,4.0827,4.0685,4.1087,4.1664,4.2162,4.2598,4.2921,4.3321,4.3495,4.3495,4.3786,4.3998,4.4175,4.4076,4.4154,4.4337,4.4373,4.4373,4.4398,4.4392,4.4669,4.4619,1.5825,1.5825,1.5825,1.5825,1.5805,1.5618,1.5371,1.509,1.4563,1.3905,1.3299,1.3834,1.2973,1.1225,1.0351,0.9144,0.7753,0.7316,0.7139,0.7139,0.7139,0.7139,0.7139,0.7139,0.7139,0.7119,0.7037,0.6865,0.6627,0.638,0.6264,0.6261,0.6261,0.6261,0.6261,0.6261,0.6261,0.6261,0.6261,0.6261,0.6261,0.6261,0.6261,0.6261,0.6261,0.6261,0.6261,0.6261,0.6261,0.6261,0.6261,0.6261,0.6261,0.6261,0.7176,0.8998,0.9296,1.0201,1.1929,1.2305,1.2445,1.2813,1.3665,1.4593,1.5587,1.6498,1.7285,1.7988,1.8777,1.9617,2.0398,2.0846,2.1616,2.296,2.4142,2.5154,2.6074,2.7786,2.933,3.0555,3.1736,3.2532,3.3002,3.3937,3.5284,3.6887,3.7631,3.8481,3.9698,4.007,4.0204,4.0385,4.0874,4.1313,4.156,4.2085,4.2185,4.2559,4.2921,4.3196,4.3424,4.3579,4.3772,4.4076,4.4318,4.4482,4.4587,4.4631,4.4707,4.4738,4.4824,4.4859,4.4897,4.4941,4.4944,1.5825,1.5825,1.5825,1.5825,1.5825,1.5798,1.5645,1.5344,1.5161,1.4763,1.4276,1.4229,1.3404,1.2419,1.2066,1.0956,0.9144,0.8013,0.7312,0.7139,0.7139,0.7139,0.7139,0.7139,0.7129,0.7102,0.6841,0.6634,0.6488,0.6417,0.6261,0.6261,0.6261,0.6261,0.6261,0.6261,0.6261,0.6261,0.6261,0.6261,0.6261,0.6261,0.6261,0.6261,0.6261,0.6261,0.6261,0.6261,0.6261,0.6261,0.6261,0.6261,0.6338,0.6416,0.7249,0.8922,0.9372,1.0351,1.1996,1.2378,1.2806,1.3528,1.4593,1.5579,1.6358,1.7285,1.794,1.8066,1.8844,1.9759,2.0526,2.1353,2.2199,2.3056,2.4192,2.5268,2.633,2.7898,2.9642,3.1146,3.2216,3.2879,3.3495,3.4235,3.5523,3.7059,3.7824,3.8362,3.9664,4.0069,4.0368,4.078,4.1358,4.1895,4.2501,4.3069,4.2939,4.2939,4.3196,4.3461,4.3689,4.3881,4.4106,4.4382,4.4811,4.4992,4.5046,4.5086,4.5067,4.511,4.5208,4.5297,4.5332,4.5365,4.5401,1.5825,1.5825,1.5825,1.5825,1.5825,1.5825,1.5665,1.547,1.5493,1.511,1.4509,1.4215,1.3906,1.3379,1.2674,1.1895,1.1128,1.0,0.8619,0.7401,0.7139,0.7139,0.7139,0.7139,0.7088,0.6959,0.6688,0.6522,0.6454,0.6329,0.6261,0.6261,0.6261,0.6261,0.6261,0.6261,0.6261,0.6261,0.6261,0.6261,0.6261,0.6261,0.6261,0.6261,0.6261,0.6261,0.6261,0.6261,0.6261,0.6261,0.6261,0.6261,0.6416,0.6945,0.7931,0.9145,0.9965,1.0864,1.2144,1.2879,1.331,1.3954,1.5226,1.621,1.6636,1.7432,1.8008,1.8202,1.9309,2.0333,2.0719,2.1928,2.2763,2.3078,2.4651,2.6021,2.71,2.9149,3.0719,3.1437,3.2571,3.3339,3.3751,3.4496,3.5736,3.6945,3.7584,3.8345,3.9221,4.0144,4.0638,4.0949,4.1707,4.2422,4.2846,4.3214,4.3286,4.3249,4.3477,4.3726,4.3955,4.4204,4.4455,4.4743,4.5163,4.5399,4.5468,4.5478,4.5439,4.551,4.5628,4.5677,4.572,4.572,4.572,1.5825,1.5825,1.5825,1.5825,1.5825,1.5825,1.5732,1.5611,1.5742,1.5356,1.473,1.4262,1.4088,1.3913,1.3294,1.2766,1.2242,1.1552,1.0265,0.8615,0.8448,0.8185,0.7738,0.7257,0.6987,0.6824,0.6593,0.6444,0.639,0.6386,0.6261,0.6261,0.6261,0.6261,0.6261,0.6261,0.6261,0.6261,0.6261,0.6261,0.6261,0.6261,0.6261,0.6261,0.6261,0.6261,0.6261,0.6261,0.6261,0.6261,0.6261,0.649,0.6872,0.748,0.8389,0.9669,1.049,1.1242,1.2224,1.3164,1.389,1.445,1.5728,1.6784,1.707,1.7716,1.8066,1.8664,1.9748,2.073,2.1227,2.2237,2.3065,2.315,2.4896,2.6668,2.8208,3.0192,3.1349,3.1781,3.2718,3.3427,3.3836,3.4785,3.5898,3.6671,3.7432,3.8303,3.9174,4.0191,4.0776,4.1402,4.2121,4.2693,4.2995,4.3286,4.3548,4.3612,4.3726,4.3974,4.4204,4.4508,4.4757,4.5104,4.5491,4.5591,4.5679,4.5744,4.5755,4.59,4.5959,4.5947,4.592,4.5947,4.5928,1.5825,1.5825,1.5825,1.5825,1.5825,1.5825,1.5818,1.5826,1.5825,1.5459,1.4925,1.4335,1.4088,1.4088,1.3906,1.3379,1.2589,1.2504,1.1906,1.1042,1.0697,1.0173,0.874,0.7486,0.6834,0.6681,0.6522,0.6393,0.6288,0.6271,0.6261,0.6261,0.6261,0.6261,0.6261,0.6261,0.6261,0.6261,0.6261,0.6261,0.6261,0.6261,0.6261,0.6261,0.6261,0.6261,0.6261,0.6261,0.6261,0.6261,0.6412,0.6872,0.7633,0.7859,0.8988,1.0565,1.0789,1.1391,1.2291,1.3375,1.4243,1.5021,1.6088,1.7019,1.7794,1.793,1.8337,1.911,2.0074,2.091,2.1753,2.258,2.3163,2.3666,2.5292,2.7379,2.9889,3.1073,3.1452,3.1838,3.2718,3.3633,3.3735,3.4864,3.579,3.6535,3.7313,3.8329,3.9325,4.0294,4.1419,4.208,4.2616,4.2939,4.3268,4.3493,4.3726,4.3868,4.4016,4.4346,4.4561,4.483,4.5033,4.5399,4.5658,4.5742,4.584,4.5881,4.5944,4.6001,4.605,4.6108,4.6117,4.6101,4.6056,1.5825,1.5825,1.5825,1.5825,1.5825,1.5825,1.5825,1.5765,1.5832,1.5473,1.4939,1.4342,1.4088,1.4088,1.4088,1.3906,1.3639,1.3555,1.3561,1.3215,1.3215,1.1368,0.9007,0.7418,0.6685,0.6539,0.6403,0.6295,0.6261,0.6261,0.6261,0.6261,0.6261,0.6261,0.6261,0.6261,0.6261,0.6261,0.6261,0.6261,0.6261,0.6261,0.6261,0.6261,0.6261,0.6261,0.6261,0.6261,0.6261,0.6335,0.7022,0.748,0.8012,0.9135,1.0185,1.0783,1.1539,1.1922,1.2512,1.3875,1.4879,1.5305,1.6655,1.7735,1.794,1.8008,1.8462,1.9233,2.0085,2.0985,2.1815,2.2628,2.3897,2.584,2.6617,2.8082,3.0426,3.1351,3.1697,3.2256,3.3077,3.3684,3.4333,3.5021,3.5661,3.6129,3.7102,3.8189,3.924,4.0709,4.1937,4.2444,4.2976,4.325,4.3495,4.374,4.3943,4.4058,4.4354,4.4853,4.5011,4.5182,4.5362,4.5603,4.5694,4.5828,4.5891,4.5967,4.6039,4.612,4.6172,4.6211,4.6211,4.6191,4.6109,1.5825,1.5825,1.5825,1.5825,1.5825,1.5825,1.5825,1.5718,1.5636,1.5369,1.4932,1.4342,1.4088,1.4088,1.4088,1.4088,1.4088,1.4088,1.4088,1.3997,1.347,1.177,0.9606,0.8085,0.7104,0.6471,0.6407,0.6268,0.6261,0.6261,0.6261,0.6261,0.6261,0.6261,0.6261,0.6261,0.6261,0.6261,0.6261,0.6261,0.6261,0.6261,0.6261,0.6261,0.6261,0.6261,0.6261,0.6261,0.649,0.6945,0.748,0.8156,0.9059,1.011,1.1013,1.1391,1.1996,1.2305,1.2666,1.4099,1.5092,1.5517,1.6941,1.7794,1.8008,1.8008,1.8395,1.9759,2.0344,2.1164,2.2249,2.3113,2.4761,2.6658,2.7563,2.8814,3.126,3.1467,3.1853,3.2532,3.3198,3.3887,3.4544,3.5207,3.5515,3.5955,3.728,3.8215,3.9231,4.0967,4.2342,4.2884,4.3301,4.3575,4.3804,4.4016,4.4354,4.4489,4.4719,4.5222,4.5342,4.5475,4.5565,4.5696,4.5777,4.5861,4.5959,4.6075,4.6173,4.625,4.6289,4.6289,4.625,4.6173,4.6108,1.6015,1.6015,1.5825,1.5825,1.5825,1.5825,1.5798,1.5671,1.5399,1.5136,1.4783,1.4329,1.4095,1.4088,1.4088,1.4088,1.4088,1.4088,1.4088,1.3822,1.3178,1.1922,1.0533,0.8886,0.7716,0.6831,0.6468,0.6271,0.6261,0.6261,0.6261,0.6261,0.6261,0.6261,0.6261,0.6261,0.6261,0.6261,0.6261,0.6261,0.6261,0.6261,0.6261,0.6261,0.6261,0.6412,0.649,0.6644,0.7022,0.8089,0.8008,0.8912,1.0409,1.0789,1.1391,1.1996,1.2231,1.2305,1.2732,1.4235,1.5305,1.5658,1.7079,1.794,1.8008,1.8144,1.8921,2.0344,2.0655,2.1604,2.298,2.3943,2.5347,2.7153,2.8097,2.9417,3.0949,3.1597,3.191,3.2641,3.3287,3.3987,3.4592,3.5144,3.5622,3.6034,3.7386,3.8624,3.9723,4.1274,4.2499,4.3232,4.3609,4.3924,4.4165,4.4364,4.4713,4.4992,4.5203,4.5475,4.5526,4.5629,4.5692,4.5769,4.5859,4.5955,4.6059,4.617,4.6268,4.6289,4.6289,4.6289,4.6248,4.6117,4.6027,1.7318,1.7225,1.6197,1.5825,1.5825,1.5825,1.5698,1.5471,1.5318,1.4945,1.4583,1.4242,1.4095,1.4088,1.4088,1.4088,1.4088,1.4088,1.4088,1.4082,1.3913,1.2837,1.1258,0.9471,0.8142,0.745,0.6666,0.6338,0.6335,0.649,0.6335,0.6335,0.6338,0.6261,0.6261,0.6261,0.6261,0.6261,0.6261,0.6261,0.6261,0.6261,0.6338,0.6335,0.6335,0.6795,0.7326,0.748,0.8385,0.9437,0.9513,0.9588,1.0714,1.1539,1.1996,1.2224,1.2378,1.2659,1.3455,1.4522,1.5517,1.628,1.7217,1.8008,1.8066,1.8654,1.9431,2.0526,2.1239,2.2237,2.3695,2.4681,2.6048,2.7627,2.8805,2.9892,3.1237,3.2007,3.2586,3.3235,3.3937,3.4624,3.5253,3.5453,3.5878,3.6346,3.753,3.8977,4.0335,4.1681,4.2668,4.3579,4.3955,4.4271,4.4409,4.4638,4.5033,4.5284,4.5493,4.5651,4.5692,4.5764,4.5808,4.588,4.5966,4.6047,4.614,4.62,4.6289,4.6289,4.6269,4.6211,4.6147,4.6033,4.5879,1.8503,1.8411,1.721,1.6662,1.6567,1.6103,1.5665,1.5378,1.5187,1.4892,1.4502,1.4215,1.4088,1.4088,1.4088,1.4088,1.4088,1.4088,1.4088,1.4088,1.4062,1.3507,1.2246,1.0396,0.9016,0.8444,0.748,0.7253,0.748,0.7249,0.7022,0.6945,0.6567,0.6338,0.6261,0.6261,0.6261,0.6261,0.6261,0.6261,0.6261,0.6261,0.6641,0.6868,0.7022,0.748,0.8389,0.8542,0.9367,1.0265,1.034,1.0421,1.1316,1.2003,1.2231,1.2305,1.2813,1.3098,1.381,1.5013,1.6079,1.6567,1.7432,1.7862,1.8202,1.8777,1.9694,2.0526,2.1428,2.2555,2.4105,2.4964,2.633,2.8008,2.9138,3.0243,3.1658,3.2382,3.2841,3.3547,3.412,3.483,3.5345,3.5677,3.6028,3.6454,3.8443,3.9846,4.0525,4.1849,4.3051,4.3862,4.4299,4.4568,4.4688,4.4947,4.5303,4.5493,4.5629,4.5708,4.5761,4.5856,4.5938,4.5994,4.6047,4.6108,4.62,4.6268,4.6268,4.6211,4.6172,4.6113,4.6039,4.5946,4.5716,1.9761,1.967,1.8503,1.787,1.7584,1.6699,1.6123,1.5565,1.5286,1.5115,1.4622,1.4345,1.4088,1.4088,1.4088,1.4088,1.4088,1.4088,1.4088,1.4088,1.4088,1.3705,1.2824,1.1335,1.0322,0.9682,0.8327,0.8241,0.8618,0.8313,0.7629,0.7557,0.6795,0.6335,0.6261,0.6261,0.6261,0.6261,0.6261,0.6261,0.6412,0.649,0.7099,0.7855,0.8084,0.8537,0.9291,0.9593,1.004,1.0938,1.1013,1.1465,1.2003,1.2305,1.2305,1.2298,1.3098,1.3745,1.4307,1.5508,1.6567,1.6784,1.7501,1.794,1.8202,1.8977,1.9879,2.0707,2.1729,2.3088,2.4337,2.5231,2.6538,2.8231,2.9317,3.06,3.2106,3.2749,3.3339,3.3735,3.4496,3.5161,3.5571,3.5941,3.6249,3.687,3.8933,4.051,4.1119,4.2047,4.3272,4.4087,4.4463,4.4905,4.5077,4.512,4.5494,4.5629,4.5737,4.5809,4.5852,4.5948,4.604,4.6069,4.6117,4.618,4.621,4.6229,4.62,4.6136,4.6064,4.6021,4.5938,4.5856,4.5549,2.1025,2.0935,1.967,1.8588,1.7918,1.8099,1.752,1.6477,1.6002,1.5752,1.5322,1.451,1.4088,1.4088,1.4088,1.4088,1.4088,1.4088,1.4088,1.4088,1.4075,1.3854,1.3228,1.2061,1.1563,1.1289,0.9627,0.8618,0.9069,0.8313,0.8237,0.771,0.6872,0.6412,0.6412,0.6261,0.6261,0.6261,0.6261,0.6261,0.6412,0.7099,0.7859,0.8765,0.8993,0.9593,1.0265,1.0565,1.1013,1.1916,1.2077,1.215,1.2305,1.2305,1.2378,1.2592,1.331,1.4171,1.5021,1.5939,1.7001,1.7579,1.794,1.8008,1.8395,1.9375,2.0322,2.1204,2.2567,2.4208,2.5119,2.5783,2.7238,2.8857,2.997,3.0994,3.2382,3.3427,3.4137,3.4431,3.5005,3.5498,3.5837,3.6249,3.6626,3.7341,3.8941,4.0375,4.1185,4.2321,4.3669,4.4233,4.4612,4.5077,4.5438,4.5475,4.5601,4.5703,4.579,4.5871,4.5946,4.6047,4.6113,4.6117,4.6166,4.623,4.6228,4.62,4.6132,4.6047,4.5986,4.5929,4.5762,4.5592,4.5264,2.2217,2.212,2.0935,2.0005,1.9297,1.8856,1.8193,1.7212,1.642,1.5918,1.5452,1.4657,1.4088,1.4088,1.4088,1.4088,1.4088,1.4088,1.4088,1.4088,1.4075,1.3928,1.347,1.2277,1.2321,1.1954,1.0545,0.9814,1.0645,0.989,0.9286,0.8983,0.7851,0.7099,0.6945,0.6567,0.6412,0.6335,0.6338,0.6335,0.6412,0.7326,0.8313,0.9145,0.9895,1.0565,1.1397,1.1545,1.1768,1.215,1.2305,1.2305,1.2452,1.2739,1.3018,1.3164,1.3954,1.4879,1.5869,1.6784,1.7579,1.7862,1.8008,1.8269,1.8844,1.9814,2.0899,2.2027,2.299,2.4624,2.53,2.6068,2.7482,2.9137,3.021,3.1399,3.2792,3.3956,3.4592,3.4988,3.5345,3.5705,3.6122,3.6522,3.7002,3.7952,3.9137,4.0196,4.1169,4.2478,4.383,4.4588,4.4947,4.5203,4.5566,4.5601,4.568,4.5783,4.5878,4.5955,4.6033,4.614,4.6129,4.6111,4.6186,4.62,4.6167,4.608,4.6034,4.5974,4.5871,4.5757,4.5545,4.5285,4.5001,2.3086,2.2921,2.1919,2.1134,2.0443,1.9713,1.8845,1.8029,1.7187,1.6513,1.5891,1.4977,1.4328,1.4173,1.4088,1.4088,1.4088,1.4088,1.4088,1.4088,1.4082,1.3928,1.3382,1.2766,1.2321,1.2503,1.1677,1.1539,1.1694,1.1013,1.0789,1.019,0.8836,0.8084,0.7936,0.7253,0.6795,0.6648,0.6338,0.6412,0.7022,0.7706,0.8689,0.982,1.0714,1.1465,1.2077,1.215,1.215,1.2305,1.2305,1.2305,1.2445,1.3164,1.3738,1.4099,1.495,1.579,1.6498,1.7432,1.7872,1.8008,1.8008,1.8462,1.9309,2.0268,2.1479,2.2871,2.4047,2.4724,2.5398,2.6229,2.7603,2.9146,3.0428,3.1486,3.3054,3.4301,3.5005,3.5345,3.5588,3.5924,3.6333,3.6943,3.747,3.7918,3.9073,4.0299,4.1327,4.2481,4.3718,4.4786,4.5342,4.5438,4.5601,4.5648,4.5733,4.5813,4.5929,4.6027,4.6117,4.6223,4.6171,4.6117,4.6041,4.605,4.6021,4.5986,4.5939,4.5836,4.5744,4.5568,4.5342,4.5082,4.4768,2.292,2.2588,2.2398,2.1447,2.0334,2.0632,2.0244,1.917,1.869,1.8031,1.7009,1.5944,1.4977,1.4412,1.4166,1.4166,1.4088,1.4088,1.4088,1.4088,1.4075,1.3928,1.3552,1.326,1.2805,1.2746,1.2289,1.217,1.2077,1.131,1.0932,1.064,0.9895,0.9145,0.8993,0.8165,0.7791,0.7799,0.6953,0.7173,0.8542,0.8998,1.0126,1.1248,1.1922,1.2077,1.2231,1.2305,1.2305,1.2305,1.2305,1.2305,1.2452,1.3164,1.4163,1.4942,1.579,1.6498,1.6775,1.7501,1.8008,1.8008,1.8076,1.8462,1.9628,2.0921,2.2125,2.2992,2.4323,2.5231,2.5673,2.664,2.807,2.9438,3.0709,3.199,3.3466,3.4657,3.5316,3.5776,3.6037,3.6249,3.6563,3.7248,3.7913,3.8355,3.9002,4.0246,4.1624,4.2875,4.3866,4.4996,4.5457,4.5568,4.5635,4.568,4.5764,4.5871,4.5986,4.6094,4.6191,4.625,4.6186,4.6101,4.6014,4.5907,4.5881,4.5839,4.5796,4.5689,4.5552,4.5361,4.5161,4.4849,4.4482,2.2324,2.2158,2.2158,2.1646,2.0822,2.1057,2.0825,2.0019,1.9277,1.8718,1.8149,1.709,1.6034,1.5137,1.497,1.465,1.425,1.4088,1.4088,1.4082,1.4055,1.3921,1.3641,1.3347,1.3053,1.2726,1.2472,1.2238,1.2077,1.1922,1.162,1.1471,1.0714,1.019,1.0045,0.9145,0.8604,0.8219,0.7829,0.8143,0.914,0.9895,1.0565,1.1465,1.2003,1.2231,1.2305,1.2305,1.2305,1.2305,1.2305,1.2592,1.3171,1.4027,1.5021,1.5939,1.6862,1.7354,1.7491,1.7803,1.794,1.8202,1.8529,1.9375,2.059,2.1803,2.2871,2.3767,2.4724,2.5508,2.6,2.6967,2.8411,2.9827,3.1013,3.2481,3.373,3.4805,3.5694,3.6097,3.6481,3.6724,3.6981,3.7542,3.8099,3.8492,3.9099,4.0114,4.1876,4.371,4.4592,4.536,4.5568,4.5586,4.5632,4.5692,4.5776,4.5891,4.6014,4.6113,4.623,4.625,4.6172,4.608,4.5967,4.5852,4.5757,4.5722,4.5688,4.5541,4.5361,4.5142,4.4896,4.4463,4.399,2.166,2.1562,2.167,2.1465,2.1074,2.1074,2.0879,2.0518,1.9766,1.9283,1.8718,1.7819,1.6764,1.6108,1.5786,1.522,1.458,1.425,1.4088,1.4075,1.3981,1.3788,1.3494,1.3213,1.2913,1.2639,1.2412,1.2311,1.2305,1.2231,1.2157,1.2305,1.1545,1.1236,1.0938,1.019,0.9427,0.8661,0.8746,0.913,0.9739,1.0415,1.0864,1.1391,1.1848,1.2305,1.2305,1.2305,1.2305,1.2305,1.2305,1.2592,1.3171,1.4307,1.5234,1.6149,1.7079,1.7862,1.7862,1.8008,1.8134,1.8586,1.9365,2.0526,2.1491,2.2628,2.3424,2.4118,2.4894,2.5673,2.6443,2.7137,2.8556,2.9902,3.1177,3.2757,3.418,3.5086,3.5854,3.6249,3.6684,3.7248,3.7542,3.7911,3.8281,3.864,3.9285,4.0132,4.1954,4.4115,4.4997,4.5566,4.5586,4.5618,4.5708,4.5736,4.5839,4.5935,4.6045,4.6133,4.625,4.6211,4.6113,4.6008,4.5909,4.5794,4.5699,4.5648,4.5586,4.5475,4.5284,4.4947,4.4587,4.4098,4.3498,2.1035,2.0684,2.1113,2.1035,2.0625,2.0615,2.0605,2.0576,2.0479,1.9923,1.9036,1.798,1.7488,1.7001,1.6437,1.5951,1.5545,1.4573,1.4384,1.4129,1.3801,1.3615,1.3326,1.2946,1.2672,1.2418,1.2311,1.2311,1.2305,1.2305,1.2305,1.2231,1.2003,1.215,1.1842,1.1093,1.034,0.9814,0.9911,1.0288,1.0576,1.0938,1.131,1.1922,1.2231,1.2305,1.2305,1.2305,1.2305,1.2305,1.2445,1.2666,1.3382,1.4585,1.5579,1.6228,1.7226,1.794,1.8008,1.8076,1.8462,1.9365,2.0526,2.1553,2.2063,2.2689,2.3424,2.4292,2.5063,2.5783,2.6496,2.7307,2.8546,3.0198,3.1549,3.282,3.4157,3.5239,3.5924,3.6374,3.6904,3.7506,3.7929,3.8267,3.8468,3.8815,3.9672,4.0524,4.2151,4.4058,4.4976,4.5547,4.5586,4.5648,4.5769,4.5836,4.59,4.6021,4.6124,4.6186,4.625,4.6178,4.6089,4.5971,4.5839,4.5742,4.5651,4.5601,4.5568,4.5438,4.5201,4.4757,4.4119,4.3498,4.285,2.0723,2.0586,2.0752,2.0723,2.0576,2.0576,2.0576,2.0576,2.0566,2.0411,1.9932,1.9511,1.8948,1.831,1.798,1.7334,1.6683,1.6363,1.5599,1.5042,1.4676,1.3978,1.3423,1.2862,1.2674,1.2365,1.2305,1.2305,1.2305,1.2305,1.2305,1.2305,1.2305,1.2305,1.2077,1.1922,1.1471,1.1254,1.1347,1.1571,1.1632,1.1694,1.1922,1.2231,1.2305,1.2305,1.2305,1.2305,1.2305,1.2445,1.2879,1.331,1.3947,1.5296,1.6079,1.6576,1.7588,1.794,1.8076,1.8144,1.8654,2.0009,2.1175,2.2137,2.2506,2.2944,2.3813,2.461,2.5245,2.5892,2.7034,2.7569,2.8464,3.0362,3.1871,3.301,3.4276,3.5447,3.6147,3.6684,3.7285,3.7877,3.8234,3.8546,3.8737,3.8998,3.9958,4.1019,4.2565,4.3902,4.482,4.5524,4.5618,4.5677,4.579,4.5871,4.5959,4.6084,4.6204,4.6211,4.6225,4.6153,4.605,4.5929,4.5808,4.5718,4.5668,4.562,4.5513,4.5322,4.4966,4.4474,4.3775,4.296,4.235,2.0576,2.0576,2.0576,2.0576,2.0576,2.0576,2.0576,2.0576,2.0576,2.0576,2.0576,2.0566,2.0235,1.9599,1.9036,1.8638,1.7777,1.7202,1.6533,1.5761,1.5042,1.4285,1.3446,1.2845,1.2472,1.2331,1.2305,1.2305,1.2305,1.2305,1.2305,1.2305,1.2305,1.2305,1.2305,1.2305,1.2305,1.2305,1.2305,1.2305,1.2231,1.2231,1.2224,1.2305,1.2305,1.2305,1.2305,1.2305,1.2519,1.2879,1.3382,1.4171,1.5092,1.6079,1.6853,1.7432,1.7862,1.8008,1.8076,1.8731,1.9431,2.0846,2.1803,2.2506,2.2957,2.3305,2.4163,2.5119,2.5577,2.6229,2.7509,2.7855,2.8984,3.0863,3.1724,3.2853,3.4611,3.5941,3.6481,3.702,3.7578,3.8065,3.8517,3.8826,3.9109,3.9432,4.0283,4.1338,4.2659,4.384,4.4645,4.5271,4.5648,4.5713,4.582,4.5909,4.6039,4.6167,4.6249,4.6189,4.6175,4.6089,4.6008,4.5869,4.5769,4.5708,4.5599,4.5475,4.5322,4.518,4.4707,4.4165,4.3382,4.2582,4.2026,2.0644,2.0576,2.0644,2.0644,2.0566,2.0576,2.0576,2.0576,2.0576,2.0576,2.0576,2.0576,2.0566,2.0235,1.9474,1.9016,1.8689,1.7648,1.6785,1.6378,1.5547,1.4547,1.3836,1.3223,1.2661,1.2392,1.2445,1.2519,1.2452,1.2519,1.2519,1.2378,1.2378,1.2305,1.2305,1.2305,1.2305,1.2305,1.2305,1.2305,1.2305,1.2305,1.2305,1.2305,1.2305,1.2305,1.2305,1.2519,1.2806,1.3382,1.3947,1.4665,1.5376,1.6289,1.6853,1.6922,1.7647,1.7998,1.8134,1.9628,2.0782,2.1616,2.231,2.2944,2.3245,2.3767,2.4452,2.53,2.596,2.6654,2.7494,2.8232,2.9624,3.0959,3.183,3.3065,3.4806,3.6266,3.6843,3.7266,3.7649,3.8114,3.8663,3.9109,3.9427,3.9913,4.0701,4.1724,4.2862,4.3602,4.4352,4.524,4.5723,4.5808,4.5891,4.6008,4.6117,4.6245,4.6248,4.6175,4.608,4.5981,4.5891,4.579,4.5703,4.5616,4.5456,4.5322,4.5033,4.4713,4.4346,4.3781,4.2959,4.2302,4.1768,2.2113,2.1517,2.1517,2.1155,2.0644,2.0576,2.0576,2.0576,2.0576,2.0576,2.0576,2.0576,2.0576,2.0343,1.9937,1.9496,1.9344,1.8995,1.8192,1.695,1.6224,1.564,1.48,1.39,1.3237,1.3244,1.3244,1.3237,1.3237,1.3237,1.3237,1.3164,1.2666,1.2305,1.2305,1.2305,1.2305,1.2305,1.2305,1.2305,1.2305,1.2378,1.2378,1.2452,1.2452,1.2445,1.2519,1.2945,1.3448,1.4019,1.4657,1.5649,1.6149,1.7001,1.7432,1.7501,1.7998,1.8586,1.9497,2.0858,2.1491,2.2125,2.2628,2.3065,2.3185,2.3884,2.4624,2.5398,2.6176,2.6878,2.7509,2.814,2.9405,3.1086,3.2232,3.3504,3.4979,3.6273,3.7135,3.7451,3.7826,3.8387,3.8943,3.9249,3.9552,3.9882,4.054,4.1684,4.2838,4.3272,4.3885,4.5104,4.5796,4.589,4.5986,4.608,4.6153,4.6248,4.6202,4.6084,4.5988,4.59,4.5808,4.5723,4.5632,4.5531,4.5223,4.4924,4.4542,4.4175,4.3862,4.3453,4.2754,4.2162,4.1664,2.3147,2.2542,2.2553,2.2188,2.1527,2.0867,2.0576,2.0576,2.0576,2.0576,2.0547,2.042,2.0322,2.0205,1.9922,1.9697,1.9648,1.9175,1.885,1.7602,1.708,1.6386,1.5584,1.4736,1.4314,1.4243,1.4243,1.4235,1.4235,1.4235,1.3954,1.3528,1.3098,1.2666,1.2445,1.2305,1.2526,1.2666,1.2952,1.3098,1.331,1.3448,1.3382,1.3455,1.3448,1.3448,1.352,1.3875,1.4378,1.4942,1.5711,1.6775,1.7139,1.7579,1.8008,1.8008,1.8462,1.9299,2.073,2.1365,2.1939,2.2384,2.2811,2.3065,2.3352,2.4163,2.4794,2.5508,2.6336,2.6982,2.761,2.8253,2.958,3.132,3.2557,3.3824,3.5169,3.6475,3.7173,3.7487,3.8032,3.8621,3.909,3.9383,3.9668,4.0003,4.036,4.1577,4.2701,4.3115,4.3678,4.4943,4.5805,4.5938,4.6047,4.6144,4.6223,4.6289,4.6175,4.602,4.5944,4.5871,4.5756,4.5635,4.5566,4.5381,4.4924,4.4561,4.4204,4.3831,4.3474,4.3014,4.2519,4.1937,4.1402,2.3588,2.3514,2.3526,2.3503,2.3114,2.148,2.07,2.0605,2.0615,2.0595,2.0604,2.0105,1.9912,1.9814,1.9453,1.9277,1.918,1.8809,1.8562,1.8187,1.7372,1.6848,1.6376,1.5728,1.5305,1.5234,1.5226,1.5226,1.5226,1.5234,1.4736,1.4099,1.3882,1.3448,1.3018,1.2952,1.3171,1.3382,1.3745,1.4027,1.445,1.4807,1.4665,1.4665,1.4665,1.4665,1.4807,1.5092,1.5649,1.614,1.6636,1.7217,1.7657,1.8018,1.8076,1.8327,1.9044,2.0398,2.1428,2.1877,2.2322,2.2823,2.3113,2.3185,2.359,2.4439,2.5175,2.5932,2.6745,2.7225,2.781,2.8903,3.0028,3.1393,3.2669,3.4037,3.5436,3.644,3.7058,3.7596,3.8201,3.8766,3.9171,3.9481,3.9775,4.012,4.0507,4.1229,4.2274,4.2988,4.3714,4.4994,4.5697,4.5974,4.6094,4.6211,4.6211,4.6246,4.612,4.5995,4.5909,4.5825,4.5718,4.5618,4.5549,4.5283,4.4806,4.4346,4.3912,4.356,4.3232,4.2696,4.2221,4.1534,4.0949,2.5217,2.4564,2.4552,2.3913,2.2894,2.1919,2.1313,2.1036,2.0772,2.0567,2.0565,2.0012,1.9649,1.9434,1.9014,1.8867,1.8672,1.8437,1.8252,1.79,1.7724,1.7598,1.7217,1.6645,1.6289,1.6219,1.621,1.621,1.6219,1.6228,1.5737,1.4958,1.4807,1.4522,1.4378,1.4378,1.4163,1.4099,1.453,1.5021,1.5305,1.5446,1.5446,1.5446,1.5446,1.5446,1.5517,1.5939,1.6428,1.6567,1.7285,1.7794,1.794,1.8596,1.9044,1.9879,2.0655,2.1479,2.1877,2.2445,2.2823,2.3185,2.3531,2.3884,2.4221,2.4838,2.5618,2.6322,2.7246,2.7879,2.8352,2.9278,3.0412,3.1665,3.2871,3.4075,3.5488,3.6551,3.7157,3.7843,3.8465,3.8876,3.9282,3.9552,3.984,4.0212,4.0652,4.1239,4.1921,4.2652,4.3628,4.4927,4.5729,4.6025,4.6152,4.6269,4.6211,4.6173,4.605,4.5952,4.5859,4.5769,4.568,4.553,4.5323,4.5055,4.4701,4.4223,4.3693,4.3424,4.3124,4.2541,4.1937,4.1313,4.0733,2.5828,2.5229,2.4966,2.4115,2.3029,2.2594,2.2205,2.1712,2.1156,2.0834,2.0471,1.9726,1.9226,1.8975,1.8603,1.8379,1.8359,1.8193,1.8047,1.8047,1.8008,1.794,1.7716,1.7423,1.7217,1.7139,1.7139,1.7139,1.7139,1.7079,1.6664,1.5799,1.5728,1.5517,1.5296,1.5367,1.5438,1.5296,1.5446,1.5877,1.6088,1.6219,1.6298,1.6219,1.6228,1.6228,1.6298,1.6932,1.707,1.7139,1.7862,1.8008,1.8134,1.8787,2.0009,2.0782,2.1428,2.2002,2.2445,2.2763,2.3005,2.3305,2.3884,2.4337,2.4894,2.5453,2.596,2.6549,2.7615,2.8559,2.8996,2.9563,3.0766,3.1885,3.3033,3.4108,3.5371,3.6619,3.7398,3.8132,3.864,3.9063,3.9383,3.9622,3.9903,4.0266,4.0523,4.0781,4.1586,4.2479,4.3482,4.4686,4.5521,4.6133,4.623,4.6269,4.6211,4.6117,4.6001,4.59,4.5803,4.5723,4.5635,4.5362,4.5055,4.4806,4.458,4.4004,4.3495,4.3286,4.2958,4.2324,4.181,4.1313,4.075,2.5536,2.5432,2.4971,2.4226,2.3418,2.3257,2.2918,2.248,2.1844,2.1258,2.0593,1.9384,1.8794,1.8785,1.8507,1.8222,1.8232,1.8221,1.8202,1.8076,1.8008,1.8008,1.8008,1.794,1.7725,1.7862,1.793,1.7716,1.7862,1.7794,1.7364,1.6706,1.6715,1.6437,1.6088,1.6428,1.6576,1.6576,1.6645,1.6932,1.751,1.7862,1.8008,1.7862,1.7794,1.7862,1.7862,1.794,1.8008,1.8008,1.8144,1.8202,1.8921,1.9309,2.059,2.1416,2.2063,2.2384,2.275,2.3005,2.3185,2.3484,2.393,2.4724,2.5453,2.5892,2.6351,2.6953,2.8012,2.8685,2.9134,2.9941,3.1023,3.2051,3.3085,3.4266,3.5492,3.6787,3.7859,3.846,3.877,3.9197,3.9524,3.9754,4.0043,4.0372,4.0539,4.0622,4.1184,4.2168,4.3248,4.4386,4.5431,4.6122,4.623,4.625,4.6191,4.6084,4.5967,4.5861,4.5747,4.5665,4.5603,4.5342,4.5055,4.4781,4.4474,4.3931,4.3495,4.3321,4.2903,4.2144,4.1621,4.1223,4.075,2.5008,2.4946,2.4418,2.4066,2.379,2.3331,2.3096,2.2985,2.2778,2.2262,2.1251,1.9449,1.8627,1.9142,1.907,1.8787,1.8337,1.8787,1.8529,1.8327,1.8202,1.8395,1.8076,1.8212,1.8144,1.8008,1.8008,1.8008,1.8008,1.793,1.793,1.7647,1.7579,1.7295,1.7079,1.7501,1.7501,1.7501,1.7579,1.7579,1.793,1.8008,1.8008,1.8008,1.8008,1.8008,1.8008,1.8008,1.8008,1.8008,1.8721,1.9628,2.0921,2.1112,2.1753,2.2567,2.2689,2.2884,2.2944,2.3125,2.3365,2.3989,2.4667,2.5439,2.6,2.6351,2.6811,2.7565,2.8192,2.8748,2.9467,3.0375,3.1194,3.2121,3.3202,3.4463,3.5711,3.7022,3.8263,3.8658,3.8943,3.9257,3.9599,3.9922,4.0195,4.0356,4.0457,4.0622,4.0994,4.1762,4.2797,4.3977,4.5431,4.6093,4.621,4.6223,4.614,4.6014,4.5901,4.5783,4.568,4.5635,4.5586,4.5381,4.512,4.4806,4.4419,4.3931,4.3579,4.3303,4.2865,4.2103,4.1578,4.1178,4.0703,2.4456,2.4381,2.3853,2.3615,2.3552,2.3263,2.3125,2.3103,2.307,2.2862,2.2371,2.0978,2.0161,1.9987,1.9879,1.9694,1.9243,1.9628,1.9628,1.9299,1.9044,1.9233,1.9044,1.8731,1.8664,1.8596,1.8134,1.8008,1.8008,1.8008,1.8008,1.8008,1.8008,1.8008,1.8008,1.8008,1.8008,1.8008,1.8008,1.8008,1.8008,1.8008,1.8008,1.8008,1.8008,1.8008,1.8008,1.8008,1.8008,1.8289,1.8952,2.0226,2.1262,2.169,2.2261,2.2823,2.3065,2.3125,2.3125,2.3245,2.3531,2.4279,2.5007,2.5618,2.6428,2.6811,2.7565,2.8255,2.8701,2.9255,2.9848,3.0708,3.1043,3.1755,3.3304,3.4777,3.6274,3.7794,3.8566,3.8886,3.9178,3.9505,3.984,4.012,4.0372,4.0438,4.05,4.0597,4.0964,4.1407,4.2426,4.3516,4.4922,4.5937,4.625,4.6198,4.6075,4.5963,4.5836,4.5756,4.5668,4.5618,4.5531,4.54,4.5161,4.4757,4.4337,4.3899,4.3389,4.305,4.258,4.2038,4.1534,4.1041,4.0528,2.3879,2.3816,2.3364,2.3138,2.3138,2.3125,2.3125,2.3078,2.3078,2.3078,2.3055,2.2933,2.2131,2.1186,2.0782,2.0643,2.0643,2.0655,2.0655,2.0462,2.0398,2.0139,1.9944,1.9814,1.9431,1.9044,1.8596,1.8202,1.8008,1.8008,1.8008,1.8008,1.8008,1.8008,1.8008,1.8008,1.8008,1.8008,1.8008,1.8134,1.8066,1.7998,1.8008,1.8008,1.8008,1.8008,1.8008,1.8134,1.8134,1.8741,1.9483,2.0816,2.1702,2.2249,2.2506,2.2944,2.3125,2.3125,2.3125,2.3305,2.3826,2.4452,2.5119,2.5877,2.6745,2.7515,2.8222,2.8826,2.9271,2.9717,3.0293,3.0757,3.1049,3.1691,3.3415,3.5291,3.6946,3.836,3.873,3.9063,3.9383,3.969,4.0023,4.0319,4.0454,4.0515,4.0584,4.0701,4.0932,4.1435,4.2163,4.3144,4.4297,4.5195,4.6035,4.6147,4.6014,4.592,4.579,4.5703,4.5651,4.562,4.5568,4.5495,4.5201,4.4732,4.4337,4.3962,4.3422,4.2864,4.2342,4.1853,4.1258,4.075,4.0269,2.3301,2.3288,2.3103,2.3125,2.3125,2.3125,2.3125,2.3125,2.3125,2.3125,2.3103,2.3007,2.2506,2.169,2.1616,2.1491,2.1101,2.1365,2.1049,2.0655,2.0974,2.0782,2.0655,2.059,1.9944,1.9497,1.911,1.8721,1.8586,1.8327,1.8076,1.8202,1.8134,1.8134,1.8076,1.8144,1.8269,1.8327,1.8395,1.8529,1.8721,1.8586,1.8076,1.8008,1.8008,1.8008,1.8134,1.8731,1.8911,1.9497,2.0473,2.169,2.2384,2.2689,2.2884,2.2944,2.3125,2.3185,2.3305,2.3649,2.4221,2.5119,2.5837,2.6481,2.7261,2.8012,2.8685,2.9271,2.9717,3.0064,3.0576,3.0918,3.128,3.2183,3.3572,3.5828,3.7826,3.8413,3.8815,3.9109,3.9432,3.9754,4.0101,4.0339,4.0489,4.0559,4.0623,4.0732,4.0836,4.1379,4.1914,4.2851,4.3789,4.4844,4.5838,4.5986,4.5927,4.5825,4.5761,4.568,4.5618,4.5603,4.5568,4.5419,4.5096,4.4657,4.428,4.3931,4.3387,4.2808,4.2244,4.1682,4.1076,4.0546,4.0087]}]]